[[{"header":{"parameterUnit":"m.s-1","parameterCategory":1,"la1":30.6,"la2":29.2853,"lo1":-89.7004,"lo2":-87.6739,"dy":0.0162,"dx":0.0183,"nx":112,"ny":82,"refTime":"2023-07-03T06:00:00:Z","depth":0,"parameterNumber":2,"parameterNumberName":"U-component_of_WINDS"},"data":[0.0,0.0,0.0,0.0,0.0,0.0,0.0,0.0,0.0,0.0,0.0,0.0,0.0,0.0,0.0,0.0,0.0,0.0,0.0,0.0,0.0,0.0,0.0,0.0,0.0,0.0,0.0,0.0,0.0,0.0,0.0,0.0,0.0,0.0,0.0,0.0,0.0,0.0,0.0,0.0,0.0,0.0,0.0,0.0,0.0,0.0,0.0,0.0,0.0,0.0,0.0,0.0,0.0,0.0,0.0,0.0,0.0,0.0,0.0,0.0,0.0,0.0,0.0,0.0,0.0,0.0,0.0,0.0,0.0,0.0,0.0,0.0,0.0,0.0,0.0,0.0,0.0,0.0,0.0,0.0,0.0,0.0,0.0,0.0,0.0,0.0,0.0,0.0,0.0,0.0,0.0,-1.7621,-2.0713,-2.2607,-2.2607,-2.1982,-2.0029,-1.6427,0.0,0.0,0.0,0.0,0.0,0.0,0.0,0.0,0.0,0.0,0.0,0.0,0.0,0.0,0.0,0.0,0.0,0.0,0.0,0.0,0.0,0.0,0.0,0.0,0.0,0.0,0.0,0.0,0.0,0.0,0.0,0.0,0.0,0.0,0.0,0.0,0.0,0.0,0.0,0.0,0.0,0.0,0.0,0.0,0.0,0.0,0.0,0.0,0.0,0.0,0.0,0.0,0.0,0.0,0.0,0.0,0.0,0.0,0.0,0.0,0.0,0.0,0.0,0.0,0.0,0.0,0.0,0.0,0.0,0.0,0.0,0.0,0.0,0.0,0.0,0.0,0.0,0.0,0.0,0.0,0.0,0.0,0.0,0.0,0.0,0.0,0.0,0.0,0.0,0.0,0.0,0.0,0.0,0.0,0.0,0.0,0.0,0.0,0.0,0.0,0.0,0.0,0.0,0.0,-1.4901,-1.9617,-2.1865,-2.3003,-2.3003,-2.1259,-1.9189,-1.6746,0.0,0.0,0.0,0.0,0.0,0.0,0.0,0.0,0.0,0.0,0.0,0.0,0.0,0.0,0.0,0.0,0.0,0.0,0.0,0.0,0.0,0.0,0.0,0.0,0.0,0.0,0.0,0.0,0.0,0.0,0.0,0.0,0.0,0.0,0.0,0.0,0.0,0.0,0.0,0.0,0.0,0.0,0.0,0.0,0.0,0.0,0.0,0.0,0.0,0.0,0.0,0.0,0.0,0.0,0.0,0.0,0.0,0.0,0.0,0.0,0.0,0.0,0.0,0.0,0.0,0.0,0.0,0.0,0.0,0.0,0.0,0.0,0.0,0.0,0.0,0.0,0.0,0.0,0.0,0.0,0.0,0.0,0.0,0.0,0.0,0.0,0.0,0.0,0.0,0.0,0.0,0.0,0.0,0.0,0.0,0.0,0.0,0.0,0.0,0.0,0.0,0.0,0.0,-1.4277,-1.7012,-2.0557,-2.1636,-2.2309,-2.2726,-2.0607,-1.8431,-1.6502,-1.4941,0.0,0.0,0.0,0.0,0.0,0.0,0.0,0.0,0.0,0.0,0.0,0.0,0.0,0.0,0.0,0.0,0.0,0.0,0.0,0.0,0.0,0.0,0.0,0.0,0.0,0.0,0.0,0.0,0.0,0.0,0.0,0.0,0.0,0.0,0.0,0.0,0.0,0.0,0.0,0.0,0.0,0.0,0.0,0.0,0.0,0.0,0.0,0.0,0.0,0.0,0.0,0.0,0.0,0.0,0.0,0.0,0.0,0.0,0.0,0.0,0.0,0.0,0.0,0.0,0.0,0.0,0.0,0.0,0.0,0.0,0.0,0.0,0.0,0.0,0.0,0.0,0.0,0.0,0.0,0.0,0.0,0.0,0.0,0.0,0.0,0.0,0.0,0.0,0.0,0.0,0.0,0.0,0.0,0.0,0.0,0.0,0.0,0.0,0.0,0.0,0.0,0.0,-1.6621,-1.9326,-2.1191,-2.1317,-2.1502,-2.2093,-1.9745,-1.7533,-1.5821,-1.4026,0.0,0.0,0.0,0.0,0.0,0.0,0.0,0.0,0.0,0.0,0.0,0.0,0.0,0.0,0.0,0.0,0.0,0.0,0.0,0.0,0.0,0.0,0.0,0.0,0.0,0.0,0.0,0.0,0.0,0.0,0.0,0.0,0.0,0.0,0.0,0.0,0.0,0.0,0.0,0.0,0.0,0.0,0.0,0.0,0.0,0.0,0.0,0.0,0.0,0.0,0.0,0.0,0.0,0.0,0.0,0.0,0.0,0.0,0.0,0.0,0.0,0.0,0.0,0.0,0.0,0.0,0.0,0.0,0.0,0.0,0.0,0.0,0.0,0.0,0.0,0.0,0.0,0.0,0.0,0.0,0.0,0.0,0.0,0.0,0.0,0.0,0.0,0.0,0.0,0.0,0.0,0.0,0.0,0.0,0.0,0.0,0.0,0.0,0.0,0.0,0.0,0.0,-1.8061,-2.0801,-2.1738,-2.1537,-2.1228,-2.1012,-1.8506,-1.6271,-1.472,-1.2795,0.0,0.0,0.0,0.0,0.0,0.0,0.0,0.0,0.0,0.0,0.0,0.0,0.0,0.0,0.0,0.0,0.0,0.0,0.0,0.0,0.0,0.0,0.0,0.0,0.0,0.0,0.0,0.0,0.0,0.0,0.0,0.0,0.0,0.0,0.0,0.0,0.0,0.0,0.0,0.0,0.0,0.0,0.0,0.0,0.0,0.0,0.0,0.0,0.0,0.0,0.0,0.0,0.0,0.0,0.0,0.0,0.0,0.0,0.0,0.0,0.0,0.0,0.0,0.0,0.0,0.0,0.0,0.0,0.0,0.0,0.0,0.0,0.0,0.0,0.0,0.0,0.0,0.0,0.0,0.0,0.0,0.0,0.0,0.0,0.0,0.0,0.0,0.0,0.0,0.0,0.0,0.0,0.0,0.0,0.0,0.0,0.0,0.0,0.0,0.0,0.0,0.0,-1.6401,-1.8597,0.0,-1.9117,-1.8858,-1.9059,-1.7039,-1.5206,-1.3911,0.0,0.0,0.0,0.0,0.0,0.0,0.0,0.0,0.0,0.0,0.0,0.0,0.0,0.0,0.0,0.0,0.0,0.0,0.0,0.0,0.0,0.0,0.0,0.0,0.0,0.0,0.0,0.0,0.0,0.0,0.0,0.0,0.0,0.0,0.0,0.0,0.0,0.0,0.0,0.0,0.0,0.0,0.0,0.0,0.0,0.0,0.0,0.0,0.0,0.0,0.0,0.0,0.0,0.0,0.0,0.0,0.0,0.0,0.0,0.0,0.0,0.0,0.0,0.0,0.0,0.0,0.0,0.0,0.0,0.0,0.0,0.0,0.0,0.0,0.0,0.0,0.0,0.0,0.0,0.0,0.0,0.0,0.0,0.0,0.0,0.0,0.0,0.0,0.0,0.0,0.0,0.0,0.0,0.0,0.0,0.0,0.0,0.0,0.0,0.0,0.0,0.0,-1.3248,-1.5462,-1.7346,0.0,-1.7671,-1.7291,-1.7431,-1.5629,-1.3941,-1.268,0.0,0.0,0.0,0.0,0.0,0.0,0.0,0.0,0.0,0.0,0.0,0.0,0.0,0.0,0.0,0.0,0.0,0.0,0.0,0.0,0.0,0.0,0.0,0.0,0.0,0.0,0.0,0.0,0.0,0.0,0.0,0.0,0.0,0.0,0.0,0.0,0.0,0.0,0.0,0.0,0.0,0.0,0.0,0.0,0.0,0.0,0.0,0.0,0.0,0.0,0.0,0.0,0.0,0.0,0.0,0.0,0.0,0.0,0.0,0.0,0.0,0.0,0.0,0.0,0.0,0.0,0.0,0.0,0.0,0.0,0.0,0.0,0.0,0.0,0.0,0.0,0.0,0.0,0.0,0.0,0.0,0.0,0.0,0.0,0.0,0.0,0.0,0.0,0.0,0.0,0.0,0.0,0.0,0.0,0.0,0.0,0.0,0.0,0.0,0.0,0.0,0.0,-1.3646,-1.5833,-1.7573,-1.8298,-1.7671,-1.6929,-1.6312,-1.4314,-1.2471,0.0,0.0,0.0,0.0,0.0,0.0,0.0,0.0,0.0,0.0,0.0,0.0,0.0,0.0,0.0,0.0,0.0,0.0,0.0,0.0,0.0,0.0,0.0,0.0,0.0,0.0,0.0,0.0,0.0,0.0,0.0,0.0,0.0,0.0,0.0,0.0,0.0,0.0,0.0,0.0,0.0,0.0,0.0,0.0,0.0,0.0,0.0,0.0,0.0,0.0,0.0,0.0,0.0,0.0,0.0,0.0,0.0,0.0,0.0,0.0,0.0,0.0,0.0,0.0,0.0,0.0,0.0,0.0,0.0,0.0,0.0,0.0,0.0,0.0,0.0,0.0,0.0,0.0,0.0,0.0,0.0,0.0,0.0,0.0,0.0,0.0,0.0,0.0,0.0,0.0,0.0,0.0,0.0,0.0,0.0,0.0,0.0,0.0,0.0,0.0,0.0,0.0,0.0,-1.2643,-1.4785,-1.6212,-1.6,-1.5779,-1.5406,-1.4795,-1.3788,-1.2433,-1.074,0.0,0.0,0.0,0.0,0.0,0.0,0.0,0.0,0.0,0.0,0.0,0.0,0.0,0.0,0.0,0.0,0.0,0.0,0.0,0.0,0.0,0.0,0.0,0.0,0.0,0.0,0.0,0.0,0.0,0.0,0.0,0.0,0.0,0.0,0.0,0.0,0.0,0.0,0.0,0.0,0.0,0.0,0.0,0.0,0.0,0.0,0.0,0.0,0.0,0.0,0.0,0.0,0.0,0.0,0.0,0.0,0.0,0.0,0.0,0.0,0.0,0.0,0.0,0.0,0.0,0.0,0.0,0.0,0.0,0.0,0.0,0.0,0.0,0.0,0.0,0.0,0.0,0.0,0.0,0.0,0.0,0.0,0.0,0.0,0.0,0.0,0.0,0.0,0.0,0.0,0.0,0.0,0.0,0.0,0.0,0.0,0.0,0.0,0.0,0.0,0.0,0.0,-1.1882,-1.391,-1.5215,-1.4851,-1.4941,-1.4676,-1.3968,-1.348,-1.2493,-1.0807,0.0,0.0,0.0,0.0,0.0,0.0,0.0,0.0,0.0,0.0,0.0,0.0,0.0,0.0,0.0,0.0,0.0,0.0,0.0,0.0,0.0,0.0,0.0,0.0,0.0,0.0,0.0,0.0,0.0,0.0,0.0,0.0,0.0,0.0,0.0,0.0,0.0,0.0,0.0,0.0,0.0,0.0,0.0,0.0,0.0,0.0,0.0,0.0,0.0,0.0,0.0,0.0,0.0,0.0,0.0,0.0,0.0,0.0,0.0,0.0,0.0,0.0,0.0,0.0,0.0,0.0,0.0,0.0,0.0,0.0,0.0,0.0,0.0,0.0,0.0,0.0,0.0,0.0,0.0,0.0,0.0,0.0,0.0,0.0,0.0,0.0,0.0,0.0,0.0,0.0,0.0,0.0,0.0,0.0,0.0,0.0,0.0,0.0,0.0,0.0,0.0,0.0,-1.1321,-1.3233,-1.4563,-1.4563,-1.4803,-1.4629,-1.3753,-1.3407,-1.2585,-1.1129,0.0,0.0,0.0,0.0,0.0,0.0,0.0,0.0,0.0,0.0,0.0,0.0,0.0,0.0,0.0,0.0,0.0,0.0,0.0,0.0,0.0,0.0,0.0,0.0,0.0,0.0,0.0,0.0,0.0,0.0,0.0,0.0,0.0,0.0,0.0,0.0,0.0,0.0,0.0,0.0,0.0,0.0,0.0,0.0,0.0,0.0,0.0,0.0,0.0,0.0,0.0,0.0,0.0,0.0,0.0,0.0,0.0,0.0,0.0,0.0,-1.4774,0.0,0.0,0.0,0.0,0.0,0.0,0.0,0.0,0.0,0.0,0.0,0.0,0.0,0.0,0.0,0.0,0.0,0.0,0.0,0.0,0.0,0.0,0.0,0.0,0.0,0.0,0.0,0.0,0.0,0.0,0.0,0.0,0.0,0.0,0.0,0.0,0.0,0.0,0.0,0.0,0.0,-1.1319,-1.3418,-1.4914,-1.4914,-1.4975,-1.4796,-1.4369,-1.3641,-1.2672,-1.1375,-1.0942,0.0,0.0,0.0,0.0,0.0,0.0,0.0,0.0,0.0,0.0,0.0,0.0,0.0,0.0,0.0,0.0,0.0,0.0,0.0,0.0,0.0,0.0,0.0,0.0,0.0,0.0,0.0,0.0,0.0,0.0,0.0,0.0,0.0,0.0,0.0,0.0,0.0,0.0,0.0,0.0,0.0,0.0,0.0,0.0,0.0,0.0,0.0,0.0,0.0,0.0,0.0,0.0,0.0,0.0,0.0,0.0,0.0,0.0,0.0,0.0,-1.5166,0.0,0.0,0.0,0.0,0.0,0.0,0.0,0.0,0.0,0.0,0.0,0.0,0.0,0.0,0.0,0.0,0.0,0.0,0.0,0.0,0.0,0.0,0.0,0.0,0.0,0.0,0.0,0.0,0.0,0.0,0.0,0.0,0.0,0.0,0.0,0.0,0.0,0.0,0.0,0.0,-1.1908,-1.3811,-1.4955,-1.4763,-1.4877,-1.473,-1.4106,-1.364,-1.3054,-1.2294,-1.1737,0.0,0.0,0.0,0.0,0.0,0.0,0.0,0.0,0.0,0.0,0.0,0.0,0.0,0.0,0.0,0.0,0.0,0.0,0.0,0.0,0.0,0.0,0.0,0.0,0.0,0.0,0.0,0.0,0.0,0.0,0.0,0.0,0.0,0.0,0.0,0.0,0.0,0.0,0.0,0.0,0.0,0.0,0.0,0.0,0.0,0.0,0.0,0.0,0.0,0.0,0.0,0.0,0.0,0.0,0.0,-1.8916,-1.8984,-1.8555,-1.7672,-1.7142,-1.7328,-1.7881,0.0,0.0,0.0,0.0,0.0,0.0,0.0,0.0,0.0,0.0,0.0,0.0,0.0,0.0,0.0,0.0,0.0,0.0,0.0,0.0,0.0,0.0,0.0,0.0,0.0,-1.6166,-1.5678,0.0,0.0,0.0,0.0,0.0,0.0,0.0,0.0,0.0,0.0,0.0,0.0,-1.2624,-1.4084,-1.489,-1.4689,-1.485,-1.4713,-1.3893,-1.3686,-1.35,-1.326,-1.2545,-1.1991,0.0,0.0,0.0,0.0,0.0,0.0,0.0,0.0,0.0,0.0,0.0,0.0,0.0,0.0,0.0,0.0,0.0,0.0,0.0,0.0,0.0,0.0,0.0,0.0,0.0,0.0,0.0,0.0,0.0,0.0,0.0,0.0,-1.3237,-1.481,0.0,0.0,0.0,0.0,0.0,0.0,0.0,0.0,0.0,0.0,0.0,0.0,0.0,0.0,-1.9394,-1.993,-2.0713,-2.1846,-2.2646,-2.2842,-2.2542,-2.2861,-2.2559,-2.1689,-2.0488,0.0,-1.8047,-1.8506,0.0,0.0,0.0,0.0,0.0,0.0,0.0,0.0,0.0,0.0,0.0,0.0,0.0,0.0,0.0,0.0,0.0,0.0,0.0,0.0,0.0,0.0,-1.7616,-1.6728,-1.6537,-1.619,0.0,-1.3883,-1.3187,-1.2978,0.0,0.0,0.0,0.0,0.0,0.0,0.0,0.0,-1.2683,-1.4084,-1.5089,-1.5257,-1.509,-1.4961,-1.4841,-1.4082,-1.3586,-1.3547,-1.324,-1.3013,-1.2979,-1.2265,0.0,0.0,0.0,0.0,0.0,0.0,0.0,0.0,0.0,0.0,0.0,0.0,0.0,0.0,0.0,0.0,0.0,0.0,0.0,0.0,0.0,0.0,0.0,0.0,0.0,0.0,0.0,0.0,0.0,-1.3716,-1.4867,-1.5787,-1.5489,-1.4946,0.0,0.0,0.0,0.0,0.0,0.0,0.0,0.0,0.0,-1.8769,-1.9531,-2.0498,-2.1678,-2.2637,-2.3423,-2.3955,-2.459,-2.4785,-2.4609,-2.4541,-2.4297,-2.3906,-2.3086,-2.2168,-2.1172,-2.0088,-1.9131,-1.8227,0.0,0.0,0.0,0.0,0.0,0.0,-1.7061,0.0,0.0,0.0,0.0,0.0,0.0,0.0,0.0,0.0,0.0,0.0,0.0,0.0,0.0,-1.6,-1.6036,-1.6024,-1.5537,-1.4929,-1.432,0.0,-1.3064,-1.2171,-1.1029,0.0,0.0,0.0,0.0,0.0,-1.3869,-1.4747,-1.5257,-1.5384,-1.5182,-1.4941,-1.473,-1.4208,-1.3895,-1.3895,-1.3774,-1.3707,-1.3707,-1.3327,-1.2739,0.0,0.0,0.0,0.0,0.0,0.0,0.0,0.0,0.0,0.0,0.0,0.0,0.0,0.0,0.0,0.0,0.0,0.0,0.0,0.0,0.0,0.0,0.0,0.0,0.0,0.0,0.0,0.0,-1.529,-1.6056,-1.6643,-1.6728,-1.6514,0.0,0.0,0.0,0.0,0.0,0.0,-1.834,-1.9062,-1.9972,-2.1191,-2.2187,-2.3105,-2.3919,-2.4922,-2.5459,-2.5576,-2.6016,-2.6172,-2.6005,-2.5713,-2.5439,-2.5215,-2.4775,-2.4336,-2.3779,-2.1631,-2.0303,-1.9563,-1.9221,-1.8076,0.0,-1.7793,-1.7988,-1.7867,-1.9143,-2.0079,-2.0742,-2.0742,0.0,-2.042,-1.9659,0.0,0.0,0.0,0.0,-1.5947,-1.5968,0.0,-1.5327,-1.5482,-1.5671,-1.5784,-1.5784,-1.5658,-1.5293,0.0,-1.3837,-1.3115,-1.2403,0.0,0.0,0.0,0.0,-1.3487,-1.4941,-1.5264,-1.5424,-1.5504,-1.5177,-1.4921,-1.4656,-1.4295,-1.4088,-1.4088,-1.4088,-1.4088,-1.4088,-1.4088,-1.3667,-1.2779,0.0,0.0,0.0,0.0,0.0,0.0,0.0,0.0,0.0,0.0,0.0,0.0,0.0,0.0,0.0,0.0,0.0,0.0,0.0,0.0,0.0,0.0,0.0,0.0,0.0,0.0,0.0,0.0,0.0,-1.6551,-1.8848,0.0,0.0,0.0,0.0,-1.7376,-1.8076,-1.926,-2.0917,-2.1475,-2.2676,-2.4793,-2.492,-2.538,-2.6221,-2.6289,-2.6523,-2.6924,-2.7363,-2.7353,-2.6953,-2.6924,-2.6475,-2.5635,-2.5225,-2.4785,-2.4316,-2.3325,-2.2672,-2.2197,-2.0957,-2.0146,-1.9746,-2.0263,-2.0429,-2.0595,-2.1865,-2.2565,-2.2935,-2.2935,-2.2662,-2.1861,-1.9019,-1.8163,0.0,0.0,-1.4517,-1.5061,-1.4605,-1.5152,-1.5752,-1.5798,-1.5771,-1.5784,-1.5784,-1.5771,-1.5705,0.0,-1.5095,-1.4613,-1.3667,0.0,-1.4462,-1.3653,-1.4289,-1.5008,-1.5331,-1.5384,-1.5504,-1.5731,-1.5304,-1.5001,-1.4988,-1.4459,-1.4088,-1.4088,-1.4088,-1.4088,-1.4088,-1.4088,-1.4055,-1.4001,-1.2636,0.0,0.0,0.0,0.0,0.0,0.0,0.0,0.0,0.0,0.0,0.0,0.0,0.0,0.0,0.0,0.0,0.0,0.0,0.0,0.0,0.0,0.0,0.0,0.0,0.0,0.0,0.0,0.0,-1.9014,-2.0518,0.0,0.0,-2.0527,-2.0771,-2.0312,-2.1836,-2.3047,-2.3672,-2.4394,-2.5137,-2.5898,-2.6505,-2.6945,-2.7207,-2.748,-2.7685,-2.7842,-2.7998,-2.7988,-2.7832,-2.7559,-2.7119,-2.6533,-2.6103,-2.5674,-2.5177,-2.4619,-2.3965,-2.3291,-2.2822,-2.2373,-2.197,-2.2168,-2.2227,-2.2347,-2.2754,-2.2974,-2.3091,-2.3091,-2.2994,-2.2524,-2.0726,-2.0162,-1.9791,-1.7945,-1.7125,-1.6736,-1.6573,-1.6155,-1.5784,-1.5784,-1.5784,-1.5784,-1.5784,-1.5784,-1.5751,-1.5698,-1.5438,-1.5144,-1.483,-1.4877,-1.4901,-1.4543,-1.4923,-1.5284,-1.5384,-1.5558,-1.5712,-1.5771,-1.5478,-1.5209,-1.5022,-1.4596,-1.4282,-1.4095,-1.4088,-1.4088,-1.4088,-1.4088,-1.4088,-1.4088,-1.3567,-1.2492,0.0,0.0,0.0,0.0,0.0,0.0,0.0,0.0,0.0,0.0,0.0,0.0,0.0,0.0,0.0,0.0,0.0,0.0,0.0,0.0,0.0,0.0,0.0,0.0,0.0,0.0,-1.9687,-2.0674,-2.2334,-2.3066,-2.2178,-2.3018,-2.3496,-2.3203,-2.4902,-2.6055,-2.6152,-2.6846,-2.7314,-2.7461,-2.7871,-2.8086,-2.8086,-2.8223,-2.8291,-2.8291,-2.8291,-2.8291,-2.8271,-2.7705,-2.7285,-2.6982,-2.6416,-2.6006,-2.5664,-2.541,-2.4961,-2.4404,-2.3965,-2.3525,-2.3091,-2.3091,-2.3144,-2.3154,-2.3101,-2.3091,-2.3091,-2.3091,-2.3091,-2.2818,-2.1168,-2.0702,-2.035,-1.871,-1.7669,-1.7037,-1.7037,-1.6433,-1.5784,-1.5784,-1.5784,-1.5784,-1.5784,-1.5784,-1.5784,-1.5784,-1.5671,-1.5418,-1.5023,-1.4796,-1.4573,-1.4171,-1.4229,-1.4349,-1.4349,-1.4877,-1.5244,-1.5244,-1.5331,-1.5277,-1.5035,-1.4322,-1.3968,-1.4082,-1.3707,-1.3667,-1.4068,-1.3701,-1.3487,-1.3487,-1.2999,-1.2171,-1.1028,0.0,0.0,0.0,0.0,0.0,0.0,0.0,0.0,0.0,0.0,0.0,0.0,0.0,0.0,0.0,0.0,0.0,0.0,0.0,0.0,0.0,0.0,0.0,-1.8787,-2.0705,-2.1836,-2.1453,-2.4414,-2.5801,-2.4111,-2.585,-2.6728,-2.5849,-2.7012,-2.7953,-2.831,-2.8701,-2.9111,-2.9531,-2.9121,-2.8896,-2.8896,-2.8496,-2.8291,-2.8291,-2.8291,-2.8281,-2.8242,-2.7412,-2.7021,-2.6953,-2.6064,-2.5703,-2.5693,-2.5693,-2.5684,-2.5547,-2.4336,-2.3594,-2.3179,-2.3159,-2.314,-2.312,-2.313,-2.312,-2.3091,-2.311,-2.3067,-2.2608,-2.0223,-1.9505,-1.8956,-1.6473,-1.5784,-1.5784,-1.5784,-1.5784,-1.5784,-1.5784,-1.5784,-1.5784,-1.5784,-1.5791,-1.5798,-1.5798,-1.5804,-1.5491,-1.4342,-1.4142,-1.3748,-1.2585,-1.2412,0.0,-1.2412,-1.3427,-1.4128,-1.4108,-1.489,-1.5284,-1.5008,-1.3675,-1.3226,-1.4048,-1.3006,-1.2879,-1.4041,-1.2973,-1.2358,-1.2358,-1.0929,-1.0742,-1.1913,0.0,0.0,0.0,0.0,0.0,0.0,0.0,0.0,0.0,0.0,0.0,0.0,0.0,0.0,0.0,0.0,0.0,0.0,0.0,0.0,0.0,0.0,-2.1499,-2.1501,-2.2761,-2.4375,-2.6143,-2.7461,-2.8027,-2.7549,-2.8047,-2.8301,-2.8066,-2.8672,-2.9156,-2.9264,-2.9023,-2.8975,-2.9092,-2.8682,-2.8467,-2.8467,-2.835,-2.8291,-2.8291,-2.8291,-2.8135,-2.7885,-2.7598,-2.7148,-2.6543,-2.6309,-2.6025,-2.5693,-2.5693,-2.5547,-2.5254,-2.5215,-2.5079,-2.4933,-2.4658,-2.415,-2.3652,-2.3955,-2.3608,-2.3149,-2.3506,-2.2967,-2.1798,-2.0036,-1.9031,-1.8118,-1.6306,-1.5784,-1.5784,-1.5784,-1.5784,-1.5784,-1.5784,-1.5784,-1.5784,-1.5784,-1.5999,-1.6152,-1.6152,-1.6319,-1.6226,-1.5478,-1.5351,-1.5237,-1.491,0.0,0.0,-1.4856,-1.5144,-1.5104,-1.4469,-1.5184,-1.5337,-1.4409,-1.4385,-1.4369,0.0,-1.3895,-1.3748,-1.4075,-1.3768,-1.3594,-1.3594,-1.2351,-1.1864,0.0,0.0,0.0,0.0,0.0,0.0,0.0,0.0,0.0,0.0,0.0,0.0,0.0,0.0,0.0,0.0,0.0,0.0,0.0,0.0,0.0,0.0,-2.1907,-2.3899,-2.4793,-2.5576,-2.667,-2.835,-2.9082,-2.9453,-2.9453,-2.9795,-3.001,-3.001,-3.0244,-3.0381,-3.0381,-2.998,-2.9746,-2.9746,-2.9316,-2.9004,-2.8828,-2.8652,-2.8467,-2.8291,-2.8291,-2.8164,-2.792,-2.7796,-2.7444,0.0,-2.6728,-2.6514,-2.621,-2.6084,-2.5859,0.0,0.0,0.0,0.0,0.0,-2.4482,-2.4082,-2.4336,-2.4092,-2.3576,-2.3319,-2.2631,-2.1511,-1.9515,-1.8434,-1.7647,-1.6204,-1.5784,-1.5784,-1.5784,-1.5784,-1.5784,-1.5784,-1.5784,-1.5865,-1.5985,-1.6152,-1.6321,-1.6321,0.0,0.0,-1.5864,-1.5478,-1.507,-1.4442,-1.4306,-1.4306,0.0,-1.479,-1.4903,-1.4396,-1.5231,-1.5504,-1.4703,-1.4496,0.0,0.0,0.0,-1.3661,-1.3574,-1.3407,0.0,0.0,0.0,-1.1937,0.0,0.0,0.0,0.0,-1.159,-1.1203,0.0,0.0,0.0,0.0,0.0,0.0,0.0,0.0,0.0,0.0,0.0,0.0,0.0,0.0,0.0,0.0,-2.3053,-2.5283,-2.8105,-2.8555,-2.8721,-2.9101,-2.9853,-3.0342,-3.0342,-3.1103,-3.1572,-3.1523,-3.1514,-3.1494,-3.1445,0.0,0.0,0.0,0.0,-2.9922,-2.9558,-2.9111,-2.8711,-2.8291,-2.8291,-2.8271,-2.8203,-2.7832,-2.7689,-2.762,-2.7139,-2.6973,-2.6982,-2.6504,-2.6318,-2.624,-2.5449,-2.4912,-2.456,-2.4512,-2.4492,0.0,0.0,0.0,0.0,-2.2895,-2.2171,-2.1377,-1.8838,-1.7826,-1.7323,-1.6116,-1.5784,-1.5784,-1.5784,-1.5784,-1.5791,-1.5872,-1.5879,-1.5965,-1.6259,-1.6346,-1.6409,-1.6326,-1.6402,-1.6266,-1.5939,-1.5158,-1.4215,-1.2899,-1.2699,0.0,-1.2699,-1.3627,-1.4249,-1.4148,0.0,0.0,-1.5324,-1.4359,-1.4175,-1.5008,-1.4001,-1.3287,-1.3045,-1.2739,-1.2238,-1.1456,-1.1223,-1.1866,-1.3407,-1.3166,-1.3715,-1.4948,-1.2505,-1.2,0.0,0.0,0.0,0.0,0.0,0.0,0.0,0.0,0.0,0.0,0.0,0.0,0.0,0.0,0.0,-2.4629,-2.6387,-2.7988,-2.96,-3.0156,-3.042,-3.0498,-3.0957,-3.126,-3.126,-3.1728,-3.1894,-3.1543,-3.1514,-3.1367,-3.1025,-3.0576,0.0,-3.0332,-2.9912,-2.9482,-2.9053,-2.8965,-2.8711,-2.8291,0.0,0.0,-2.7783,-2.7757,-2.7471,-2.7119,-2.6689,-2.6699,-2.6953,-2.6182,-2.5859,-2.5801,-2.5674,-2.5508,-2.5391,-2.5078,-2.4941,-2.4941,-2.4941,-2.4717,-2.4231,-2.3215,-2.1983,-2.0516,-1.8669,-1.7366,0.0,-1.5939,-1.5784,-1.5784,-1.5784,-1.5784,-1.5885,-1.6126,-1.6186,-1.6266,-1.656,-1.6864,-1.6958,-1.6667,-1.6814,-1.6857,-1.6279,-1.5845,-1.5431,-1.519,-1.5098,-1.5098,-1.5098,-1.5351,-1.5224,-1.4516,-1.5271,-1.5471,-1.4756,-1.4917,-1.513,-1.5304,-1.4877,-1.464,-1.4579,-1.4526,-1.4412,-1.4244,-1.4184,-1.4325,-1.4666,-1.4606,-1.4727,-1.4988,-1.4188,-1.4088,0.0,0.0,0.0,0.0,0.0,0.0,0.0,0.0,0.0,0.0,0.0,-2.0506,0.0,0.0,-2.479,-2.5986,-2.7727,-2.9228,-3.0078,-3.0596,-3.0967,-3.1182,-3.1396,-3.1601,-3.1816,-3.2041,-3.208,-3.1865,-3.1641,-3.1426,-3.1211,-3.0781,-3.0547,-3.0547,-3.0117,-2.9678,-2.9248,-2.9023,-2.8711,-2.8291,-2.8291,-2.8184,-2.7978,-2.7978,-2.7861,-2.7646,-2.7432,-2.7461,-2.7588,-2.6728,-2.6074,-2.5693,-2.5693,-2.5693,-2.5664,-2.5488,-2.4996,-2.4388,-2.4388,-2.3802,-2.2863,-2.1669,-2.0643,-1.961,-1.7927,-1.6869,-1.6213,-1.5912,-1.5784,-1.5784,-1.5784,-1.5784,-1.5818,-1.6012,-1.6166,-1.6353,-1.6647,-1.682,-1.6927,-1.6927,-1.6927,-1.6834,-1.654,-1.6246,-1.5999,-1.5852,-1.5784,-1.5784,-1.5784,-1.5784,-1.5611,-1.5224,-1.5518,-1.5604,-1.5211,-1.5444,-1.5611,-1.5611,-1.5344,-1.5177,-1.5177,-1.5082,-1.5075,-1.5223,-1.5082,-1.511,-1.5398,-1.5251,-1.5257,-1.5391,-1.5097,-1.4963,0.0,0.0,0.0,0.0,0.0,0.0,0.0,0.0,-1.9616,-2.1167,-2.2105,-2.2864,-2.364,-2.5224,-2.6603,-2.7192,-2.8633,-2.9873,-3.0381,-3.0703,-3.1016,-3.1357,-3.1465,-3.165,-3.2012,-3.2119,-3.2129,-3.2051,-3.1719,-3.1484,-3.1396,-3.1074,-3.0889,-3.0889,-3.0527,-3.0088,-2.957,-2.9219,-2.8789,-2.8291,-2.8291,-2.8291,-2.8291,-2.8291,-2.8291,-2.8291,-2.8203,-2.8076,-2.7871,-2.7266,-2.6514,-2.5693,-2.5781,-2.5762,-2.5674,-2.5586,-2.4944,-2.4038,-2.37,-2.3114,-2.2156,-2.0238,-1.9607,-1.924,-1.7358,-1.6587,-1.6299,-1.5999,-1.5911,-1.5937,-1.5925,-1.5959,-1.5964,-1.6072,-1.6266,-1.6576,-1.6814,-1.6874,-1.6927,-1.7166,-1.6907,-1.6687,-1.6627,-1.638,-1.6126,-1.5945,-1.5818,-1.5784,-1.5784,-1.5784,-1.5784,-1.5784,-1.5784,-1.5784,-1.5784,-1.5784,-1.5784,-1.5784,-1.5611,-1.5478,-1.5478,-1.5257,-1.5244,-1.5478,-1.5251,-1.5357,-1.5784,-1.5591,-1.5605,-1.5771,-1.5591,-1.5357,-1.8706,-1.7593,-1.7391,-1.8744,-1.8603,-1.9233,0.0,0.0,-2.3249,-2.5283,-2.6084,-2.6526,-2.7066,-2.7614,-2.8574,-3.0117,-3.0244,-3.042,-3.125,-3.1094,-3.0908,-3.0957,-3.1289,-3.1533,-3.1592,-3.1943,-3.2012,-3.1621,-3.1543,-3.1348,-3.0986,-3.0918,-3.0889,-3.0889,-3.084,-3.041,-2.9636,-2.9521,-2.9092,-2.8291,-2.8291,-2.8291,-2.8291,-2.8291,-2.8291,-2.8271,-2.79,-2.7305,-2.6621,-2.6904,-2.6514,-2.5732,-2.6162,-2.6084,-2.5635,-2.5293,-2.5295,-2.5275,-2.3636,-2.4047,-2.4618,-2.0845,-2.0202,-2.0504,-1.7904,-1.6945,-1.66,-1.6306,-1.6406,-1.6547,-1.6293,-1.6413,-1.6673,-1.6991,-1.7079,-1.7179,-1.7422,-1.7482,-1.7422,-1.7246,-1.6907,-1.662,-1.6366,-1.6079,-1.5959,-1.6186,-1.5999,-1.5784,-1.5784,-1.5784,-1.5784,-1.5784,-1.5784,-1.5784,-1.5784,-1.5784,-1.5784,-1.5784,-1.5751,-1.5785,-1.5785,-1.5752,-1.5698,-1.5731,-1.5752,-1.5718,-1.5784,-1.5751,-1.5751,-1.5784,-1.5751,-1.5718,-2.1319,-2.0523,-2.0377,0.0,-2.2674,-2.3012,-2.6009,-2.6219,-2.6113,-2.7268,-2.8223,-2.8926,-2.9101,-2.9707,-3.041,0.0,-3.1094,-3.1094,-3.1465,-3.0918,-3.04,-3.0146,-3.0273,-3.0586,-3.1103,-3.1318,-3.1348,-3.1162,-3.1152,-3.1074,-3.0898,-3.0889,-3.0889,-3.0889,-3.0635,-3.0312,-2.9941,-2.9744,-2.9268,-2.8662,-2.8662,-2.8535,-2.8291,-2.8291,-2.8291,-2.8281,-2.8105,-2.7539,-2.6768,-2.6943,-2.6514,-2.5703,-2.5937,-2.5849,-2.5664,-2.5527,-2.5063,-2.4433,-2.365,-2.2845,-2.1862,-2.0135,-1.9376,-1.8877,-1.7599,-1.7112,-1.6951,-1.6607,-1.6486,-1.6466,-1.6513,-1.6486,-1.6526,-1.682,-1.7072,-1.7233,-1.7353,-1.738,-1.7393,-1.744,-1.7168,-1.6981,-1.7027,-1.6794,-1.658,-1.6533,-1.6126,-1.5784,-1.5784,-1.5784,-1.5784,-1.5784,-1.5784,-1.5784,-1.5784,-1.5784,-1.5784,-1.5784,-1.5784,-1.5784,-1.5784,-1.5784,-1.5784,-1.5784,-1.5784,-1.5784,-1.5784,-1.5784,-1.5784,-1.5784,-1.5784,-1.5784,-2.2945,0.0,0.0,-2.554,-2.5941,-2.6046,-2.774,-2.8189,-2.835,-2.8896,-2.9746,-3.0391,-3.0391,-3.0908,-3.1377,-3.1504,-3.1426,-3.1348,-3.1348,-3.0586,-2.9824,-2.9287,-2.9111,-2.9346,-3.0098,-3.0391,-3.0576,-3.0693,-3.0703,-3.0752,-3.0889,-3.0889,-3.0889,-3.0889,-3.0566,-3.0322,-3.0195,-2.9893,-2.9463,-2.8916,-2.8916,-2.8701,-2.8291,-2.8291,-2.8232,-2.8115,-2.7988,-2.7519,-2.6836,-2.6709,-2.6249,-2.5693,-2.5693,-2.5693,-2.5693,-2.5693,-2.5079,-2.4205,-2.384,-2.2416,-2.059,-1.9834,-1.8968,-1.8053,-1.7484,-1.732,-1.7259,-1.6914,-1.6734,-1.6667,-1.6794,-1.6734,-1.6687,-1.6894,-1.7114,-1.732,-1.732,-1.732,-1.738,-1.7542,-1.74,-1.7266,-1.7481,-1.7273,-1.7005,-1.674,-1.6346,-1.6012,-1.5804,-1.5784,-1.5784,-1.5784,-1.5784,-1.5784,-1.5784,-1.5784,-1.5784,-1.5784,-1.5784,-1.5784,-1.5784,-1.5784,-1.5784,-1.5784,-1.5784,-1.5784,-1.5784,-1.5784,-1.5784,-1.5784,-1.5784,-1.5784,-2.2527,0.0,-2.2759,-2.59,-2.6817,-2.7307,-2.8599,-2.9245,-2.9812,-3.0635,-3.084,-3.0869,-3.0869,-3.0889,-3.1045,-3.1455,-3.1172,-3.0908,-3.0908,-3.0146,-2.9277,-2.8428,-2.7978,-2.7891,0.0,-2.9121,-2.9785,-3.0185,-3.0215,-3.042,-3.0869,-3.0889,-3.0889,-3.0889,-3.0879,-3.0654,-3.0205,-3.0185,-2.9756,-2.8916,-2.8916,-2.8701,-2.8291,-2.8291,-2.8066,-2.7708,-2.7236,-2.6807,-2.6377,-2.5947,-2.5713,-2.5693,-2.5693,-2.5693,-2.5693,-2.5693,-2.5684,-2.543,-2.4146,-2.3642,-2.3126,-2.0495,-1.9576,-1.9324,-1.7982,-1.7569,-1.7508,-1.7266,-1.7387,-1.7482,-1.7259,-1.7387,-1.7549,-1.7555,-1.7562,-1.7569,-1.7569,-1.7569,-1.7569,-1.7582,-1.74,-1.7206,-1.7213,-1.6914,-1.6714,-1.6707,-1.6693,-1.6473,-1.5905,-1.5784,-1.5784,-1.5784,-1.5784,-1.5784,-1.5784,-1.5784,-1.5784,-1.5784,-1.5784,-1.5784,-1.5784,-1.5784,-1.5784,-1.5784,-1.5784,-1.5784,-1.5784,-1.5784,-1.5784,-1.5784,-1.5784,-1.5784,-2.5286,0.0,-2.8165,-3.0584,-3.1693,-3.2255,-3.2576,-3.244,-3.2072,-3.1112,-3.0175,-2.934,-2.8748,-2.7924,-2.7854,-2.947,-2.9381,-2.957,-3.0732,-3.0371,-2.9463,-2.8047,-2.7998,0.0,0.0,0.0,0.0,-2.9726,-3.0039,-3.0264,-3.042,-3.0723,-3.0889,-3.0889,-3.0889,-3.081,-3.0664,-3.0654,-3.0361,-2.9766,-2.9189,-2.8701,-2.8291,-2.8291,-2.8066,-2.7708,-2.751,-2.7041,-2.6377,-2.623,-2.5996,-2.5693,-2.5693,-2.5693,-2.5693,-2.5693,-2.5693,-2.5635,-2.5177,-2.384,-2.2206,-2.1296,-1.9775,-1.8199,-1.774,-1.7582,-1.7562,-1.7514,-1.742,-1.7367,-1.7467,-1.742,-1.7393,-1.7535,-1.7582,-1.7582,-1.7582,-1.7582,-1.7582,-1.7582,-1.7554,-1.7494,-1.7494,-1.7355,-1.7221,-1.7079,-1.6667,-1.6346,-1.6152,-1.5952,-1.5784,-1.5784,-1.5784,-1.5784,-1.5784,-1.5784,-1.5784,-1.5784,-1.5784,-1.5784,-1.5784,-1.5784,-1.5784,-1.5784,-1.5784,-1.5784,-1.5784,-1.5784,-1.5784,-1.5784,-1.5784,-1.5784,-2.8376,-3.0326,-3.1655,-3.3845,-3.4987,-3.518,-3.3741,-3.3505,-3.2825,-3.0188,-2.8615,-2.7413,-2.6352,-2.5115,-2.4988,-2.724,-2.7351,-2.7803,-2.9697,-2.958,-2.8945,-2.8008,-2.7998,0.0,0.0,0.0,0.0,-2.9287,-2.9726,-3.0039,-3.0185,-3.0635,-3.0889,-3.0889,-3.0889,-3.0889,-3.0889,-3.0889,-3.0576,-2.9961,-2.9258,-2.8701,-2.8291,-2.8291,-2.7978,-2.7432,-2.7432,-2.6953,-2.6162,-2.6162,-2.5986,-2.5693,-2.5693,-2.5693,-2.5693,-2.5693,-2.5693,-2.5635,-2.5177,-2.3444,-2.1478,-2.1052,-1.9258,-1.7288,-1.7395,-1.7481,-1.7481,-1.7481,-1.742,-1.74,-1.7535,-1.7442,-1.7407,-1.7542,-1.7582,-1.7582,-1.7582,-1.7582,-1.7582,-1.7582,-1.7582,-1.7582,-1.7582,-1.7582,-1.7515,-1.7387,-1.6857,-1.6386,-1.6286,-1.6106,-1.5945,-1.5791,-1.5784,-1.5784,-1.5784,-1.5784,-1.5784,-1.5784,-1.5784,-1.5784,-1.5784,-1.5784,-1.5784,-1.5784,-1.5784,-1.5784,-1.5784,-1.5784,-1.5784,-1.5784,-1.5784,-1.5784,-3.17,-3.3182,-3.3533,-3.5738,-3.6669,-3.6117,-3.2631,-3.25,-3.2009,-2.8054,-2.6307,-2.5149,0.0,0.0,-2.2676,-2.4988,-2.5242,-2.5898,-2.8086,-2.8066,-2.8002,0.0,0.0,0.0,0.0,0.0,0.0,-2.8926,0.0,-2.9756,-3.0176,-3.0635,-3.0889,-3.0889,-3.0889,-3.0889,-3.0889,-3.0889,-3.0459,-2.9655,-2.916,-2.873,-2.833,-2.8301,-2.7822,-2.7012,-2.7012,-2.6533,-2.5693,-2.5693,-2.5693,-2.5693,-2.5693,-2.5693,-2.5693,-2.5693,-2.5693,-2.5489,-2.4146,-2.2632,-2.104,-2.0028,-1.836,-1.6807,-1.7139,-1.7226,-1.7226,-1.7226,-1.742,-1.7582,-1.7582,-1.7582,-1.7582,-1.7582,-1.7582,-1.7582,-1.7582,-1.7582,-1.7582,-1.7582,-1.7582,-1.7582,-1.7582,-1.7582,-1.7582,-1.7582,-1.7108,-1.664,-1.6382,-1.6266,-1.6146,-1.5811,-1.5784,-1.5784,-1.5784,-1.5784,-1.5784,-1.5784,-1.5784,-1.5784,-1.5784,-1.5784,-1.5784,-1.5784,-1.5784,-1.5784,-1.5784,-1.5784,-1.5784,-1.5784,-1.5784,-1.5784,-3.5542,-3.8204,-3.9968,-4.0943,-4.0214,-3.8663,-3.6673,-3.3214,-2.9642,-2.6751,-2.4052,-2.1822,0.0,0.0,0.0,-2.4292,-2.5466,0.0,-2.9365,-2.9912,0.0,-2.8867,0.0,-2.8955,-2.8633,-2.8701,0.0,0.0,-2.9502,-2.9756,-3.0176,-3.0635,-3.0889,-3.0889,-3.0889,-3.0889,-3.0889,-3.0889,-3.0605,-3.0029,-2.9609,-2.918,-2.875,-2.8437,-2.7822,-2.7012,-2.7012,-2.6533,-2.5693,-2.5693,-2.5693,-2.5693,-2.5693,-2.5693,-2.5693,-2.5693,-2.5693,-2.5489,-2.4146,-2.2757,-2.1527,-2.1263,-1.9456,-1.7375,-1.7448,-1.7521,-1.7521,-1.7521,-1.7522,-1.7582,-1.7582,-1.7582,-1.7582,-1.7582,-1.7582,-1.7582,-1.7582,-1.7582,-1.7582,-1.7582,-1.7582,-1.7582,-1.7582,-1.7582,-1.7582,-1.7582,-1.7455,-1.7174,-1.666,-1.6213,-1.5912,-1.5791,-1.5784,-1.5784,-1.5784,-1.5784,-1.5784,-1.5784,-1.5784,-1.5784,-1.5784,-1.5784,-1.5784,-1.5784,-1.5784,-1.5784,-1.5784,-1.5784,-1.5784,-1.5784,-1.5784,-1.5784,-3.8705,-4.1018,-4.2223,-4.2298,-4.145,-3.958,-3.5693,-3.2195,-2.8422,-2.3607,-2.0574,0.0,0.0,0.0,0.0,0.0,0.0,0.0,-2.8945,-2.9746,-2.9893,0.0,-2.9697,0.0,-2.9248,-2.9375,-2.958,0.0,-2.9844,-2.9941,-3.0185,-3.0635,-3.0889,-3.0889,-3.0889,-3.0889,-3.0889,-3.0693,-3.0459,-3.0195,-2.9766,-2.9336,-2.8916,-2.8672,-2.7998,-2.7012,0.0,-2.6533,-2.5693,-2.5693,-2.5693,-2.5693,-2.5693,-2.5693,-2.5693,-2.5693,-2.5693,-2.5586,-2.4815,-2.3326,-2.16,-2.099,-1.9579,-1.7972,-1.7556,-1.744,-1.744,-1.744,-1.7482,-1.7582,-1.7582,-1.7582,-1.7582,-1.7582,-1.7582,-1.7582,-1.7582,-1.7689,-1.7789,-1.7789,-1.7675,-1.7582,-1.7582,-1.7582,-1.7582,-1.7582,-1.7475,-1.7326,-1.6941,-1.65,-1.6112,-1.5811,-1.5784,-1.5784,-1.5784,-1.5784,-1.5784,-1.5784,-1.5784,-1.5784,-1.5784,-1.5784,-1.5784,-1.5784,-1.5784,-1.5784,-1.5784,-1.5784,-1.5784,-1.5784,-1.5784,-1.5784,-4.1194,-4.2426,-4.2407,-4.1912,-4.1431,-3.93,-3.2721,-3.0171,-2.7093,-1.9708,0.0,-1.5907,-1.581,-1.5477,-1.6775,-2.1589,0.0,-2.469,-2.8057,-2.8857,-2.9394,-3.0195,-3.0293,-3.0146,-2.9785,-3.0078,-3.0293,-3.0293,-3.0293,-3.0293,-3.0293,-3.0674,-3.0889,-3.0889,-3.0889,-3.0889,-3.0889,-3.0488,-3.0293,-3.0283,-2.9853,-2.9424,-2.9004,-2.8945,-2.8252,-2.71,0.0,0.0,-2.5771,-2.5713,-2.5693,-2.5693,-2.5693,-2.5693,-2.5693,-2.5693,-2.5693,-2.5684,-2.5479,-2.4048,-2.1954,-2.0392,-1.9289,-1.8395,-1.7531,-1.7259,-1.7259,-1.7259,-1.744,-1.7582,-1.7582,-1.7582,-1.7595,-1.7635,-1.7642,-1.7655,-1.7695,-1.7883,-1.8002,-1.8042,-1.7822,-1.7595,-1.7635,-1.7609,-1.7582,-1.7582,-1.742,-1.7246,-1.7206,-1.6854,-1.6453,-1.5945,-1.5852,-1.5784,-1.5784,-1.5784,-1.5784,-1.5784,-1.5784,-1.5784,-1.5784,-1.5784,-1.5784,-1.5784,-1.5784,-1.5784,-1.5784,-1.5784,-1.5784,-1.5784,-1.5784,-1.5784,-4.2133,-4.3501,-4.4172,-4.4058,-4.1756,-3.8234,-3.3513,-2.7993,0.0,0.0,-1.5468,-1.4631,-1.5127,-1.6455,-1.883,-2.3053,0.0,0.0,0.0,0.0,-3.0176,0.0,0.0,0.0,0.0,0.0,0.0,0.0,0.0,0.0,-3.0771,-3.085,-3.0889,-3.0889,-3.0889,-3.0889,-3.0889,-3.081,-3.0771,-3.0762,-3.0303,-2.9863,-2.9443,-2.9082,-2.8418,-2.7539,0.0,0.0,-2.625,-2.584,-2.5693,-2.5693,-2.5693,-2.5693,-2.5693,-2.5693,-2.5693,-2.5538,-2.4452,-2.4452,-2.4609,-2.2156,-1.9751,-1.7741,-1.7593,-1.7508,-1.7508,-1.7508,-1.7542,-1.7582,-1.7582,-1.7582,-1.7649,-1.7903,-1.7909,-1.8036,-1.8277,-1.8183,-1.8069,-1.8364,-1.7963,-1.7662,-1.7869,-1.7756,-1.7582,-1.7582,-1.7542,-1.7474,-1.7233,-1.673,-1.6306,-1.6206,-1.5979,-1.5784,-1.5784,-1.5784,-1.5784,-1.5784,-1.5784,-1.5784,-1.5784,-1.5784,-1.5784,-1.5784,-1.5784,-1.5784,-1.5784,-1.5784,-1.5784,-1.5784,-1.5784,-1.5784,-4.1756,-4.3137,-4.4129,-4.384,-4.1365,-3.7484,-3.1625,0.0,0.0,0.0,-1.3667,-1.3157,-1.441,0.0,0.0,0.0,0.0,0.0,0.0,0.0,0.0,0.0,0.0,0.0,0.0,0.0,0.0,0.0,0.0,0.0,0.0,-3.0889,-3.0889,-3.0889,-3.0654,-3.0644,-3.0889,-3.043,-3.0439,-3.0889,-3.042,-2.9971,-2.956,-2.9355,-2.8672,-2.7708,0.0,0.0,-2.6367,-2.6162,-2.5947,-2.5693,-2.5693,-2.5693,-2.5693,-2.5693,-2.5693,-2.5586,-2.4971,-2.4254,-2.3434,-2.2106,-2.0786,-1.9465,-1.8042,-1.7582,-1.7582,-1.7582,-1.7582,-1.7582,-1.7582,-1.7702,-1.7862,-1.7955,-1.8109,-1.8357,-1.8651,-1.8484,-1.8364,-1.8657,-1.823,-1.7869,-1.7969,-1.7789,-1.7582,-1.7582,-1.7582,-1.7528,-1.744,-1.7052,-1.6663,-1.6355,-1.6146,-1.5999,-1.5798,-1.5784,-1.5784,-1.5784,-1.5784,-1.5784,-1.5784,-1.5784,-1.5784,-1.5784,-1.5784,-1.5784,-1.5784,-1.5784,-1.5784,-1.5784,-1.5784,-1.5784,-4.1229,-4.2635,-4.3639,-4.2974,-4.0727,-3.6797,-2.9578,-2.4833,0.0,0.0,-1.2354,-1.2128,-1.3873,0.0,-1.5822,0.0,0.0,0.0,0.0,0.0,0.0,0.0,0.0,0.0,0.0,0.0,0.0,0.0,0.0,0.0,0.0,-3.0889,-3.0889,-3.0889,-3.0537,-3.0478,-3.0742,-3.0049,-3.001,-3.0605,-3.0244,-2.9844,-2.9434,-2.9434,-2.8838,-2.7793,0.0,0.0,0.0,-2.6465,-2.6182,-2.582,-2.5723,-2.5693,-2.5693,-2.5693,-2.5693,-2.5635,-2.5382,-2.4097,-2.2466,-2.1904,-2.1288,-2.0428,-1.8244,-1.7582,-1.7582,-1.7582,-1.7582,-1.7595,-1.7655,-1.7862,-1.8022,-1.8149,-1.8464,-1.8744,-1.8971,-1.8791,-1.8651,-1.8878,-1.8395,-1.7995,-1.7995,-1.7789,-1.7582,-1.7582,-1.7582,-1.7582,-1.7582,-1.7434,-1.7065,-1.6426,-1.6366,-1.6246,-1.5952,-1.5925,-1.5899,-1.5784,-1.5784,-1.5784,-1.5784,-1.5784,-1.5784,-1.5784,-1.5784,-1.5784,-1.5784,-1.5784,-1.5784,-1.5784,-1.5784,-1.5784,-4.1433,-4.2924,-4.3539,-4.2552,-4.0136,-3.6194,-2.9001,0.0,0.0,-1.4268,-1.2354,-1.2128,-1.3873,-1.4177,-1.5391,-1.9098,0.0,-2.1102,0.0,0.0,0.0,0.0,0.0,0.0,0.0,0.0,0.0,0.0,0.0,0.0,0.0,-3.0889,-3.0889,-3.0889,-3.085,-3.0644,-3.0264,-3.0176,-2.999,-2.9744,-2.9704,-2.9394,-2.8975,-2.8975,-2.8701,-2.8213,0.0,0.0,0.0,-2.6709,-2.6367,-2.6289,-2.5889,-2.5693,-2.5693,-2.5693,-2.5693,-2.5538,-2.4304,-2.451,-2.4922,-2.2508,-2.0025,-1.7943,-1.7687,-1.7582,-1.7582,-1.7582,-1.7582,-1.7642,-1.7909,-1.7955,-1.8129,-1.8718,-1.9072,-1.9292,-1.9377,-1.9092,-1.8891,-1.8918,-1.8395,-1.7995,-1.7995,-1.7789,-1.7582,-1.7582,-1.7582,-1.7582,-1.7582,-1.7562,-1.7315,-1.6727,-1.6667,-1.6547,-1.6259,-1.6233,-1.6119,-1.5798,-1.5784,-1.5784,-1.5784,-1.5784,-1.5784,-1.5784,-1.5784,-1.5784,-1.5784,-1.5784,-1.5784,-1.5784,-1.5784,-1.5784,-3.7701,-4.0438,-4.2472,-4.1028,-3.858,-3.4813,-2.8309,0.0,0.0,-1.4632,-1.2856,-1.2402,-1.3416,-1.3582,-1.4185,-1.6021,-1.6823,0.0,-2.1865,0.0,0.0,0.0,0.0,0.0,0.0,0.0,0.0,0.0,0.0,0.0,0.0,0.0,-3.0762,-3.0478,-3.0225,-3.001,-2.9824,-2.956,-2.9473,-2.9626,-2.9626,-2.9336,-2.8916,-2.8916,-2.8691,-2.8281,0.0,0.0,0.0,-2.7012,-2.6621,-2.6367,-2.6201,-2.6133,-2.6162,-2.6416,-2.6348,-2.6034,-2.5509,-2.4973,-2.4304,-2.3226,-2.16,-1.9922,-1.9065,-1.8812,-1.8655,-1.7838,-1.7716,-1.7889,-1.7949,-1.8249,-1.8621,-1.9092,-1.9279,-1.9424,-1.9424,-1.9279,-1.9138,-1.8958,-1.8591,-1.8257,-1.8022,-1.7789,-1.7582,-1.7582,-1.7582,-1.7582,-1.7582,-1.7582,-1.7488,-1.7255,-1.7074,-1.6831,-1.6362,-1.6321,-1.6219,-1.6106,-1.5925,-1.5784,-1.5784,-1.5784,-1.5784,-1.5784,-1.5784,-1.5784,-1.5784,-1.5784,-1.5784,-1.5784,-1.5784,-1.5784,-3.4286,-3.7688,-4.0465,-3.9245,-3.6609,-3.2893,0.0,0.0,0.0,-1.4991,-1.33,-1.2563,-1.3098,-1.3198,-1.3403,-1.3997,-1.4985,-1.6608,-1.9167,0.0,0.0,0.0,0.0,0.0,0.0,0.0,0.0,0.0,0.0,0.0,0.0,0.0,-3.0674,-3.0215,-2.9912,-2.9639,-2.9385,-2.9072,-2.9014,-2.9189,-2.9189,-2.9033,-2.873,-2.873,-2.8574,0.0,0.0,0.0,0.0,-2.7383,-2.7031,-2.6758,-2.6621,-2.6572,-2.6611,-2.6904,-2.6826,-2.6553,-2.6435,-2.5567,-2.4461,-2.4341,-2.3633,-2.2617,-2.1253,-2.0238,-1.9465,-1.8724,-1.8381,-1.8249,-1.8249,-1.8677,-1.9112,-1.9319,-1.9424,-1.9424,-1.9424,-1.9424,-1.9279,-1.8985,-1.8758,-1.8524,-1.8175,-1.7923,-1.7749,-1.7836,-1.7695,-1.7615,-1.7709,-1.7642,-1.7549,-1.7514,-1.74,-1.7092,-1.6453,-1.64,-1.6326,-1.6152,-1.5945,-1.5784,-1.5784,-1.5784,-1.5784,-1.5784,-1.5784,-1.5784,-1.5784,-1.5784,-1.5784,-1.5784,-1.5784,-1.5784,-3.2093,-3.5127,-3.7236,-3.7211,-3.4299,-3.0407,0.0,0.0,-1.6945,-1.5236,-1.3559,-1.2563,-1.3098,-1.3198,-1.3403,-1.3997,-1.4997,-1.617,-1.7529,-2.0524,0.0,0.0,0.0,0.0,0.0,0.0,0.0,0.0,0.0,0.0,0.0,0.0,-3.0674,-3.0215,-3.0195,-2.9785,-2.8935,-2.8916,-2.8711,-2.8301,-2.8301,-2.8301,-2.8301,-2.8301,0.0,0.0,0.0,0.0,0.0,-2.7885,-2.7708,-2.766,-2.7178,-2.7012,-2.7012,-2.7012,-2.7012,-2.6943,-2.6533,-2.6387,-2.6309,-2.583,-2.5684,-2.543,-2.4048,-2.176,-1.9762,-2.0466,-1.9812,-1.8918,-1.8918,-1.9138,-1.9424,-1.9424,-1.9424,-1.9424,-1.9424,-1.9424,-1.9279,-1.8985,-1.8918,-1.8824,-1.8537,-1.8237,-1.8089,-1.8437,-1.7969,-1.7695,-1.7949,-1.7769,-1.7521,-1.7239,-1.746,-1.7341,-1.6747,-1.67,-1.6453,-1.5824,-1.5784,-1.5784,-1.5784,-1.5784,-1.5784,-1.5784,-1.5784,-1.5784,-1.5784,-1.5784,-1.5784,-1.5784,-1.5784,-1.5784,-2.6226,-2.8888,-3.0884,-3.0507,-2.8649,-2.6076,-2.2967,0.0,-1.682,-1.4777,-1.3596,-1.2998,-1.3173,-1.3198,-1.3516,-1.45,-1.4921,-1.5944,-1.8263,0.0,0.0,0.0,0.0,0.0,0.0,0.0,0.0,0.0,0.0,0.0,0.0,0.0,0.0,-2.9775,-2.9766,-2.9355,-2.8496,-2.8496,-2.8428,-2.8291,-2.8291,-2.8291,-2.8291,-2.8291,0.0,0.0,0.0,0.0,0.0,-2.7894,-2.7718,-2.7708,-2.7562,-2.7461,-2.749,-2.7783,-2.7705,-2.7402,-2.6973,-2.6631,-2.6318,-2.583,-2.5693,-2.5693,-2.557,-2.4058,-2.2164,-2.0895,-1.9771,-1.8971,-1.9172,-1.9299,-1.9424,-1.9424,-1.9424,-1.9424,-1.9424,-1.9424,-1.9279,-1.8985,-1.8925,-1.8831,-1.8544,-1.841,-1.8384,-1.8477,-1.815,-1.7882,-1.7975,-1.7776,-1.7549,-1.7455,-1.7528,-1.7428,-1.7092,-1.682,-1.6627,-1.644,-1.6052,-1.5784,-1.5784,-1.5784,-1.5784,-1.5784,-1.5784,-1.5784,-1.5784,-1.5784,-1.5784,-1.5784,-1.5784,-1.5784,0.0,-2.3979,-2.5674,-2.5975,-2.433,0.0,0.0,0.0,0.0,-1.4393,-1.3609,-1.3198,-1.3198,-1.3198,-1.3423,-1.4136,-1.4796,-1.5766,-1.7414,0.0,0.0,0.0,0.0,0.0,0.0,0.0,0.0,0.0,0.0,0.0,0.0,0.0,0.0,-2.9326,-2.9326,-2.8994,-2.8301,-2.8291,-2.8291,-2.8291,-2.8291,-2.8291,-2.8291,0.0,0.0,0.0,0.0,0.0,0.0,-2.8008,-2.791,-2.791,-2.791,-2.7855,-2.7748,-2.7959,-2.7943,-2.763,-2.6982,-2.6709,-2.6523,-2.5879,-2.5693,-2.5742,-2.6064,-2.5293,-2.39,-2.1905,-2.0667,-1.9954,-2.0207,-1.9815,-1.9424,-1.9424,-1.9424,-1.9424,-1.9424,-1.9424,-1.9312,-1.9125,-1.9092,-1.9032,-1.8851,-1.8724,-1.8651,-1.8651,-1.8404,-1.8115,-1.8009,-1.7822,-1.7709,-1.7595,-1.7582,-1.7514,-1.7226,-1.6874,-1.666,-1.6553,-1.6092,-1.5784,-1.5784,-1.5784,-1.5784,-1.5784,-1.5784,-1.5784,-1.5784,-1.5784,-1.5784,-1.5784,-1.5784,-1.5784,0.0,-2.0037,0.0,0.0,0.0,0.0,0.0,0.0,0.0,0.0,0.0,-1.321,-1.3248,-1.3223,-1.3273,-1.3461,-1.4777,-1.5752,-1.572,0.0,0.0,0.0,0.0,0.0,0.0,0.0,0.0,0.0,0.0,0.0,0.0,0.0,0.0,0.0,-2.8877,-2.8682,-2.8301,-2.8291,-2.8291,-2.8291,-2.8291,-2.8291,-2.8291,0.0,0.0,0.0,0.0,0.0,0.0,-2.8291,-2.8271,-2.8252,-2.8252,-2.7988,-2.7679,-2.7708,-2.7699,-2.751,-2.6709,-2.667,-2.6836,-2.5957,-2.5693,-2.5693,-2.5723,-2.5571,-2.5005,-2.3319,-2.2331,-2.1756,-2.1756,-2.0644,-1.9533,-1.9533,-1.9482,-1.9424,-1.9424,-1.9424,-1.9424,-1.9424,-1.9424,-1.9424,-1.9424,-1.9118,-1.8925,-1.8925,-1.8657,-1.8357,-1.8029,-1.7975,-1.7903,-1.7615,-1.7582,-1.7475,-1.7253,-1.6887,-1.6587,-1.6342,-1.5992,-1.5784,-1.5784,-1.5784,-1.5784,-1.5784,-1.5784,-1.5784,-1.5784,-1.5784,-1.5784,-1.5784,-1.5784,-1.5784,-1.3232,0.0,-1.5347,-1.6204,-1.5834,-1.5255,0.0,0.0,0.0,0.0,0.0,0.0,0.0,-1.3509,-1.3917,-1.6057,-1.6358,-1.6882,-1.8536,0.0,0.0,0.0,0.0,0.0,0.0,0.0,0.0,0.0,0.0,0.0,0.0,0.0,0.0,0.0,-2.8437,-2.8398,-2.8291,-2.8291,-2.8291,-2.8291,-2.8291,-2.8291,-2.8291,0.0,0.0,0.0,0.0,0.0,0.0,-2.8291,-2.8105,-2.7812,-2.7812,-2.7549,-2.7207,-2.7591,-2.7451,-2.7139,-2.6934,-2.6728,-2.6445,-2.5859,-2.5693,-2.5752,-2.6133,-2.5609,-2.4824,-2.4412,-2.3803,-2.3263,-2.3263,-2.2202,-2.1088,-2.1088,-2.0199,-1.9424,-1.9424,-1.9424,-1.9424,-1.9424,-1.9424,-1.9424,-1.9424,-1.9118,-1.8925,-1.8925,-1.8428,-1.8069,-1.8002,-1.7842,-1.7662,-1.7589,-1.7582,-1.7555,-1.7482,-1.7007,-1.6587,-1.6342,-1.5992,-1.5784,-1.5784,-1.5784,-1.5784,-1.5784,-1.5784,-1.5784,-1.5784,-1.5784,-1.5784,-1.5784,-1.5784,-1.5784,-1.1603,-1.2203,-1.2964,-1.3534,-1.369,-1.3765,-1.4035,0.0,0.0,0.0,0.0,0.0,0.0,0.0,0.0,-1.6321,-1.7209,0.0,0.0,0.0,0.0,0.0,0.0,0.0,0.0,0.0,0.0,0.0,0.0,0.0,0.0,0.0,0.0,0.0,0.0,-2.8291,-2.8291,-2.8291,-2.8291,-2.8291,-2.8291,-2.8291,-2.8281,0.0,0.0,0.0,0.0,0.0,-2.7705,-2.7705,-2.7578,-2.7373,-2.7373,-2.71,-2.6758,-2.6992,-2.6934,-2.6699,-2.6504,-2.6279,-2.6055,-2.5762,-2.5693,-2.5771,-2.626,-2.6095,-2.5872,-2.6059,-2.5523,-2.4884,-2.4884,-2.3766,-2.2589,-2.2589,-2.1479,-2.0429,-2.0429,-1.9866,-1.9424,-1.9424,-1.9424,-1.9424,-1.9424,-1.9232,-1.9085,-1.8945,-1.8764,-1.8504,-1.8042,-1.8016,-1.7889,-1.7609,-1.7582,-1.7528,-1.7447,-1.7146,-1.6787,-1.6486,-1.6066,-1.5784,-1.5784,-1.5784,-1.5784,-1.5784,-1.5784,-1.5784,-1.5784,-1.5784,-1.5784,-1.5784,-1.5784,-1.5784,-1.1663,-1.2115,-1.2613,-1.2973,-1.3215,-1.3483,-1.3972,0.0,0.0,0.0,0.0,0.0,0.0,0.0,0.0,0.0,0.0,0.0,0.0,0.0,0.0,0.0,0.0,0.0,0.0,0.0,0.0,0.0,0.0,0.0,0.0,0.0,0.0,0.0,0.0,0.0,-2.8193,-2.8262,-2.8291,-2.8291,-2.8291,-2.8291,-2.8281,-2.7861,0.0,0.0,0.0,0.0,-2.7012,-2.7012,-2.6973,-2.6914,-2.6914,-2.666,-2.6299,-2.6367,-2.6348,-2.624,-2.582,-2.5693,-2.5693,-2.5693,-2.5732,-2.5869,-2.6348,-2.6777,-2.7207,-2.7637,-2.7128,-2.6436,-2.6436,-2.5325,-2.4156,-2.4156,-2.3039,-2.1919,-2.1919,-2.0759,-1.9758,-1.9758,-1.9533,-1.9424,-1.9424,-1.939,-1.9219,-1.8958,-1.9058,-1.8911,-1.8149,-1.825,-1.8176,-1.7702,-1.7609,-1.7534,-1.7286,-1.7226,-1.7092,-1.6787,-1.6219,-1.5831,-1.5784,-1.5784,-1.5784,-1.5784,-1.5784,-1.5784,-1.5784,-1.5784,-1.5784,-1.5784,-1.5784,-1.5784,-1.2027,-1.2676,-1.3002,-1.2613,-1.325,-1.3984,-1.4091,0.0,0.0,0.0,0.0,0.0,0.0,0.0,0.0,0.0,0.0,0.0,0.0,0.0,0.0,0.0,0.0,0.0,0.0,0.0,0.0,0.0,0.0,0.0,0.0,0.0,0.0,0.0,0.0,-2.7816,-2.7816,-2.8115,-2.8291,-2.8291,-2.8291,-2.8291,-2.8281,-2.7861,-2.7718,0.0,0.0,0.0,-2.7012,-2.7012,-2.6807,-2.6484,-2.6484,-2.6221,-2.5879,-2.625,-2.6152,-2.5781,-2.5713,-2.5693,-2.5693,-2.5693,-2.5986,-2.6367,-2.6787,-2.7226,-2.7708,-2.8076,-2.8072,-2.795,-2.795,-2.6888,-2.5763,-2.5763,-2.4599,-2.3487,-2.3487,-2.2315,-2.1252,-2.1252,-2.0256,-1.9424,-1.9424,-1.9158,-1.8978,-1.8931,-1.8482,-1.829,-1.841,-1.8009,-1.7789,-1.7902,-1.7742,-1.7562,-1.7522,-1.734,-1.7186,-1.7132,-1.6583,-1.6092,-1.5791,-1.5784,-1.5784,-1.5784,-1.5784,-1.5784,-1.5784,-1.5784,-1.5784,-1.5784,-1.5784,-1.5784,-1.2538,-1.2801,-1.314,-1.4714,-1.5035,-1.4959,-1.4959,-1.4921,0.0,0.0,0.0,0.0,0.0,0.0,0.0,0.0,0.0,0.0,0.0,0.0,0.0,0.0,0.0,0.0,0.0,0.0,0.0,0.0,0.0,0.0,0.0,0.0,0.0,0.0,0.0,0.0,-2.7314,-2.751,-2.7832,-2.8291,-2.8066,-2.7959,-2.793,-2.7275,-2.6973,0.0,0.0,-2.6328,-2.6328,-2.6328,-2.6211,-2.6035,-2.6035,-2.5869,-2.5742,-2.623,-2.6406,-2.6396,-2.6162,-2.6084,-2.6084,-2.6084,-2.6221,-2.6465,-2.6894,-2.7324,-2.7757,-2.79,-2.8115,-2.8291,-2.8291,-2.7789,-2.7276,-2.7276,-2.6164,-2.5041,-2.5041,-2.3665,-2.2537,-2.2726,-2.1387,-2.0558,-2.1628,-2.0971,-2.0373,-2.0373,-2.0124,-1.9605,-1.8621,-1.825,-1.8003,-1.7816,-1.7669,-1.7582,-1.7582,-1.7514,-1.7233,-1.6757,-1.6469,-1.6139,-1.5791,-1.5784,-1.5784,-1.5784,-1.5784,-1.5784,-1.5784,-1.5784,-1.5784,-1.5784,-1.5784,-1.5784,-1.3132,-1.3002,-1.3283,-1.6116,0.0,-1.6609,-1.7124,-1.7033,0.0,0.0,0.0,0.0,0.0,0.0,0.0,0.0,0.0,0.0,0.0,0.0,0.0,0.0,0.0,0.0,0.0,0.0,0.0,0.0,0.0,0.0,0.0,0.0,0.0,0.0,0.0,0.0,-2.6865,-2.6865,-2.7246,-2.7988,-2.7666,-2.7562,-2.749,-2.6728,-2.6387,-2.6367,-2.5879,-2.5693,-2.5693,-2.5693,-2.5693,-2.5693,-2.5693,-2.5752,-2.5869,-2.6152,-2.6504,-2.6807,-2.6387,-2.624,-2.624,-2.624,-2.6377,-2.6592,-2.6914,-2.7393,-2.7812,-2.7812,-2.8047,-2.8291,-2.8291,-2.8291,-2.8291,-2.8291,-2.7447,-2.6608,-2.6608,-2.5151,-2.3993,-2.4272,-2.2815,-2.203,-2.3443,-2.2696,-2.1974,-2.1974,-2.1624,-2.085,-1.9438,-1.8793,-1.8337,-1.7936,-1.7776,-1.7662,-1.7589,-1.7582,-1.7268,-1.6576,-1.6529,-1.6313,-1.5945,-1.5932,-1.5899,-1.5784,-1.5784,-1.5784,-1.5784,-1.5784,-1.5784,-1.5784,-1.5784,-1.5784,-1.3732,-1.3596,-1.3453,-1.4758,-1.6936,0.0,-2.1368,-2.218,0.0,-2.1882,0.0,0.0,0.0,0.0,0.0,0.0,0.0,0.0,0.0,0.0,0.0,0.0,0.0,0.0,0.0,0.0,0.0,0.0,0.0,0.0,0.0,0.0,0.0,0.0,0.0,0.0,-2.6435,-2.6435,-2.666,-2.7109,-2.707,-2.706,-2.7051,-2.6592,-2.6387,-2.6367,-2.5879,-2.5693,-2.5693,-2.5693,-2.5693,-2.5693,-2.5693,-2.5986,-2.6299,-2.5918,-2.6064,-2.6367,-2.5937,-2.5732,-2.5732,-2.5732,-2.6328,-2.6973,-2.7002,-2.7588,-2.8252,-2.8252,-2.8271,-2.8291,-2.8291,-2.8291,-2.8291,-2.8291,-2.8237,-2.8121,-2.8121,-2.6978,-2.59,-2.5927,-2.4693,-2.3523,-2.3275,-2.3171,-2.3061,-2.3061,-2.1635,-2.0773,-2.1331,-1.9689,-1.8577,-1.8804,-1.8282,-1.7896,-1.7609,-1.7582,-1.7494,-1.7159,-1.7139,-1.6884,-1.6315,-1.6239,-1.6112,-1.5832,-1.5784,-1.5784,-1.5784,-1.5784,-1.5784,-1.5784,-1.5784,-1.5784,-1.3333,-1.4118,-1.5367,-1.7876,-1.9547,0.0,0.0,-2.2033,-2.3514,-2.2907,-2.3358,0.0,0.0,0.0,0.0,0.0,0.0,0.0,0.0,0.0,0.0,0.0,0.0,0.0,0.0,0.0,0.0,0.0,0.0,0.0,0.0,0.0,0.0,0.0,0.0,0.0,0.0,-2.5986,-2.6015,-2.6181,-2.6494,-2.6631,-2.6611,-2.6182,-2.5986,-2.5977,-2.5762,-2.5693,-2.5693,-2.5693,-2.5693,-2.5693,-2.5693,-2.6006,-2.6367,-2.6201,-2.6416,-2.6719,-2.6289,-2.6143,-2.6143,-2.6143,-2.6543,-2.7012,-2.7012,-2.7617,-2.8232,-2.7978,-2.8096,-2.8291,-2.8291,-2.8291,-2.8291,-2.8291,-2.8291,-2.8291,-2.8291,-2.7694,-2.7144,-2.74,-2.6009,-2.5029,-2.5878,-2.5451,-2.4918,-2.4619,-2.3406,-2.2198,-2.1161,-1.9535,-1.839,-1.8116,-1.7889,-1.7709,-1.7595,-1.7582,-1.7535,-1.7481,-1.7074,-1.6693,-1.6342,-1.6092,-1.5945,-1.5784,-1.5784,-1.5784,-1.5784,-1.5784,-1.5784,-1.5784,-1.5784,-1.5784,-1.3383,-1.4827,-1.6794,-1.9082,0.0,0.0,-2.1089,-2.2749,-2.4544,-2.465,-2.5716,0.0,0.0,0.0,0.0,0.0,0.0,0.0,0.0,0.0,0.0,0.0,0.0,0.0,0.0,0.0,0.0,0.0,0.0,0.0,0.0,0.0,0.0,0.0,0.0,0.0,0.0,-2.5547,-2.5547,-2.5693,-2.6045,-2.6182,-2.6172,-2.583,-2.5693,-2.5693,-2.5693,-2.5693,-2.5693,-2.5693,-2.5693,-2.5693,-2.5693,-2.6006,-2.6367,-2.623,-2.6455,-2.6758,-2.6328,-2.6182,-2.6182,-2.6182,-2.6562,-2.7012,-2.7012,-2.7617,-2.8232,-2.7949,-2.8066,-2.8291,-2.8291,-2.8291,-2.8291,-2.8291,-2.8291,-2.8291,-2.8291,-2.8066,-2.7949,-2.8232,-2.7106,-2.6443,-2.7499,-2.6964,-2.6345,-2.6134,-2.5082,-2.3796,-2.2379,-2.088,-1.9569,-1.8512,-1.848,-1.83,-1.7655,-1.7582,-1.7582,-1.7582,-1.7027,-1.6613,-1.642,-1.6126,-1.5925,-1.5784,-1.5784,-1.5784,-1.5784,-1.5784,-1.5784,-1.5784,-1.5784,-1.5784,-1.4128,-1.5759,-1.7461,0.0,0.0,0.0,-2.48,-2.5247,-2.6088,-2.7758,0.0,0.0,0.0,0.0,0.0,0.0,0.0,0.0,0.0,0.0,0.0,0.0,0.0,0.0,0.0,0.0,0.0,0.0,0.0,0.0,0.0,0.0,0.0,0.0,0.0,0.0,0.0,-2.5283,-2.5283,-2.5674,-2.5684,-2.5684,-2.5693,-2.5684,-2.5684,-2.5693,-2.5684,-2.5684,-2.5693,-2.5693,-2.5693,-2.5693,-2.5693,-2.6006,-2.6328,-2.5849,-2.6006,-2.6328,-2.584,-2.5693,-2.5693,-2.5693,-2.6269,-2.7012,-2.7012,-2.7607,-2.8291,-2.8291,-2.8291,-2.8291,-2.8291,-2.8291,-2.8291,-2.8291,-2.8291,-2.8291,-2.8291,-2.8291,-2.8291,-2.8291,-2.7959,-2.7718,-2.7718,-2.7314,-2.7178,-2.765,-2.639,-2.5388,-2.5379,-2.4091,-2.2411,-2.0347,-2.0458,-1.9854,-1.7787,-1.7635,-1.7582,-1.7582,-1.7034,-1.6707,-1.6707,-1.6426,-1.6126,-1.5791,-1.5784,-1.5784,-1.5784,-1.5784,-1.5784,-1.5784,-1.5784,-1.5784,-1.5894,-1.8543,0.0,-2.1933,0.0,0.0,0.0,-2.6691,0.0,0.0,0.0,0.0,0.0,0.0,0.0,0.0,0.0,0.0,0.0,0.0,0.0,0.0,0.0,0.0,0.0,0.0,0.0,0.0,0.0,0.0,0.0,0.0,0.0,0.0,0.0,0.0,0.0,0.0,-2.4678,-2.4814,-2.5117,-2.543,-2.5674,-2.541,-2.5439,-2.5674,-2.54,-2.5449,-2.5693,-2.5693,-2.5693,-2.5693,-2.5693,-2.5771,-2.5869,-2.5732,-2.5771,-2.5908,-2.5732,-2.5693,-2.5693,-2.5693,-2.6269,-2.6963,-2.666,-2.7383,-2.8232,-2.7939,-2.8066,-2.8291,-2.8291,-2.8291,-2.8291,-2.8291,-2.8291,-2.8291,-2.8291,-2.8291,-2.8291,-2.8291,-2.8193,-2.8018,-2.7767,-2.7803,-2.7861,-2.7748,-2.639,-2.4819,-2.3277,-2.2503,-2.19,-2.1277,-2.0477,-1.9687,-1.9086,-1.8146,-1.7582,-1.7582,-1.728,-1.6978,-1.6714,-1.6226,-1.5919,-1.5784,-1.5784,-1.5784,-1.5784,-1.5784,-1.5784,-1.5784,-1.5784,-1.5784,-1.6961,-2.01,0.0,-2.418,-2.5234,-2.6239,-2.6725,0.0,0.0,0.0,0.0,0.0,0.0,0.0,0.0,0.0,0.0,0.0,0.0,0.0,0.0,0.0,0.0,0.0,0.0,0.0,0.0,0.0,0.0,0.0,0.0,0.0,0.0,0.0,0.0,0.0,0.0,0.0,0.0,-2.5093,-2.491,-2.4951,-2.5157,-2.5117,-2.5215,-2.5459,-2.5233,-2.5225,-2.5488,-2.5615,-2.5693,-2.5693,-2.5693,-2.5693,-2.5693,-2.5693,-2.5693,-2.5693,-2.5693,-2.5693,-2.5693,-2.5693,-2.6201,-2.6748,-2.666,-2.7295,-2.8027,-2.7939,-2.8096,-2.8291,-2.8291,-2.8291,-2.8291,-2.8291,-2.8291,-2.8291,-2.8291,-2.8291,-2.8291,-2.8291,-2.8154,-2.8018,-2.793,-2.7988,-2.7959,-2.7757,-2.6608,-2.5359,-2.4205,-2.3764,-2.3294,-2.2584,-2.1885,-2.1194,-2.0503,-1.9672,-1.9155,-1.8979,-1.8231,-1.7624,-1.7274,-1.6428,-1.5952,-1.5784,-1.5784,-1.5784,-1.5784,-1.5784,-1.5784,-1.5784,-1.5784,-1.5784,-1.7586,0.0,0.0,-2.4888,-2.6703,0.0,0.0,0.0,0.0,0.0,0.0,0.0,0.0,0.0,0.0,0.0,0.0,0.0,0.0,0.0,0.0,0.0,0.0,0.0,0.0,0.0,0.0,0.0,0.0,0.0,0.0,0.0,0.0,0.0,0.0,0.0,0.0,0.0,0.0,0.0,-2.5139,-2.4575,-2.4503,-2.4812,-2.4998,-2.5008,-2.5086,-2.5116,-2.5145,-2.5557,-2.5693,-2.5693,-2.5693,-2.5693,-2.5693,-2.5693,-2.5693,-2.5693,-2.5693,-2.5693,-2.5693,-2.5693,-2.6035,-2.6455,-2.6797,-2.7256,-2.7796,-2.8076,-2.8232,-2.8291,-2.8291,-2.8291,-2.8291,-2.8291,-2.8291,-2.8291,-2.8291,-2.8291,-2.8281,-2.8242,-2.7959,-2.7875,-2.8125,-2.7891,-2.7708,-2.7669,-2.6943,-2.6572,-2.6914,-2.6592,-2.5706,-2.4035,-2.4108,-2.3606,-2.203,-2.1752,-2.1494,-2.1024,-1.9584,-1.8536,-1.8137,-1.6912,-1.6106,-1.5832,-1.592,-1.592,-1.5784,-1.592,-1.592,-1.5784,-1.5784,-1.5784,-1.8932,-2.1255,0.0,0.0,-2.8423,0.0,0.0,0.0,0.0,0.0,0.0,0.0,0.0,0.0,0.0,0.0,0.0,0.0,0.0,0.0,0.0,0.0,0.0,0.0,0.0,0.0,0.0,0.0,0.0,0.0,0.0,0.0,0.0,0.0,0.0,0.0,-2.6744,-2.6435,-2.6309,0.0,-2.6496,-2.6064,-2.5183,-2.4411,-2.4062,-2.4102,-2.4822,-2.5116,-2.5145,-2.5557,-2.5693,-2.5693,-2.5693,-2.5693,-2.5693,-2.5693,-2.5693,-2.5693,-2.5693,-2.5693,-2.5693,-2.5693,-2.6035,-2.6338,-2.6094,-2.6787,-2.7669,-2.7363,-2.7773,-2.8291,-2.8291,-2.8291,-2.8291,-2.8291,-2.8291,-2.8291,-2.8291,-2.8291,-2.8193,-2.7861,-2.7998,-2.7978,-2.7393,-2.75,-2.7549,-2.7207,-2.7002,-2.6797,-2.6553,-2.6143,-2.5693,-2.5294,-2.4427,-2.3673,-2.3285,-2.2316,-2.1494,-2.1024,-1.981,-1.8775,-1.8152,-1.6703,-1.5844,-1.5784,-1.6763,-1.6803,-1.5784,-1.6803,-1.6763,-1.5784,-1.5784,-1.5784,-1.9284,0.0,0.0,-2.7268,0.0,0.0,0.0,0.0,0.0,0.0,0.0,0.0,0.0,0.0,0.0,0.0,0.0,0.0,0.0,0.0,0.0,0.0,0.0,0.0,0.0,0.0,0.0,0.0,0.0,0.0,0.0,0.0,0.0,0.0,0.0,0.0,-2.8091,-2.7545,-2.729,-2.725,-2.6979,-2.6517,-2.5904,-2.4462,-2.3682,-2.3516,-2.417,-2.4463,-2.4548,-2.5146,-2.542,-2.5439,-2.5606,-2.5693,-2.5693,-2.5693,-2.5693,-2.5693,-2.5693,-2.5693,-2.5693,-2.5693,-2.5889,-2.6074,-2.6055,-2.6514,-2.7051,-2.7021,-2.749,-2.7939,-2.7734,-2.7832,-2.7939,-2.7734,-2.7998,-2.8291,-2.8291,-2.8135,-2.793,-2.7757,-2.7894,-2.7783,-2.7129,-2.7041,-2.7051,-2.7021,-2.6619,-2.6396,-2.6387,-2.6006,-2.5693,-2.5693,-2.5069,-2.4658,-2.4658,-2.3998,-2.3332,-2.2682,-2.1491,-2.0489,-1.9663,-1.8311,-1.7304,-1.6709,-1.7956,-1.7948,-1.6716,-1.7365,-1.7037,-1.5784,-1.5784,-1.5784,-1.8405,0.0,-2.3885,-2.7155,-2.8411,0.0,0.0,0.0,0.0,0.0,0.0,0.0,0.0,0.0,0.0,0.0,0.0,0.0,0.0,0.0,0.0,0.0,0.0,0.0,0.0,0.0,0.0,0.0,0.0,0.0,0.0,0.0,0.0,0.0,0.0,-2.9792,-2.9792,-2.8858,-2.8386,-2.8386,-2.729,-2.6678,-2.6453,-2.4741,-2.3776,-2.3406,-2.3683,-2.3789,-2.3848,-2.4629,-2.5047,-2.5155,-2.5478,-2.5625,-2.5693,-2.5693,-2.5693,-2.5693,-2.5693,-2.5693,-2.5693,-2.5693,-2.5693,-2.5752,-2.6172,-2.6328,-2.6465,-2.6807,-2.7217,-2.7471,-2.7109,-2.7285,-2.7461,-2.71,-2.7559,-2.8076,-2.8076,-2.7861,-2.7669,-2.7523,-2.7383,-2.7246,-2.6953,-2.6621,-2.6504,-2.6855,-2.6299,-2.5977,-2.6338,-2.6006,-2.5693,-2.5693,-2.5693,-2.5693,-2.5693,-2.5693,-2.5313,-2.4473,-2.3271,-2.2196,-2.1329,-2.035,-1.936,-1.8319,-1.9314,-1.9222,-1.8002,-1.8234,-1.7584,-1.6109,-1.6109,-1.6015,0.0,0.0,-2.3785,0.0,0.0,0.0,0.0,0.0,0.0,0.0,0.0,0.0,0.0,0.0,0.0,0.0,0.0,0.0,0.0,0.0,0.0,0.0,0.0,0.0,0.0,0.0,0.0,0.0,0.0,0.0,0.0,0.0,-2.9792,-2.9792,-2.9792,0.0,-2.9792,-2.9663,-2.9573,-2.9585,-2.8438,-2.7412,-2.6483,-2.5242,-2.4637,-2.452,-2.4028,-2.3789,-2.3828,-2.4307,-2.4727,-2.5125,-2.5184,-2.54,-2.5693,-2.5693,-2.5693,-2.5693,-2.5693,-2.5693,-2.5693,-2.5693,-2.5693,-2.5703,-2.5762,-2.6084,-2.6396,-2.6455,-2.6777,-2.709,-2.7031,-2.706,-2.709,-2.7021,-2.71,-2.7187,-2.7187,-2.7441,-2.7503,-2.6699,-2.626,-2.6094,-2.6416,-2.6426,-2.6406,-2.6465,-2.6377,-2.6328,-2.6387,-2.6006,-2.5693,-2.5693,-2.5693,-2.5693,-2.5693,-2.5693,-2.5313,-2.4473,-2.3271,-2.2196,-2.1329,-2.1159,-2.098,-2.08,-2.098,-2.0486,-1.9268,-2.0305,-1.967,-1.7458,-1.7458,-1.685,-1.4777,-1.9145,-2.3484,0.0,0.0,0.0,0.0,0.0,0.0,0.0,0.0,0.0,0.0,0.0,0.0,0.0,0.0,0.0,0.0,0.0,0.0,0.0,0.0,0.0,0.0,0.0,0.0,0.0,0.0,0.0,0.0,-2.9792,-2.9792,-2.9792,-2.9792,0.0,-2.9792,-2.9792,-2.9792,-2.9792,-2.9275,-2.8831,-2.8291,-2.6554,-2.5052,-2.3854,-2.355,-2.3428,-2.3457,-2.3887,-2.418,-2.4375,-2.4609,-2.4824,-2.4982,-2.5273,-2.5361,-2.54,-2.5596,-2.5693,-2.5693,-2.5693,-2.5693,-2.5693,-2.5693,-2.582,-2.6025,-2.6025,-2.6328,-2.6611,-2.6357,-2.6484,-2.6602,-2.6308,-2.6484,-2.6592,-2.6357,-2.6641,-2.6846,-2.6465,-2.6035,-2.583,-2.6309,-2.6182,-2.6025,-2.6025,-2.6025,-2.6025,-2.6025,-2.581,-2.5693,-2.5693,-2.5693,-2.5693,-2.5693,-2.5508,-2.5088,-2.4453,-2.3675,-2.2993,-2.2334,-2.2306,-2.2306,-2.2306,-2.2306,-2.1712,-2.0531,-2.1025,-2.0079,-1.7692,-1.7692,-1.7412,0.0,0.0,-2.1453,-2.3326,0.0,0.0,0.0,0.0,0.0,0.0,0.0,0.0,0.0,0.0,0.0,0.0,0.0,0.0,0.0,0.0,0.0,0.0,0.0,0.0,0.0,0.0,0.0,0.0,0.0,0.0,-2.9792,-2.9792,-2.9792,-2.9792,-2.9792,-2.9792,-2.9792,-2.9792,-2.9792,-2.9792,-2.9792,-2.9663,-2.9326,-2.7666,-2.5672,-2.3507,-2.3222,-2.3091,-2.312,-2.3486,-2.3691,-2.3818,-2.4141,-2.4316,-2.4453,-2.4785,-2.5018,-2.5117,-2.5449,-2.5596,-2.5693,-2.5693,-2.5693,-2.5693,-2.5693,-2.5693,-2.5693,-2.5693,-2.5977,-2.6143,-2.5771,-2.5977,-2.6143,-2.5762,-2.5986,-2.6162,-2.5947,-2.6074,-2.6221,-2.6221,-2.5967,-2.5791,-2.6172,-2.5947,-2.5693,-2.5693,-2.5693,-2.5693,-2.5693,-2.5693,-2.5693,-2.5693,-2.5693,-2.5693,-2.5693,-2.5322,-2.4883,-2.4443,-2.4023,-2.3594,-2.311,-2.3091,-2.3091,-2.3091,-2.3091,-2.2677,-2.1756,-2.1756,-2.0666,-1.8588,-1.8588,-1.8457,0.0,-1.5525,0.0,0.0,0.0,0.0,0.0,0.0,0.0,0.0,0.0,0.0,0.0,0.0,0.0,0.0,0.0,0.0,0.0,0.0,0.0,0.0,0.0,0.0,0.0,0.0,0.0,0.0,0.0,0.0,-2.9792,-2.9792,-2.9792,-2.9792,-2.9792,-2.9792,-2.9792,-2.9792,-2.9792,-2.9792,-2.9792,-2.9236,-2.8176,-2.8056,-2.6808,-2.466,-2.3551,-2.3091,-2.3091,-2.312,-2.3418,-2.3789,-2.3809,-2.4062,-2.4414,-2.4443,-2.4717,-2.5116,-2.5145,-2.5381,-2.5693,-2.5693,-2.5693,-2.5693,-2.5693,-2.5693,-2.5693,-2.5693,-2.5703,-2.5713,-2.5693,-2.5703,-2.5713,-2.5693,-2.5703,-2.583,-2.6269,-2.6045,-2.5723,-2.5723,-2.5703,-2.5693,-2.5713,-2.5703,-2.5693,-2.5693,-2.5693,-2.5693,-2.5693,-2.5693,-2.5693,-2.5693,-2.5693,-2.5693,-2.5693,-2.5322,-2.4883,-2.4443,-2.4023,-2.3594,-2.311,-2.3091,-2.3091,-2.3091,-2.3091,-2.3047,-2.3003,-2.3003,-2.2359,-2.1114,-2.1114,-2.0486,0.0,0.0,0.0,0.0,0.0,0.0,0.0,0.0,0.0,0.0,0.0,0.0,0.0,0.0,0.0,0.0,0.0,0.0,0.0,0.0,0.0,0.0,0.0,0.0,0.0,0.0,0.0,0.0,0.0,0.0,-2.9239,-2.9591,-2.9792,-2.9792,-2.9792,-2.9792,-2.9792,-2.9792,-2.9792,-2.9792,-2.9792,-2.9585,-2.9157,-2.8426,-2.7671,-2.6819,-2.4988,-2.38,-2.3091,-2.3091,-2.3188,-2.3369,-2.3369,-2.3422,-2.3588,-2.3906,-2.4111,-2.4287,-2.456,-2.4941,-2.5303,-2.5303,-2.5508,-2.5693,-2.5693,-2.5693,-2.5693,-2.5693,-2.5693,-2.5693,-2.5693,-2.5693,-2.5693,-2.5693,-2.5693,-2.5732,-2.5888,-2.5801,-2.5693,-2.5693,-2.5693,-2.5693,-2.5693,-2.5693,-2.5693,-2.5693,-2.5693,-2.5693,-2.5693,-2.5693,-2.5577,-2.5332,-2.5303,-2.5195,-2.4912,-2.4502,-2.418,-2.4023,-2.3613,-2.3257,-2.3101,-2.3091,-2.3091,-2.3091,-2.3091,-2.3091,-2.3091,-2.3091,-2.2492,-2.1293,-2.1293,-2.1069,-1.072,0.0,0.0,0.0,0.0,0.0,0.0,0.0,0.0,0.0,0.0,0.0,0.0,0.0,0.0,0.0,0.0,0.0,0.0,0.0,0.0,0.0,0.0,0.0,0.0,0.0,0.0,0.0,0.0,0.0,-2.8612,-2.9013,-2.9315,-2.9503,-2.9691,-2.9792,-2.9792,-2.9792,-2.9792,-2.9792,-2.9792,-2.9792,-2.9753,-2.9028,-2.8478,-2.8004,-2.6562,-2.5073,-2.3637,-2.3266,-2.3091,-2.3091,-2.3091,-2.3091,-2.313,-2.3467,-2.3662,-2.3828,-2.4111,-2.4482,-2.4853,-2.4853,-2.5146,-2.5518,-2.5518,-2.5567,-2.5693,-2.5693,-2.5693,-2.5693,-2.5693,-2.5693,-2.5693,-2.5693,-2.5693,-2.5693,-2.5693,-2.5693,-2.5693,-2.5693,-2.5693,-2.5693,-2.5693,-2.5693,-2.5693,-2.5693,-2.5693,-2.5693,-2.5693,-2.5693,-2.5577,-2.5322,-2.5156,-2.501,-2.4873,-2.4199,-2.3857,-2.3984,-2.3413,-2.3091,-2.3091,-2.3091,-2.3091,-2.3091,-2.3091,-2.3091,-2.3091,-2.3091,-2.2677,-2.1889,-2.1889,-2.1889,0.0,0.0,0.0,0.0,0.0,0.0,0.0,0.0,0.0,0.0,0.0,0.0,0.0,0.0,0.0,0.0,0.0,0.0,0.0,0.0,0.0,0.0,0.0,0.0,0.0,0.0,0.0,0.0,0.0,-2.8084,-2.8109,-2.8134,-2.8398,-2.89,-2.9503,-2.9792,-2.9792,-2.9792,-2.9792,-2.9792,-2.9792,-2.9792,-2.9792,-2.9792,-2.9197,-2.8136,-2.8096,-2.6849,-2.4745,-2.3637,-2.3135,-2.3135,-2.3091,-2.3091,-2.3091,-2.3091,-2.3408,-2.3769,-2.3769,-2.4043,-2.4394,-2.4394,-2.4697,-2.5096,-2.5106,-2.5371,-2.5674,-2.5684,-2.5693,-2.5693,-2.5693,-2.5693,-2.5693,-2.5693,-2.5693,-2.5693,-2.5693,-2.5693,-2.5693,-2.5693,-2.5693,-2.5693,-2.5693,-2.5693,-2.5693,-2.5693,-2.5674,-2.5674,-2.5693,-2.5674,-2.5664,-2.5645,-2.5303,-2.5215,-2.5577,-2.4502,-2.3945,-2.4355,-2.3549,-2.3091,-2.3091,-2.3091,-2.3091,-2.3091,-2.3091,-2.3091,-2.3091,-2.3091,-2.3091,-2.3091,-2.3091,-2.3091,-1.0745,0.0,0.0,0.0,0.0,0.0,0.0,0.0,0.0,0.0,0.0,0.0,0.0,0.0,0.0,0.0,0.0,0.0,0.0,0.0,0.0,0.0,0.0,0.0,0.0,0.0,0.0,0.0,0.0,-2.7682,-2.8084,-2.8875,-2.9402,-2.9553,-2.9704,-2.9792,-2.9792,-2.9792,-2.9792,-2.9792,-2.9792,-2.9792,-2.9792,-2.9792,-2.9624,-2.9236,-2.7626,-2.6595,-2.5922,-2.4798,-2.4339,-2.4253,-2.342,-2.3091,-2.3091,-2.3091,-2.3169,-2.3276,-2.3276,-2.3603,-2.3965,-2.3965,-2.4248,-2.4658,-2.5018,-2.5156,-2.5322,-2.5596,-2.5693,-2.5693,-2.5693,-2.5693,-2.5693,-2.5693,-2.5693,-2.5693,-2.5693,-2.5693,-2.5693,-2.5693,-2.5693,-2.5693,-2.5693,-2.5693,-2.5693,-2.5693,-2.5459,-2.5371,-2.5645,-2.5449,-2.5137,-2.4814,-2.4668,-2.4394,-2.3851,-2.3481,-2.3325,-2.3442,-2.3227,-2.3091,-2.3091,-2.3091,-2.3091,-2.3091,-2.3091,-2.3091,-2.3091,-2.3091,-2.3091,-2.3091,-2.3091,-2.3091,-1.1222,-1.1563,0.0,0.0,0.0,0.0,0.0,-1.4444,0.0,0.0,0.0,0.0,0.0,0.0,0.0,0.0,0.0,0.0,0.0,0.0,0.0,0.0,0.0,0.0,0.0,0.0,0.0,0.0,-2.6788,-2.7115,-2.7442,-2.826,-2.885,-2.9076,-2.9089,-2.9202,-2.9428,-2.9202,-2.9089,-2.9089,-2.9327,-2.9428,-2.944,-2.9679,-2.9792,-2.9714,-2.7919,-2.7168,-2.7035,-2.5452,-2.4787,-2.4702,-2.3551,-2.3387,-2.3757,-2.3266,-2.3091,-2.3091,-2.3091,-2.3257,-2.3516,-2.3516,-2.3809,-2.4199,-2.4453,-2.4832,-2.5174,-2.5381,-2.5459,-2.5508,-2.5635,-2.5596,-2.5508,-2.5645,-2.5693,-2.5693,-2.5693,-2.5693,-2.5693,-2.5693,-2.5693,-2.5693,-2.5693,-2.5586,-2.5518,-2.5664,-2.5361,-2.5234,-2.5635,-2.5352,-2.5018,-2.4717,-2.4365,-2.4023,-2.3656,-2.3296,-2.3169,-2.3398,-2.3198,-2.3091,-2.3091,-2.3091,-2.3091,-2.3091,-2.3091,-2.3091,-2.3091,-2.3091,-2.3091,-2.3091,-2.3091,-2.3091,-1.2005,-1.1879,-1.2093,0.0,0.0,0.0,-1.24,-1.3224,0.0,0.0,0.0,0.0,0.0,0.0,0.0,0.0,0.0,0.0,0.0,0.0,0.0,0.0,0.0,0.0,0.0,0.0,0.0,-2.6499,-2.6549,-2.6587,-2.6587,-2.7115,-2.762,-2.8185,-2.8197,-2.8436,-2.8888,-2.8499,-2.826,-2.821,-2.8725,-2.8988,-2.9001,-2.9566,-2.9792,-2.9753,-2.8597,-2.8096,-2.7924,-2.5692,-2.4787,-2.4702,-2.3551,-2.3714,-2.45,-2.3464,-2.3091,-2.3091,-2.3091,-2.3091,-2.3091,-2.3091,-2.3398,-2.3721,-2.3779,-2.4326,-2.4979,-2.5028,-2.5047,-2.5088,-2.544,-2.5332,-2.5166,-2.5566,-2.5654,-2.5693,-2.5693,-2.5693,-2.5693,-2.5693,-2.5693,-2.5693,-2.5693,-2.541,-2.5283,-2.5625,-2.5312,-2.5156,-2.5605,-2.5234,-2.4979,-2.4979,-2.4238,-2.3916,-2.4248,-2.353,-2.3257,-2.3691,-2.3305,-2.3091,-2.3091,-2.3091,-2.3091,-2.3091,-2.3091,-2.3091,-2.3091,-2.3091,-2.3091,-2.3091,-2.3091,-2.3091,0.0,0.0,0.0,0.0,0.0,0.0,-1.4054,-1.2831,-1.2651,0.0,0.0,0.0,0.0,0.0,0.0,0.0,0.0,0.0,0.0,0.0,0.0,0.0,0.0,0.0,0.0,0.0,-2.6499,-2.6499,-2.6901,-2.7153,-2.7153,-2.7645,-2.8197,-2.8712,-2.8725,-2.8787,-2.8888,-2.9289,-2.9227,-2.8737,-2.9352,-2.9616,-2.9628,-2.9741,-2.9792,-2.9753,-2.8597,-2.8096,-2.7924,-2.5692,-2.4787,-2.4702,-2.3551,-2.3266,-2.3377,-2.3178,-2.3091,-2.3091,-2.3091,-2.3091,-2.3091,-2.3091,-2.3149,-2.3286,-2.3682,-2.3906,-2.4111,-2.4453,-2.4541,-2.456,-2.4648,-2.4873,-2.5135,-2.5176,-2.5478,-2.5693,-2.5693,-2.5693,-2.5693,-2.5693,-2.5693,-2.5693,-2.5693,-2.5615,-2.5586,-2.5674,-2.5059,-2.4707,-2.5146,-2.4521,-2.4043,-2.4043,-2.3887,-2.3682,-2.3364,-2.3198,-2.313,-2.3218,-2.314,-2.3091,-2.3091,-2.3091,-2.3091,-2.3091,-2.3091,-2.3091,-2.3091,-2.3091,-2.3091,-2.3091,-2.3091,-2.3091,0.0,0.0,0.0,-1.4111,0.0,0.0,0.0,-1.2354,-1.2178,0.0,0.0,0.0,0.0,0.0,0.0,0.0,0.0,0.0,0.0,0.0,0.0,0.0,0.0,0.0,0.0,0.0,-2.6499,-2.6499,-2.6751,-2.6901,-2.6901,-2.7165,-2.7544,-2.8097,-2.7846,-2.7821,-2.8109,-2.8122,-2.8122,-2.8109,-2.8674,-2.9101,-2.9365,-2.9666,-2.9792,-2.9753,-2.8597,-2.8096,-2.7964,-2.6337,-2.563,-2.5473,-2.3757,-2.3464,-2.3877,-2.3299,-2.3091,-2.3091,-2.3091,-2.3091,-2.3091,-2.3091,-2.3091,-2.314,-2.3398,-2.3613,-2.3877,-2.4297,-2.4268,-2.415,-2.4365,-2.4424,-2.4541,-2.5018,-2.5244,-2.5469,-2.5635,-2.5693,-2.5693,-2.5693,-2.5557,-2.54,-2.54,-2.5225,-2.5031,-2.5031,-2.4521,-2.4258,-2.4687,-2.418,-2.3789,-2.3789,-2.3594,-2.3379,-2.311,-2.3091,-2.3091,-2.3091,-2.3091,-2.3091,-2.3091,-2.3091,-2.3091,-2.3091,-2.3091,-2.3091,-2.3091,-2.3091,-2.3091,-2.3091,-2.3091,-2.3091,0.0,0.0,0.0,0.0,0.0,-1.4085,0.0,0.0,0.0,-1.3941,0.0,0.0,0.0,0.0,0.0,0.0,0.0,0.0,0.0,0.0,0.0,0.0,0.0,0.0,0.0,0.0,-2.6499,-2.6499,-2.6499,-2.6499,-2.6499,-2.6499,-2.6751,-2.7268,-2.6889,-2.6914,-2.7444,-2.704,-2.709,-2.7607,-2.8047,-2.8549,-2.9076,-2.9578,-2.9792,-2.9753,-2.8819,-2.8426,-2.8347,-2.7046,-2.6524,-2.6318,-2.4221,-2.4006,-2.466,-2.3507,-2.3091,-2.3091,-2.3091,-2.3091,-2.3091,-2.3091,-2.3091,-2.3091,-2.3091,-2.3344,-2.373,-2.4072,-2.3984,-2.3848,-2.4102,-2.4102,-2.4189,-2.4795,-2.5078,-2.5273,-2.5547,-2.5557,-2.5538,-2.545,-2.5185,-2.4971,-2.5106,-2.4707,-2.4414,-2.4414,-2.4062,-2.3916,-2.4248,-2.3926,-2.3662,-2.3662,-2.3305,-2.3091,-2.3091,-2.3091,-2.3091,-2.3091,-2.3091,-2.3091,-2.3091,-2.3091,-2.3091,-2.3091,-2.3091,-2.3091,-2.3091,-2.3091,-2.3091,-2.3091,-2.3091,-2.3091,0.0,0.0,0.0,0.0,-1.5555,0.0,0.0,0.0,-1.2826,-1.2115,0.0,0.0,0.0,0.0,0.0,0.0,0.0,0.0,0.0,0.0,0.0,0.0,0.0,0.0,0.0,0.0,0.0,-2.6499,-2.6499,-2.6499,-2.6499,-2.6499,-2.6751,-2.7268,-2.7218,-2.7457,-2.8009,-2.7946,-2.8197,-2.87,-2.8762,-2.9139,-2.9691,-2.9767,-2.9792,-2.9792,-2.9663,-2.9624,-2.9456,-2.7342,-2.6524,-2.6348,-2.5083,-2.4702,-2.466,-2.3507,-2.3091,-2.3091,-2.3091,-2.3091,-2.3091,-2.3091,-2.3091,-2.3091,-2.3091,-2.313,-2.3179,-2.3227,-2.3525,-2.3711,-2.3325,-2.4102,-2.4853,-2.456,-2.5088,-2.5566,-2.5215,-2.5194,-2.5029,-2.4639,-2.4521,-2.4609,-2.5047,-2.4707,-2.4414,-2.4414,-2.4062,-2.3809,-2.3857,-2.3486,-2.3169,-2.3169,-2.312,-2.3091,-2.3091,-2.3091,-2.3091,-2.3091,-2.3091,-2.3091,-2.3091,-2.3091,-2.3091,-2.3091,-2.3091,-2.3091,-2.3091,-2.3091,-2.3091,-2.3091,-2.3091,-2.3091,0.0,0.0,0.0,0.0,0.0,0.0,-1.4714,0.0,-1.3873,0.0,0.0,0.0,0.0,0.0,0.0,0.0,0.0,0.0,0.0,0.0,0.0,0.0,0.0,0.0,0.0,0.0,0.0,0.0,0.0,-2.4192,-2.4519,-2.5795,-2.66,-2.6839,-2.6839,-2.6952,-2.719,-2.719,-2.7595,-2.8448,-2.8448,-2.8913,-2.9792,-2.9792,-2.9792,-2.9792,-2.9792,-2.9792,-2.9714,-2.8791,-2.8422,-2.8251,-2.6461,-2.4967,-2.3757,-2.3266,-2.3091,-2.3091,-2.3091,-2.3091,-2.3091,-2.3091,-2.3091,-2.3091,-2.3091,-2.3091,-2.3091,-2.3091,-2.3227,-2.3369,-2.314,-2.35,-2.3965,-2.4033,-2.4336,-2.4697,-2.5047,-2.4863,-2.4717,-2.4785,-2.4394,-2.4111,-2.4297,-2.418,-2.3965,-2.3666,-2.3481,-2.3408,-2.3408,-2.3208,-2.3091,-2.3091,-2.3091,-2.3091,-2.3091,-2.3091,-2.3091,-2.3091,-2.3091,-2.3091,-2.3091,-2.3091,-2.3091,-2.3091,-2.3091,-2.3091,-2.3091,-2.3091,-2.3091,-2.3091,-2.3091,-2.3091,-1.9346,0.0,0.0,0.0,0.0,0.0,0.0,0.0,0.0,0.0,0.0,0.0,0.0,0.0,0.0,0.0,0.0,0.0,0.0,0.0,0.0,0.0,0.0,0.0,0.0,0.0,0.0,0.0,0.0,0.0,-2.2832,-2.4582,-2.5858,-2.6474,-2.6499,-2.6637,-2.6939,-2.6801,-2.7354,-2.8561,-2.8411,-2.885,-2.9792,-2.9792,-2.9792,-2.9792,-2.9792,-2.9792,-2.9792,-2.9456,-2.9326,-2.9157,-2.7221,-2.5473,-2.3973,-2.3343,-2.3091,-2.3091,-2.3091,-2.3091,-2.3091,-2.3091,-2.3091,-2.3091,-2.3091,-2.3091,-2.3091,-2.3091,-2.3179,-2.3247,-2.312,-2.3266,-2.35,-2.374,-2.3877,-2.4102,-2.4609,-2.4473,-2.4307,-2.4502,-2.4033,-2.3613,-2.3613,-2.3613,-2.3506,-2.314,-2.3091,-2.3091,-2.3091,-2.3091,-2.3091,-2.3091,-2.3091,-2.3091,-2.3091,-2.3091,-2.3091,-2.3091,-2.3091,-2.3091,-2.3091,-2.3091,-2.3091,-2.3091,-2.3091,-2.3091,-2.3091,-2.3091,-2.3091,-2.3091,-2.3091,-2.3091,0.0,0.0,0.0,-2.1016,0.0,0.0,0.0,0.0,-1.5525,0.0,0.0,0.0,0.0,0.0,-1.2425,-1.027,0.0,0.0,0.0,0.0,0.0,0.0,0.0,0.0,0.0,0.0,0.0,0.0,0.0,0.0,-2.2192,-2.2882,-2.423,-2.6424,-2.6499,-2.7002,-2.8047,-2.7519,-2.8097,-2.9729,-2.9126,-2.9214,-2.9792,-2.9792,-2.9792,-2.9792,-2.9792,-2.9792,-2.9702,-2.8597,-2.8164,-2.8056,-2.6924,-2.6483,-2.6099,-2.3887,-2.3091,-2.3091,-2.3091,-2.3091,-2.3091,-2.3091,-2.3091,-2.3091,-2.3091,-2.3091,-2.3091,-2.3091,-2.3437,-2.3672,-2.3208,-2.3715,-2.4277,-2.3887,-2.4102,-2.4287,-2.3906,-2.3818,-2.3691,-2.3237,-2.314,-2.312,-2.312,-2.312,-2.311,-2.3091,-2.3091,-2.3091,-2.3091,-2.3091,-2.3091,-2.3091,-2.3091,-2.3091,-2.3091,-2.3091,-2.3091,-2.3091,-2.3091,-2.3091,-2.3091,-2.3091,-2.3091,-2.3091,-2.3091,-2.3091,-2.3091,-2.3091,-2.3091,-2.3091,-2.3091,-2.3091,0.0,0.0,-2.2447,-2.3012,0.0,0.0,0.0,0.0,0.0,0.0,0.0,0.0,0.0,0.0,-1.2835,-1.1723,-1.1261,-1.0808,0.0,0.0,0.0,0.0,0.0,0.0,0.0,0.0,0.0,0.0,0.0,0.0,0.0,-2.2017,-2.4155,-2.6424,-2.6499,-2.6675,-2.7052,-2.6864,-2.7394,-2.8674,-2.8486,-2.8875,-2.9792,-2.9792,-2.9792,-2.9792,-2.9792,-2.9792,-2.9702,-2.8557,-2.8096,-2.7924,-2.6077,-2.5378,-2.5378,-2.5347,-2.4893,-2.4125,-2.3343,-2.3091,-2.3091,-2.3091,-2.3091,-2.3091,-2.3091,-2.3091,-2.3091,-2.3091,-2.3198,-2.3276,-2.313,-2.3305,-2.3491,-2.3344,-2.3422,-2.3613,-2.376,-2.3564,-2.3398,-2.3545,-2.3286,-2.3091,-2.3091,-2.3091,-2.3091,-2.3091,-2.3091,-2.3091,-2.3091,-2.3091,-2.3091,-2.3091,-2.3091,-2.3091,-2.3091,-2.3091,-2.3091,-2.3091,-2.3091,-2.3091,-2.3091,-2.3091,-2.3091,-2.3091,-2.3091,-2.3091,-2.3091,-2.3091,-2.3091,-2.3091,-2.3091,-2.3091,-2.4613,-2.4443,0.0,0.0,-2.3163,0.0,-2.0903,0.0,0.0,0.0,0.0,0.0,0.0,0.0,-1.3428,-1.2303,-1.1512,-1.0883,0.0,-1.0281,0.0,0.0,0.0,0.0,0.0,0.0,0.0,0.0,0.0,0.0,0.0,0.0,-2.3339,-2.6399,-2.6499,-2.6587,-2.6788,-2.6788,-2.7241,-2.8109,-2.8109,-2.8586,-2.9478,-2.9478,-2.9591,-2.9792,-2.9792,-2.9792,-2.9753,-2.9028,-2.8688,-2.8518,-2.6685,-2.5983,-2.5911,-2.5473,-2.4851,-2.4082,-2.3343,-2.3091,-2.3091,-2.3091,-2.3091,-2.3091,-2.3091,-2.3091,-2.312,-2.3286,-2.3218,-2.3218,-2.3793,-2.3505,-2.3222,-2.3594,-2.3387,-2.33,-2.3997,-2.3584,-2.33,-2.4007,-2.3584,-2.3091,-2.3091,-2.3091,-2.3091,-2.3091,-2.3091,-2.3091,-2.3091,-2.3091,-2.3091,-2.3091,-2.3091,-2.3091,-2.3091,-2.3091,-2.3091,-2.3091,-2.3091,-2.3091,-2.3091,-2.3091,-2.3169,-2.3369,-2.3169,-2.3169,-2.3369,-2.3169,-2.3091,-2.3091,-2.3091,-2.3091]},{"header":{"parameterUnit":"m.s-1","parameterCategory":1,"la1":30.6,"la2":29.2853,"lo1":-89.7004,"lo2":-87.6739,"dy":0.0162,"dx":0.0183,"nx":112,"ny":82,"refTime":"2023-07-03T06:00:00:Z","depth":0,"parameterNumber":3,"parameterNumberName":"V-component_of_WINDS"},"data":[0.0,0.0,0.0,0.0,0.0,0.0,0.0,0.0,0.0,0.0,0.0,0.0,0.0,0.0,0.0,0.0,0.0,0.0,0.0,0.0,0.0,0.0,0.0,0.0,0.0,0.0,0.0,0.0,0.0,0.0,0.0,0.0,0.0,0.0,0.0,0.0,0.0,0.0,0.0,0.0,0.0,0.0,0.0,0.0,0.0,0.0,0.0,0.0,0.0,0.0,0.0,0.0,0.0,0.0,0.0,0.0,0.0,0.0,0.0,0.0,0.0,0.0,0.0,0.0,0.0,0.0,0.0,0.0,0.0,0.0,0.0,0.0,0.0,0.0,0.0,0.0,0.0,0.0,0.0,0.0,0.0,0.0,0.0,0.0,0.0,0.0,0.0,0.0,0.0,0.0,0.0,-3.0444,-3.5876,-3.9157,-3.9157,-3.8075,-3.4692,-2.8382,0.0,0.0,0.0,0.0,0.0,0.0,0.0,0.0,0.0,0.0,0.0,0.0,0.0,0.0,0.0,0.0,0.0,0.0,0.0,0.0,0.0,0.0,0.0,0.0,0.0,0.0,0.0,0.0,0.0,0.0,0.0,0.0,0.0,0.0,0.0,0.0,0.0,0.0,0.0,0.0,0.0,0.0,0.0,0.0,0.0,0.0,0.0,0.0,0.0,0.0,0.0,0.0,0.0,0.0,0.0,0.0,0.0,0.0,0.0,0.0,0.0,0.0,0.0,0.0,0.0,0.0,0.0,0.0,0.0,0.0,0.0,0.0,0.0,0.0,0.0,0.0,0.0,0.0,0.0,0.0,0.0,0.0,0.0,0.0,0.0,0.0,0.0,0.0,0.0,0.0,0.0,0.0,0.0,0.0,0.0,0.0,0.0,0.0,0.0,0.0,0.0,0.0,0.0,0.0,-2.5745,-3.3892,-3.7872,-3.9943,-3.9943,-3.6914,-3.3237,-2.9077,0.0,0.0,0.0,0.0,0.0,0.0,0.0,0.0,0.0,0.0,0.0,0.0,0.0,0.0,0.0,0.0,0.0,0.0,0.0,0.0,0.0,0.0,0.0,0.0,0.0,0.0,0.0,0.0,0.0,0.0,0.0,0.0,0.0,0.0,0.0,0.0,0.0,0.0,0.0,0.0,0.0,0.0,0.0,0.0,0.0,0.0,0.0,0.0,0.0,0.0,0.0,0.0,0.0,0.0,0.0,0.0,0.0,0.0,0.0,0.0,0.0,0.0,0.0,0.0,0.0,0.0,0.0,0.0,0.0,0.0,0.0,0.0,0.0,0.0,0.0,0.0,0.0,0.0,0.0,0.0,0.0,0.0,0.0,0.0,0.0,0.0,0.0,0.0,0.0,0.0,0.0,0.0,0.0,0.0,0.0,0.0,0.0,0.0,0.0,0.0,0.0,0.0,0.0,-2.4729,-2.9465,-3.5605,-3.8832,-4.0246,-3.9562,-3.708,-3.3508,-2.8654,-2.5879,0.0,0.0,0.0,0.0,0.0,0.0,0.0,0.0,0.0,0.0,0.0,0.0,0.0,0.0,0.0,0.0,0.0,0.0,0.0,0.0,0.0,0.0,0.0,0.0,0.0,0.0,0.0,0.0,0.0,0.0,0.0,0.0,0.0,0.0,0.0,0.0,0.0,0.0,0.0,0.0,0.0,0.0,0.0,0.0,0.0,0.0,0.0,0.0,0.0,0.0,0.0,0.0,0.0,0.0,0.0,0.0,0.0,0.0,0.0,0.0,0.0,0.0,0.0,0.0,0.0,0.0,0.0,0.0,0.0,0.0,0.0,0.0,0.0,0.0,0.0,0.0,0.0,0.0,0.0,0.0,0.0,0.0,0.0,0.0,0.0,0.0,0.0,0.0,0.0,0.0,0.0,0.0,0.0,0.0,0.0,0.0,0.0,0.0,0.0,0.0,0.0,0.0,-2.8789,-3.3474,-3.6705,-3.9364,-4.044,-3.9248,-3.7038,-3.3502,-2.8322,-2.4603,0.0,0.0,0.0,0.0,0.0,0.0,0.0,0.0,0.0,0.0,0.0,0.0,0.0,0.0,0.0,0.0,0.0,0.0,0.0,0.0,0.0,0.0,0.0,0.0,0.0,0.0,0.0,0.0,0.0,0.0,0.0,0.0,0.0,0.0,0.0,0.0,0.0,0.0,0.0,0.0,0.0,0.0,0.0,0.0,0.0,0.0,0.0,0.0,0.0,0.0,0.0,0.0,0.0,0.0,0.0,0.0,0.0,0.0,0.0,0.0,0.0,0.0,0.0,0.0,0.0,0.0,0.0,0.0,0.0,0.0,0.0,0.0,0.0,0.0,0.0,0.0,0.0,0.0,0.0,0.0,0.0,0.0,0.0,0.0,0.0,0.0,0.0,0.0,0.0,0.0,0.0,0.0,0.0,0.0,0.0,0.0,0.0,0.0,0.0,0.0,0.0,0.0,-3.1205,-3.5938,-3.7652,-3.9667,-4.0562,-3.9727,-3.5836,-3.2021,-2.8734,-2.3322,0.0,0.0,0.0,0.0,0.0,0.0,0.0,0.0,0.0,0.0,0.0,0.0,0.0,0.0,0.0,0.0,0.0,0.0,0.0,0.0,0.0,0.0,0.0,0.0,0.0,0.0,0.0,0.0,0.0,0.0,0.0,0.0,0.0,0.0,0.0,0.0,0.0,0.0,0.0,0.0,0.0,0.0,0.0,0.0,0.0,0.0,0.0,0.0,0.0,0.0,0.0,0.0,0.0,0.0,0.0,0.0,0.0,0.0,0.0,0.0,0.0,0.0,0.0,0.0,0.0,0.0,0.0,0.0,0.0,0.0,0.0,0.0,0.0,0.0,0.0,0.0,0.0,0.0,0.0,0.0,0.0,0.0,0.0,0.0,0.0,0.0,0.0,0.0,0.0,0.0,0.0,0.0,0.0,0.0,0.0,0.0,0.0,0.0,0.0,0.0,0.0,0.0,-3.0765,-3.5348,0.0,-4.0305,-4.0557,-3.8968,-3.675,-3.3079,-2.7524,0.0,0.0,0.0,0.0,0.0,0.0,0.0,0.0,0.0,0.0,0.0,0.0,0.0,0.0,0.0,0.0,0.0,0.0,0.0,0.0,0.0,0.0,0.0,0.0,0.0,0.0,0.0,0.0,0.0,0.0,0.0,0.0,0.0,0.0,0.0,0.0,0.0,0.0,0.0,0.0,0.0,0.0,0.0,0.0,0.0,0.0,0.0,0.0,0.0,0.0,0.0,0.0,0.0,0.0,0.0,0.0,0.0,0.0,0.0,0.0,0.0,0.0,0.0,0.0,0.0,0.0,0.0,0.0,0.0,0.0,0.0,0.0,0.0,0.0,0.0,0.0,0.0,0.0,0.0,0.0,0.0,0.0,0.0,0.0,0.0,0.0,0.0,0.0,0.0,0.0,0.0,0.0,0.0,0.0,0.0,0.0,0.0,0.0,0.0,0.0,0.0,0.0,-2.6284,-3.1269,-3.5761,0.0,-4.0641,-4.0613,-3.8696,-3.682,-3.3144,-2.7038,0.0,0.0,0.0,0.0,0.0,0.0,0.0,0.0,0.0,0.0,0.0,0.0,0.0,0.0,0.0,0.0,0.0,0.0,0.0,0.0,0.0,0.0,0.0,0.0,0.0,0.0,0.0,0.0,0.0,0.0,0.0,0.0,0.0,0.0,0.0,0.0,0.0,0.0,0.0,0.0,0.0,0.0,0.0,0.0,0.0,0.0,0.0,0.0,0.0,0.0,0.0,0.0,0.0,0.0,0.0,0.0,0.0,0.0,0.0,0.0,0.0,0.0,0.0,0.0,0.0,0.0,0.0,0.0,0.0,0.0,0.0,0.0,0.0,0.0,0.0,0.0,0.0,0.0,0.0,0.0,0.0,0.0,0.0,0.0,0.0,0.0,0.0,0.0,0.0,0.0,0.0,0.0,0.0,0.0,0.0,0.0,0.0,0.0,0.0,0.0,0.0,0.0,-2.722,-3.3195,-3.7794,-3.9352,-4.0641,-4.0744,-3.9139,-3.5652,-3.176,0.0,0.0,0.0,0.0,0.0,0.0,0.0,0.0,0.0,0.0,0.0,0.0,0.0,0.0,0.0,0.0,0.0,0.0,0.0,0.0,0.0,0.0,0.0,0.0,0.0,0.0,0.0,0.0,0.0,0.0,0.0,0.0,0.0,0.0,0.0,0.0,0.0,0.0,0.0,0.0,0.0,0.0,0.0,0.0,0.0,0.0,0.0,0.0,0.0,0.0,0.0,0.0,0.0,0.0,0.0,0.0,0.0,0.0,0.0,0.0,0.0,0.0,0.0,0.0,0.0,0.0,0.0,0.0,0.0,0.0,0.0,0.0,0.0,0.0,0.0,0.0,0.0,0.0,0.0,0.0,0.0,0.0,0.0,0.0,0.0,0.0,0.0,0.0,0.0,0.0,0.0,0.0,0.0,0.0,0.0,0.0,0.0,0.0,0.0,0.0,0.0,0.0,0.0,-2.7743,-3.4207,-3.9138,-4.0488,-4.0973,-4.053,-3.8923,-3.6757,-3.2926,-2.6921,0.0,0.0,0.0,0.0,0.0,0.0,0.0,0.0,0.0,0.0,0.0,0.0,0.0,0.0,0.0,0.0,0.0,0.0,0.0,0.0,0.0,0.0,0.0,0.0,0.0,0.0,0.0,0.0,0.0,0.0,0.0,0.0,0.0,0.0,0.0,0.0,0.0,0.0,0.0,0.0,0.0,0.0,0.0,0.0,0.0,0.0,0.0,0.0,0.0,0.0,0.0,0.0,0.0,0.0,0.0,0.0,0.0,0.0,0.0,0.0,0.0,0.0,0.0,0.0,0.0,0.0,0.0,0.0,0.0,0.0,0.0,0.0,0.0,0.0,0.0,0.0,0.0,0.0,0.0,0.0,0.0,0.0,0.0,0.0,0.0,0.0,0.0,0.0,0.0,0.0,0.0,0.0,0.0,0.0,0.0,0.0,0.0,0.0,0.0,0.0,0.0,0.0,-2.8078,-3.4867,-3.9767,-4.0529,-4.0912,-4.0322,-3.8377,-3.7037,-3.3863,-2.8153,0.0,0.0,0.0,0.0,0.0,0.0,0.0,0.0,0.0,0.0,0.0,0.0,0.0,0.0,0.0,0.0,0.0,0.0,0.0,0.0,0.0,0.0,0.0,0.0,0.0,0.0,0.0,0.0,0.0,0.0,0.0,0.0,0.0,0.0,0.0,0.0,0.0,0.0,0.0,0.0,0.0,0.0,0.0,0.0,0.0,0.0,0.0,0.0,0.0,0.0,0.0,0.0,0.0,0.0,0.0,0.0,0.0,0.0,0.0,0.0,0.0,0.0,0.0,0.0,0.0,0.0,0.0,0.0,0.0,0.0,0.0,0.0,0.0,0.0,0.0,0.0,0.0,0.0,0.0,0.0,0.0,0.0,0.0,0.0,0.0,0.0,0.0,0.0,0.0,0.0,0.0,0.0,0.0,0.0,0.0,0.0,0.0,0.0,0.0,0.0,0.0,0.0,-2.8287,-3.5275,-4.001,-4.001,-4.0671,-4.0194,-3.7915,-3.6835,-3.4578,-3.0577,0.0,0.0,0.0,0.0,0.0,0.0,0.0,0.0,0.0,0.0,0.0,0.0,0.0,0.0,0.0,0.0,0.0,0.0,0.0,0.0,0.0,0.0,0.0,0.0,0.0,0.0,0.0,0.0,0.0,0.0,0.0,0.0,0.0,0.0,0.0,0.0,0.0,0.0,0.0,0.0,0.0,0.0,0.0,0.0,0.0,0.0,0.0,0.0,0.0,0.0,0.0,0.0,0.0,0.0,0.0,0.0,0.0,0.0,0.0,0.0,-2.5525,0.0,0.0,0.0,0.0,0.0,0.0,0.0,0.0,0.0,0.0,0.0,0.0,0.0,0.0,0.0,0.0,0.0,0.0,0.0,0.0,0.0,0.0,0.0,0.0,0.0,0.0,0.0,0.0,0.0,0.0,0.0,0.0,0.0,0.0,0.0,0.0,0.0,0.0,0.0,0.0,0.0,-2.8372,-3.5769,-4.0838,-4.0838,-4.1003,-4.0653,-3.9478,-3.7477,-3.4816,-3.136,-3.0063,0.0,0.0,0.0,0.0,0.0,0.0,0.0,0.0,0.0,0.0,0.0,0.0,0.0,0.0,0.0,0.0,0.0,0.0,0.0,0.0,0.0,0.0,0.0,0.0,0.0,0.0,0.0,0.0,0.0,0.0,0.0,0.0,0.0,0.0,0.0,0.0,0.0,0.0,0.0,0.0,0.0,0.0,0.0,0.0,0.0,0.0,0.0,0.0,0.0,0.0,0.0,0.0,0.0,0.0,0.0,0.0,0.0,0.0,0.0,0.0,-2.6268,0.0,0.0,0.0,0.0,0.0,0.0,0.0,0.0,0.0,0.0,0.0,0.0,0.0,0.0,0.0,0.0,0.0,0.0,0.0,0.0,0.0,0.0,0.0,0.0,0.0,0.0,0.0,0.0,0.0,0.0,0.0,0.0,0.0,0.0,0.0,0.0,0.0,0.0,0.0,0.0,-3.1224,-3.7186,-4.0948,-4.0561,-4.0873,-4.0469,-3.8888,-3.7603,-3.5987,-3.3894,-3.2247,0.0,0.0,0.0,0.0,0.0,0.0,0.0,0.0,0.0,0.0,0.0,0.0,0.0,0.0,0.0,0.0,0.0,0.0,0.0,0.0,0.0,0.0,0.0,0.0,0.0,0.0,0.0,0.0,0.0,0.0,0.0,0.0,0.0,0.0,0.0,0.0,0.0,0.0,0.0,0.0,0.0,0.0,0.0,0.0,0.0,0.0,0.0,0.0,0.0,0.0,0.0,0.0,0.0,0.0,0.0,-3.2763,-3.2882,-3.2138,-3.0685,-2.9616,-2.9937,-3.097,0.0,0.0,0.0,0.0,0.0,0.0,0.0,0.0,0.0,0.0,0.0,0.0,0.0,0.0,0.0,0.0,0.0,0.0,0.0,0.0,0.0,0.0,0.0,0.0,0.0,-3.6417,-3.5736,0.0,0.0,0.0,0.0,0.0,0.0,0.0,0.0,0.0,0.0,0.0,0.0,-3.4335,-3.8563,-4.091,-4.0359,-4.0799,-4.0288,-3.83,-3.7731,-3.7217,-3.6556,-3.4468,-3.2944,0.0,0.0,0.0,0.0,0.0,0.0,0.0,0.0,0.0,0.0,0.0,0.0,0.0,0.0,0.0,0.0,0.0,0.0,0.0,0.0,0.0,0.0,0.0,0.0,0.0,0.0,0.0,0.0,0.0,0.0,0.0,0.0,-1.9578,-2.3472,0.0,0.0,0.0,0.0,0.0,0.0,0.0,0.0,0.0,0.0,0.0,0.0,0.0,0.0,-3.3592,-3.4433,-3.5876,-3.7838,-3.9225,-3.9563,-3.8946,-3.9597,-3.9073,-3.7567,-3.5487,0.0,-3.1258,-3.2053,0.0,0.0,0.0,0.0,0.0,0.0,0.0,0.0,0.0,0.0,0.0,0.0,0.0,0.0,0.0,0.0,0.0,0.0,0.0,0.0,0.0,0.0,-3.8655,-3.9409,-3.968,-3.9697,0.0,-3.4688,-3.0238,-2.9583,0.0,0.0,0.0,0.0,0.0,0.0,0.0,0.0,-3.4729,-3.8563,-4.1315,-4.1919,-4.146,-4.0967,-4.0636,-3.8689,-3.7456,-3.7345,-3.6376,-3.5752,-3.5661,-3.3697,0.0,0.0,0.0,0.0,0.0,0.0,0.0,0.0,0.0,0.0,0.0,0.0,0.0,0.0,0.0,0.0,0.0,0.0,0.0,0.0,0.0,0.0,0.0,0.0,0.0,0.0,0.0,0.0,0.0,-2.0479,-2.3621,-2.647,-2.6034,-2.5311,0.0,0.0,0.0,0.0,0.0,0.0,0.0,0.0,0.0,-3.251,-3.3829,-3.5504,-3.7642,-3.9208,-4.0468,-4.1491,-4.2591,-4.2929,-4.2625,-4.2506,-4.2083,-4.1407,-3.9986,-3.8396,-3.6671,-3.4793,-3.3136,-3.165,0.0,0.0,0.0,0.0,0.0,0.0,-2.955,0.0,0.0,0.0,0.0,0.0,0.0,0.0,0.0,0.0,0.0,0.0,0.0,0.0,0.0,-4.1013,-4.1774,-4.2155,-4.2399,-3.9666,-3.6469,0.0,-3.2744,-3.0997,-2.7731,0.0,0.0,0.0,0.0,0.0,-3.7976,-4.038,-4.1919,-4.2268,-4.1572,-4.0912,-4.0469,-3.9038,-3.8175,-3.8175,-3.7845,-3.7661,-3.7661,-3.6615,-3.5,0.0,0.0,0.0,0.0,0.0,0.0,0.0,0.0,0.0,0.0,0.0,0.0,0.0,0.0,0.0,0.0,0.0,0.0,0.0,0.0,0.0,0.0,0.0,0.0,0.0,0.0,0.0,0.0,-2.4116,-2.6787,-2.8753,-2.8975,-2.8602,0.0,0.0,0.0,0.0,0.0,0.0,-3.1765,-3.3017,-3.468,-3.6705,-3.843,-4.002,-4.1534,-4.3166,-4.4096,-4.4299,-4.506,-4.5331,-4.5156,-4.4536,-4.4062,-4.3673,-4.2912,-4.2151,-4.1187,-3.7466,-3.5165,-3.3969,-3.3376,-3.1309,0.0,-3.0818,-3.1157,-3.1024,-3.3241,-3.4866,-3.5926,-3.5926,0.0,-3.5548,-3.4925,0.0,0.0,0.0,0.0,-3.4005,-3.5864,0.0,-4.0059,-4.2107,-4.3057,-4.3515,-4.3515,-4.302,-4.1594,0.0,-3.7009,-3.5549,-3.2311,0.0,0.0,0.0,0.0,-3.7055,-4.0912,-4.1937,-4.2378,-4.2598,-4.1699,-4.0857,-4.0267,-3.9276,-3.8707,-3.8707,-3.8707,-3.8707,-3.8707,-3.8707,-3.7551,-3.511,0.0,0.0,0.0,0.0,0.0,0.0,0.0,0.0,0.0,0.0,0.0,0.0,0.0,0.0,0.0,0.0,0.0,0.0,0.0,0.0,0.0,0.0,0.0,0.0,0.0,0.0,0.0,0.0,0.0,-2.8739,-3.2645,0.0,0.0,0.0,0.0,-3.0021,-3.1309,-3.3444,-3.6321,-3.7195,-3.9276,-4.2834,-4.3054,-4.3849,-4.5415,-4.5534,-4.594,-4.6633,-4.7394,-4.7378,-4.6684,-4.6633,-4.5855,-4.4513,-4.369,-4.2929,-4.2117,-4.0502,-3.9368,-3.8447,-3.6299,-3.4895,-3.4201,-3.5008,-3.5295,-3.5583,-3.7872,-3.9182,-3.9825,-3.9825,-3.9351,-3.8347,-3.6053,-3.5265,0.0,0.0,-3.4724,-3.7751,-3.7196,-4.0125,-4.3277,-4.3406,-4.3478,-4.3515,-4.3515,-4.3478,-4.3149,0.0,-4.1334,-4.0013,-3.7551,0.0,-3.9735,-3.7639,-3.9258,-4.1095,-4.2121,-4.2268,-4.2598,-4.3368,-4.2047,-4.1077,-4.104,-3.9591,-3.8707,-3.8707,-3.8707,-3.8707,-3.8707,-3.8707,-3.8615,-3.8469,-3.4601,0.0,0.0,0.0,0.0,0.0,0.0,0.0,0.0,0.0,0.0,0.0,0.0,0.0,0.0,0.0,0.0,0.0,0.0,0.0,0.0,0.0,0.0,0.0,0.0,0.0,0.0,0.0,0.0,-3.2933,-3.5537,0.0,0.0,-3.5554,-3.5977,-3.5182,-3.7821,-3.9918,-4.1001,-4.2252,-4.3538,-4.4857,-4.5793,-4.6553,-4.7124,-4.7597,-4.7953,-4.8223,-4.8494,-4.8477,-4.8206,-4.7733,-4.6972,-4.5957,-4.5213,-4.4468,-4.3718,-4.2642,-4.1508,-4.0341,-3.9529,-3.8751,-3.8149,-3.8396,-3.8497,-3.8608,-3.9411,-3.9893,-4.0096,-4.0096,-3.9926,-3.961,-3.9083,-3.8937,-3.8842,-3.8375,-3.9621,-4.1035,-4.0764,-4.2084,-4.3515,-4.3515,-4.3515,-4.3515,-4.3515,-4.3515,-4.3423,-4.313,-4.2415,-4.1607,-4.0744,-4.0873,-4.0802,-3.9955,-4.1001,-4.1992,-4.2268,-4.2745,-4.3167,-4.3478,-4.2525,-4.1645,-4.1132,-4.0102,-3.9239,-3.8726,-3.8707,-3.8707,-3.8707,-3.8707,-3.8707,-3.8707,-3.7276,-3.4321,0.0,0.0,0.0,0.0,0.0,0.0,0.0,0.0,0.0,0.0,0.0,0.0,0.0,0.0,0.0,0.0,0.0,0.0,0.0,0.0,0.0,0.0,0.0,0.0,0.0,0.0,-3.41,-3.5808,-3.8684,-3.9952,-3.8413,-3.9868,-4.0696,-4.0189,-4.3132,-4.5015,-4.5297,-4.6498,-4.731,-4.7564,-4.8274,-4.8646,-4.8646,-4.8883,-4.9001,-4.9001,-4.9001,-4.9001,-4.8968,-4.7986,-4.7259,-4.6735,-4.5754,-4.5043,-4.4564,-4.4012,-4.3234,-4.2269,-4.1508,-4.0747,-4.0096,-4.0096,-4.0087,-4.0104,-4.0113,-4.0096,-4.0096,-4.0096,-4.0096,-4.0229,-4.099,-4.1183,-4.138,-4.2147,-4.2657,-4.2976,-4.2976,-4.3232,-4.3515,-4.3515,-4.3515,-4.3515,-4.3515,-4.3515,-4.3515,-4.3515,-4.3057,-4.2359,-4.1277,-4.0653,-3.9903,-3.8802,-3.9093,-3.9423,-3.9423,-4.0873,-4.1882,-4.1882,-4.2121,-4.1974,-4.1168,-3.935,-3.8377,-3.8689,-3.7661,-3.7551,-3.8652,-3.7643,-3.7055,-3.7055,-3.5716,-3.344,-3.0198,0.0,0.0,0.0,0.0,0.0,0.0,0.0,0.0,0.0,0.0,0.0,0.0,0.0,0.0,0.0,0.0,0.0,0.0,0.0,0.0,0.0,0.0,0.0,-3.036,-3.4975,-3.7821,-3.7252,-4.2286,-4.4688,-4.1762,-4.4773,-4.6295,-4.4886,-4.6786,-4.8294,-4.9035,-4.9712,-5.0422,-5.115,-5.0439,-5.005,-5.005,-4.9357,-4.9001,-4.9001,-4.9001,-4.8984,-4.8917,-4.7479,-4.6802,-4.6684,-4.5258,-4.4632,-4.4615,-4.4615,-4.4598,-4.4361,-4.2151,-4.0865,-4.0248,-4.0214,-4.018,-4.0146,-4.0163,-4.0146,-4.0096,-4.013,-4.0155,-4.037,-4.1464,-4.1828,-4.208,-4.3196,-4.3515,-4.3515,-4.3515,-4.3515,-4.3515,-4.3515,-4.3515,-4.3515,-4.3515,-4.3533,-4.3551,-4.3551,-4.357,-4.2561,-3.9405,-3.8854,-3.7771,-3.4578,-3.41,0.0,-3.41,-3.689,-3.8817,-3.8762,-4.091,-4.1992,-4.1095,-3.7444,-3.6215,-3.8597,-3.5734,-3.5385,-3.8579,-3.5642,-3.3954,-3.3954,-3.0026,-2.9512,-3.2619,0.0,0.0,0.0,0.0,0.0,0.0,0.0,0.0,0.0,0.0,0.0,0.0,0.0,0.0,0.0,0.0,0.0,0.0,0.0,0.0,0.0,0.0,-3.5342,-3.6501,-3.9226,-4.2219,-4.528,-4.7564,-4.8545,-4.7716,-4.8578,-4.9018,-4.8612,-4.9661,-5.0373,-5.0559,-5.027,-5.0185,-5.0388,-4.9678,-4.9306,-4.9306,-4.9103,-4.9001,-4.9001,-4.9001,-4.8731,-4.8176,-4.78,-4.7022,-4.5974,-4.5568,-4.5077,-4.4615,-4.4615,-4.4248,-4.3741,-4.3673,-4.3548,-4.3295,-4.2709,-4.183,-4.0967,-4.1491,-4.0993,-4.0197,-4.0713,-4.1221,-4.1652,-4.1771,-4.2495,-4.3338,-4.3468,-4.3515,-4.3515,-4.3515,-4.3515,-4.3515,-4.3515,-4.3515,-4.3515,-4.3515,-4.3956,-4.4378,-4.4378,-4.4837,-4.458,-4.2525,-4.2176,-4.1864,-4.0965,0.0,0.0,-4.0818,-4.1607,-4.1497,-3.9753,-4.1717,-4.2139,-3.9588,-3.9389,-3.9478,0.0,-3.8175,-3.7771,-3.867,-3.7826,-3.7349,-3.7349,-3.3935,-3.2596,0.0,0.0,0.0,0.0,0.0,0.0,0.0,0.0,0.0,0.0,0.0,0.0,0.0,0.0,0.0,0.0,0.0,0.0,0.0,0.0,0.0,0.0,-3.6191,-4.037,-4.2834,-4.4299,-4.6194,-4.9103,-5.0371,-5.1014,-5.1014,-5.1606,-5.1978,-5.1978,-5.2384,-5.2621,-5.2621,-5.1928,-5.1522,-5.1522,-5.0777,-5.0236,-4.9932,-4.9627,-4.9306,-4.9001,-4.9001,-4.8781,-4.8359,-4.8024,-4.7415,0.0,-4.6295,-4.5923,-4.5512,-4.5179,-4.479,0.0,0.0,0.0,0.0,0.0,-4.2405,-4.1711,-4.2151,-4.1728,-4.1146,-4.1852,-4.2117,-4.2218,-4.2576,-4.3035,-4.3405,-4.3485,-4.3515,-4.3515,-4.3515,-4.3515,-4.3515,-4.3515,-4.3515,-4.3589,-4.392,-4.4378,-4.4691,-4.4691,0.0,0.0,-4.3735,-4.267,-4.1405,-3.968,-3.9439,-3.9439,0.0,-4.0634,-4.0946,-3.9551,-4.1846,-4.2598,-4.0396,-3.9827,0.0,0.0,0.0,-3.7533,-3.7169,-3.6835,0.0,0.0,0.0,-3.2797,0.0,0.0,0.0,0.0,-3.1843,-3.0675,0.0,0.0,0.0,0.0,0.0,0.0,0.0,0.0,0.0,0.0,0.0,0.0,0.0,0.0,0.0,0.0,-3.8942,-4.3792,-4.868,-4.9458,-4.9746,-5.0405,-5.1708,-5.2553,-5.2553,-5.3873,-5.4685,-5.46,-5.4583,-5.4549,-5.4465,0.0,0.0,0.0,0.0,-5.1826,-5.1067,-5.0422,-4.9729,-4.9001,-4.9001,-4.8968,-4.8849,-4.8206,-4.7838,-4.772,-4.7005,-4.6718,-4.6735,-4.5906,-4.5585,-4.5449,-4.4079,-4.3149,-4.254,-4.2455,-4.2422,0.0,0.0,0.0,0.0,-4.3172,-4.2933,-4.2527,-4.3584,-4.3437,-4.301,-4.3393,-4.3515,-4.3515,-4.3515,-4.3515,-4.3533,-4.3608,-4.3626,-4.3864,-4.4672,-4.4911,-4.4929,-4.4856,-4.4911,-4.469,-4.3791,-4.1789,-3.9056,-3.544,-3.489,0.0,-3.489,-3.7441,-3.9148,-3.8872,0.0,0.0,-4.2103,-3.9585,-3.8946,-4.1095,-3.8469,-3.6505,-3.572,-3.5,-3.3623,-3.1476,-3.073,-3.2491,-3.6835,-3.605,-3.7554,-4.093,-3.4357,-3.2858,0.0,0.0,0.0,0.0,0.0,0.0,0.0,0.0,0.0,0.0,0.0,0.0,0.0,0.0,0.0,-4.0388,-4.4685,-4.8477,-5.1268,-5.2232,-5.2689,-5.2824,-5.3619,-5.4143,-5.4143,-5.4955,-5.5243,-5.4634,-5.4583,-5.4329,-5.3737,-5.2959,0.0,-5.2536,-5.1809,-5.1065,-5.0321,-5.0168,-4.9729,-4.9001,0.0,0.0,-4.8122,-4.7956,-4.7581,-4.6972,-4.6227,-4.6244,-4.6684,-4.5348,-4.479,-4.4801,-4.4468,-4.4293,-4.409,-4.3436,-4.32,-4.32,-4.32,-4.2811,-4.2504,-4.3776,-4.3971,-4.3748,-4.3847,-4.4086,0.0,-4.3645,-4.3515,-4.3515,-4.3515,-4.3515,-4.3644,-4.4305,-4.447,-4.469,-4.5498,-4.6177,-4.6434,-4.5792,-4.6195,-4.6159,-4.4727,-4.3534,-4.2542,-4.1735,-4.1623,-4.1623,-4.1623,-4.2176,-4.1827,-3.9882,-4.1956,-4.2652,-4.0543,-4.0983,-4.157,-4.2047,-4.0873,-4.0086,-3.9921,-3.9774,-3.9462,-3.9004,-3.8839,-3.9224,-4.0159,-3.9994,-4.0325,-4.104,-3.8982,-3.8707,0.0,0.0,0.0,0.0,0.0,0.0,0.0,0.0,0.0,0.0,0.0,-3.1653,0.0,0.0,-4.0953,-4.3787,-4.7545,-5.0625,-5.2097,-5.2993,-5.3636,-5.4008,-5.438,-5.4735,-5.5108,-5.5497,-5.5564,-5.5192,-5.4803,-5.4431,-5.4059,-5.3315,-5.2909,-5.2909,-5.2164,-5.1403,-5.0659,-5.027,-4.9729,-4.9001,-4.9001,-4.8815,-4.846,-4.846,-4.8257,-4.7885,-4.7513,-4.7564,-4.7784,-4.6295,-4.5275,-4.4615,-4.4615,-4.4615,-4.4564,-4.4147,-4.4181,-4.4453,-4.4453,-4.4415,-4.451,-4.5558,-4.5561,-4.5101,-4.4935,-4.4821,-4.4544,-4.3718,-4.3515,-4.3515,-4.3515,-4.3515,-4.3606,-4.3993,-4.4415,-4.4929,-4.5736,-4.6214,-4.6507,-4.6507,-4.6507,-4.625,-4.5443,-4.4635,-4.3956,-4.3552,-4.3515,-4.3515,-4.3515,-4.3515,-4.3037,-4.1827,-4.278,-4.3019,-4.1791,-4.2433,-4.2892,-4.2892,-4.2158,-4.1699,-4.1699,-4.1297,-4.1279,-4.1682,-4.1297,-4.1515,-4.2304,-4.1901,-4.1919,-4.2286,-4.1479,-4.1111,0.0,0.0,0.0,0.0,0.0,0.0,0.0,0.0,-3.0716,-3.3387,-3.5035,-3.668,-3.8863,-4.1877,-4.4716,-4.6862,-4.9593,-5.1742,-5.2621,-5.3179,-5.3721,-5.4313,-5.4499,-5.482,-5.5446,-5.5632,-5.5649,-5.5513,-5.4938,-5.4532,-5.438,-5.3822,-5.3501,-5.3501,-5.2875,-5.2114,-5.1217,-5.0608,-4.9864,-4.9001,-4.9001,-4.9001,-4.9001,-4.9001,-4.9001,-4.9001,-4.8849,-4.8629,-4.8274,-4.7225,-4.5923,-4.4615,-4.4767,-4.4733,-4.4581,-4.4429,-4.477,-4.5329,-4.5286,-4.561,-4.6192,-4.7106,-4.6758,-4.6023,-4.6119,-4.5571,-4.4782,-4.3956,-4.3863,-4.3937,-4.3754,-4.3846,-4.401,-4.4158,-4.469,-4.5388,-4.6195,-4.6361,-4.6507,-4.7003,-4.6452,-4.5847,-4.5681,-4.5002,-4.4305,-4.3809,-4.3606,-4.3515,-4.3515,-4.3515,-4.3515,-4.3515,-4.3515,-4.3515,-4.3515,-4.3515,-4.3515,-4.3515,-4.2892,-4.2525,-4.2525,-4.1919,-4.1882,-4.2525,-4.1901,-4.2194,-4.3515,-4.2837,-4.2873,-4.3478,-4.2837,-4.2194,-2.2293,-2.2168,-2.3236,-2.5102,-2.6506,-2.9405,0.0,0.0,-3.8597,-4.3137,-4.4727,-4.56,-4.6528,-4.7588,-4.9244,-5.2164,-5.2384,-5.2689,-5.4126,-5.3856,-5.3534,-5.3619,-5.4194,-5.4617,-5.4718,-5.5327,-5.5446,-5.4769,-5.4634,-5.4296,-5.367,-5.3551,-5.3501,-5.3501,-5.3416,-5.2672,-5.1202,-5.1133,-5.0388,-4.9001,-4.9001,-4.9001,-4.9001,-4.9001,-4.9001,-4.8968,-4.8325,-4.7293,-4.6109,-4.6599,-4.5923,-4.4682,-4.5314,-4.5179,-4.4513,-4.3809,-4.4033,-4.4674,-4.457,-4.4638,-4.5106,-4.6819,-4.6462,-4.5517,-4.6642,-4.6397,-4.5608,-4.48,-4.5076,-4.5461,-4.4764,-4.5094,-4.581,-4.6526,-4.6764,-4.7039,-4.7865,-4.8031,-4.7865,-4.7223,-4.6452,-4.5663,-4.4966,-4.4176,-4.3846,-4.447,-4.3956,-4.3515,-4.3515,-4.3515,-4.3515,-4.3515,-4.3515,-4.3515,-4.3515,-4.3515,-4.3515,-4.3515,-4.3423,-4.3369,-4.3369,-4.3277,-4.3276,-4.3368,-4.3277,-4.3331,-4.3515,-4.3423,-4.3423,-4.3515,-4.3423,-4.3331,-2.6741,-2.6867,-2.7854,0.0,-3.4014,-3.6472,-4.1624,-4.3421,-4.4665,-4.7111,-4.8883,-5.0101,-5.0405,-5.1454,-5.2672,0.0,-5.3856,-5.3856,-5.4499,-5.3551,-5.2655,-5.2215,-5.2435,-5.2976,-5.3873,-5.4245,-5.4296,-5.3974,-5.3957,-5.3822,-5.3518,-5.3501,-5.3501,-5.3501,-5.3061,-5.2503,-5.186,-5.1388,-5.0693,-4.9644,-4.9644,-4.9424,-4.9001,-4.9001,-4.9001,-4.8984,-4.868,-4.7699,-4.6363,-4.6667,-4.5923,-4.4632,-4.4925,-4.4886,-4.4564,-4.4215,-4.4524,-4.5117,-4.507,-4.5571,-4.6353,-4.715,-4.7214,-4.7016,-4.7071,-4.6856,-4.6415,-4.5626,-4.5296,-4.5241,-4.5369,-4.5296,-4.5406,-4.6214,-4.6746,-4.7186,-4.7516,-4.759,-4.7626,-4.7755,-4.7168,-4.6654,-4.6783,-4.614,-4.5553,-4.5424,-4.4305,-4.3515,-4.3515,-4.3515,-4.3515,-4.3515,-4.3515,-4.3515,-4.3515,-4.3515,-4.3515,-4.3515,-4.3515,-4.3515,-4.3515,-4.3515,-4.3515,-4.3515,-4.3515,-4.3515,-4.3515,-4.3515,-4.3515,-4.3515,-4.3515,-4.3515,-2.9041,0.0,0.0,-3.7074,-4.0233,-4.2817,-4.549,-4.7499,-4.9103,-5.005,-5.1522,-5.2638,-5.2638,-5.3534,-5.4346,-5.4566,-5.4431,-5.4296,-5.4296,-5.2976,-5.1657,-5.0727,-5.0422,-5.0828,-5.2131,-5.2638,-5.2959,-5.3162,-5.3179,-5.3264,-5.3501,-5.3501,-5.3501,-5.3501,-5.2942,-5.252,-5.23,-5.1775,-5.1031,-5.0084,-5.0084,-4.9712,-4.9001,-4.9001,-4.89,-4.8697,-4.8477,-4.7665,-4.6481,-4.6261,-4.5579,-4.4615,-4.4615,-4.4615,-4.4615,-4.4615,-4.4896,-4.5284,-4.5433,-4.6088,-4.6932,-4.7299,-4.7695,-4.7965,-4.7552,-4.7424,-4.7259,-4.6471,-4.5975,-4.5792,-4.614,-4.5975,-4.5847,-4.6416,-4.7021,-4.7424,-4.7424,-4.7424,-4.759,-4.8196,-4.7645,-4.7278,-4.7865,-4.7296,-4.6562,-4.5993,-4.4911,-4.3993,-4.357,-4.3515,-4.3515,-4.3515,-4.3515,-4.3515,-4.3515,-4.3515,-4.3515,-4.3515,-4.3515,-4.3515,-4.3515,-4.3515,-4.3515,-4.3515,-4.3515,-4.3515,-4.3515,-4.3515,-4.3515,-4.3515,-4.3515,-4.3515,-2.6965,0.0,-3.3981,-3.8129,-4.2916,-4.7179,-4.941,-5.0526,-5.1506,-5.3061,-5.3416,-5.3467,-5.3467,-5.3501,-5.3771,-5.4482,-5.3991,-5.3534,-5.3534,-5.2215,-5.071,-4.9238,-4.846,-4.8308,0.0,-5.0439,-5.1589,-5.2283,-5.2334,-5.2689,-5.3467,-5.3501,-5.3501,-5.3501,-5.3484,-5.3095,-5.2317,-5.2283,-5.1539,-5.0084,-5.0084,-4.9712,-4.9001,-4.9001,-4.8612,-4.7872,-4.7175,-4.643,-4.5686,-4.4942,-4.4649,-4.4615,-4.4615,-4.4615,-4.4615,-4.4615,-4.4598,-4.472,-4.5294,-4.5537,-4.5757,-4.6995,-4.7406,-4.753,-4.8096,-4.8269,-4.8104,-4.7278,-4.7608,-4.8031,-4.7259,-4.7608,-4.8214,-4.8233,-4.8251,-4.8269,-4.8269,-4.8269,-4.8269,-4.8306,-4.7645,-4.7113,-4.7131,-4.6471,-4.592,-4.5902,-4.5865,-4.5259,-4.3699,-4.3515,-4.3515,-4.3515,-4.3515,-4.3515,-4.3515,-4.3515,-4.3515,-4.3515,-4.3515,-4.3515,-4.3515,-4.3515,-4.3515,-4.3515,-4.3515,-4.3515,-4.3515,-4.3515,-4.3515,-4.3515,-4.3515,-4.3515,-3.1647,0.0,-3.8588,-4.3175,-4.633,-4.908,-5.2007,-5.2551,-5.2594,-5.3348,-5.1226,-4.8951,-4.7962,-4.6589,-4.6471,-4.9169,-5.0129,-5.1217,-5.323,-5.2604,-5.1031,-4.8578,-4.8494,0.0,0.0,0.0,0.0,-5.1488,-5.2029,-5.2418,-5.2689,-5.3213,-5.3501,-5.3501,-5.3501,-5.3365,-5.3112,-5.3095,-5.2587,-5.1555,-5.0557,-4.9712,-4.9001,-4.9001,-4.8612,-4.7872,-4.7648,-4.6836,-4.5686,-4.5432,-4.5026,-4.4615,-4.4615,-4.4615,-4.4615,-4.4615,-4.4615,-4.4626,-4.4841,-4.5433,-4.6167,-4.6594,-4.7302,-4.8035,-4.8248,-4.8306,-4.8251,-4.7957,-4.77,-4.7553,-4.7828,-4.77,-4.7626,-4.8177,-4.8306,-4.8306,-4.8306,-4.8306,-4.8306,-4.8306,-4.8067,-4.7901,-4.7901,-4.7682,-4.7315,-4.6764,-4.5792,-4.4911,-4.4378,-4.3828,-4.3515,-4.3515,-4.3515,-4.3515,-4.3515,-4.3515,-4.3515,-4.3515,-4.3515,-4.3515,-4.3515,-4.3515,-4.3515,-4.3515,-4.3515,-4.3515,-4.3515,-4.3515,-4.3515,-4.3515,-4.3515,-4.3515,-3.5277,-3.8816,-4.2103,-4.7231,-4.9391,-5.0948,-5.3605,-5.3361,-5.215,-5.0742,-4.786,-4.4843,-4.2377,-4.0685,-4.0877,-4.456,-4.6202,-4.8156,-5.1437,-5.1234,-5.0135,-4.8511,-4.8494,0.0,0.0,0.0,0.0,-5.0727,-5.1488,-5.2029,-5.2283,-5.3061,-5.3501,-5.3501,-5.3501,-5.3501,-5.3501,-5.3501,-5.2959,-5.1894,-5.0676,-4.9712,-4.9001,-4.9001,-4.846,-4.7513,-4.7513,-4.6684,-4.5314,-4.5314,-4.501,-4.4615,-4.4615,-4.4615,-4.4615,-4.4615,-4.4615,-4.4626,-4.4841,-4.5398,-4.6059,-4.6598,-4.7072,-4.7498,-4.7792,-4.7865,-4.7865,-4.7865,-4.77,-4.7645,-4.8177,-4.7921,-4.7663,-4.8196,-4.8306,-4.8306,-4.8306,-4.8306,-4.8306,-4.8306,-4.8306,-4.8306,-4.8306,-4.8306,-4.8122,-4.7608,-4.6159,-4.5021,-4.4745,-4.425,-4.3809,-4.3533,-4.3515,-4.3515,-4.3515,-4.3515,-4.3515,-4.3515,-4.3515,-4.3515,-4.3515,-4.3515,-4.3515,-4.3515,-4.3515,-4.3515,-4.3515,-4.3515,-4.3515,-4.3515,-4.3515,-4.3515,-3.7778,-4.1437,-4.4601,-5.0103,-5.1885,-5.2674,-5.4173,-5.2905,-5.0124,-4.5779,-4.3459,-4.0939,0.0,0.0,-3.7095,-4.0877,-4.2639,-4.4857,-4.8646,-4.8612,-4.8379,0.0,0.0,0.0,0.0,0.0,0.0,-5.0101,0.0,-5.1539,-5.2266,-5.3061,-5.3501,-5.3501,-5.3501,-5.3501,-5.3501,-5.3501,-5.2756,-5.1236,-5.0507,-4.9763,-4.9069,-4.9018,-4.8189,-4.6786,-4.6786,-4.5957,-4.4615,-4.4615,-4.4615,-4.4615,-4.4615,-4.4615,-4.4615,-4.4615,-4.4615,-4.4709,-4.5294,-4.5393,-4.5508,-4.6898,-4.6759,-4.6177,-4.6929,-4.7168,-4.7168,-4.7168,-4.77,-4.8306,-4.8306,-4.8306,-4.8306,-4.8306,-4.8306,-4.8306,-4.8306,-4.8306,-4.8306,-4.8306,-4.8306,-4.8306,-4.8306,-4.8306,-4.8306,-4.8306,-4.7003,-4.5718,-4.4856,-4.469,-4.436,-4.3588,-4.3515,-4.3515,-4.3515,-4.3515,-4.3515,-4.3515,-4.3515,-4.3515,-4.3515,-4.3515,-4.3515,-4.3515,-4.3515,-4.3515,-4.3515,-4.3515,-4.3515,-4.3515,-4.3515,-4.3515,-4.2357,-4.6037,-4.881,-5.0786,-5.1588,-5.2251,-5.3359,-4.9475,-4.5212,-4.376,-3.7663,-3.1974,0.0,0.0,0.0,-3.7857,-4.2278,0.0,-5.0862,-5.1809,0.0,-4.9999,0.0,-5.0152,-4.9593,-4.9712,0.0,0.0,-5.1099,-5.1539,-5.2266,-5.3061,-5.3501,-5.3501,-5.3501,-5.3501,-5.3501,-5.3501,-5.301,-5.2012,-5.1285,-5.0541,-4.9796,-4.9255,-4.8189,-4.6786,-4.6786,-4.5957,-4.4615,-4.4615,-4.4615,-4.4615,-4.4615,-4.4615,-4.4615,-4.4615,-4.4615,-4.4709,-4.5294,-4.5768,-4.6165,-4.6523,-4.7117,-4.7737,-4.7939,-4.7975,-4.7975,-4.7975,-4.8141,-4.8306,-4.8306,-4.8306,-4.8306,-4.8306,-4.8306,-4.8306,-4.8306,-4.8306,-4.8306,-4.8306,-4.8306,-4.8306,-4.8306,-4.8306,-4.8306,-4.8306,-4.7957,-4.7186,-4.5773,-4.4544,-4.3718,-4.3533,-4.3515,-4.3515,-4.3515,-4.3515,-4.3515,-4.3515,-4.3515,-4.3515,-4.3515,-4.3515,-4.3515,-4.3515,-4.3515,-4.3515,-4.3515,-4.3515,-4.3515,-4.3515,-4.3515,-4.3515,-4.6127,-4.8776,-5.0543,-5.2001,-5.1531,-5.0546,-5.0039,-4.5767,-4.0685,-3.6439,-3.0719,0.0,0.0,0.0,0.0,0.0,0.0,0.0,-5.0135,-5.1522,-5.1775,0.0,-5.1437,0.0,-5.0659,-5.0879,-5.1234,0.0,-5.1691,-5.186,-5.2283,-5.3061,-5.3501,-5.3501,-5.3501,-5.3501,-5.3501,-5.3162,-5.2756,-5.23,-5.1555,-5.0811,-5.0084,-4.9661,-4.8494,-4.6786,0.0,-4.5957,-4.4615,-4.4615,-4.4615,-4.4615,-4.4615,-4.4615,-4.4615,-4.4615,-4.4615,-4.4654,-4.4998,-4.5656,-4.6454,-4.6733,-4.6834,-4.6972,-4.7587,-4.7755,-4.7755,-4.7755,-4.8031,-4.8306,-4.8306,-4.8306,-4.8306,-4.8306,-4.8306,-4.8306,-4.8306,-4.86,-4.8875,-4.8875,-4.8563,-4.8306,-4.8306,-4.8306,-4.8306,-4.8306,-4.8012,-4.7443,-4.6544,-4.5333,-4.4268,-4.3588,-4.3515,-4.3515,-4.3515,-4.3515,-4.3515,-4.3515,-4.3515,-4.3515,-4.3515,-4.3515,-4.3515,-4.3515,-4.3515,-4.3515,-4.3515,-4.3515,-4.3515,-4.3515,-4.3515,-4.3515,-4.8985,-5.045,-5.1102,-5.3285,-5.1622,-4.8748,-4.5873,-4.1814,-3.6199,-2.7566,0.0,-2.2096,-2.166,-2.2257,-2.5832,-3.5058,0.0,-4.2443,-4.8595,-4.9982,-5.0913,-5.23,-5.2469,-5.2215,-5.1589,-5.2097,-5.2469,-5.2469,-5.2469,-5.2469,-5.2469,-5.3129,-5.3501,-5.3501,-5.3501,-5.3501,-5.3501,-5.2807,-5.2469,-5.2452,-5.1708,-5.0963,-5.0236,-5.0135,-4.8934,-4.6938,0.0,0.0,-4.475,-4.4649,-4.4615,-4.4615,-4.4615,-4.4615,-4.4615,-4.4615,-4.4615,-4.4598,-4.4692,-4.5346,-4.6288,-4.7039,-4.6425,-4.5673,-4.6888,-4.7259,-4.7259,-4.7259,-4.7755,-4.8306,-4.8306,-4.8306,-4.8343,-4.8453,-4.8471,-4.8508,-4.8618,-4.9132,-4.9629,-4.9739,-4.8967,-4.8343,-4.8453,-4.8379,-4.8306,-4.8306,-4.77,-4.7223,-4.7113,-4.6305,-4.5204,-4.3809,-4.3552,-4.3515,-4.3515,-4.3515,-4.3515,-4.3515,-4.3515,-4.3515,-4.3515,-4.3515,-4.3515,-4.3515,-4.3515,-4.3515,-4.3515,-4.3515,-4.3515,-4.3515,-4.3515,-4.3515,-5.0212,-5.1843,-5.2759,-5.3209,-5.1911,-4.9268,-4.4372,-3.7744,0.0,0.0,-2.0527,-1.8435,-2.049,-2.2857,-2.7655,-3.7344,0.0,0.0,0.0,0.0,-5.2266,0.0,0.0,0.0,0.0,0.0,0.0,0.0,0.0,0.0,-5.3298,-5.3433,-5.3501,-5.3501,-5.3501,-5.3501,-5.3501,-5.3365,-5.3298,-5.3281,-5.2486,-5.1725,-5.0997,-5.0371,-4.9221,-4.7699,0.0,0.0,-4.5466,-4.4869,-4.4615,-4.4615,-4.4615,-4.4615,-4.4615,-4.4615,-4.4615,-4.4682,-4.5152,-4.5152,-4.5089,-4.6192,-4.7101,-4.7769,-4.8011,-4.8104,-4.8104,-4.8104,-4.8196,-4.8306,-4.8306,-4.8306,-4.8489,-4.9187,-4.9372,-4.9554,-5.0215,-4.9958,-4.9812,-5.0453,-4.9352,-4.8526,-4.9262,-4.8783,-4.8306,-4.8306,-4.8196,-4.7846,-4.7186,-4.581,-4.48,-4.4525,-4.3901,-4.3515,-4.3515,-4.3515,-4.3515,-4.3515,-4.3515,-4.3515,-4.3515,-4.3515,-4.3515,-4.3515,-4.3515,-4.3515,-4.3515,-4.3515,-4.3515,-4.3515,-4.3515,-4.3515,-4.9763,-5.1409,-5.2591,-5.2247,-5.0291,-4.66,-3.9581,0.0,0.0,0.0,-1.7105,-1.6212,-1.9563,0.0,0.0,0.0,0.0,0.0,0.0,0.0,0.0,0.0,0.0,0.0,0.0,0.0,0.0,0.0,0.0,0.0,0.0,-5.3501,-5.3501,-5.3501,-5.3095,-5.3078,-5.3501,-5.2706,-5.2723,-5.3501,-5.2689,-5.1911,-5.12,-5.0845,-4.9661,-4.7872,0.0,0.0,-4.5669,-4.5314,-4.4942,-4.4615,-4.4615,-4.4615,-4.4615,-4.4615,-4.4615,-4.4654,-4.4934,-4.5258,-4.5622,-4.6216,-4.6824,-4.7431,-4.8094,-4.8306,-4.8306,-4.8306,-4.8306,-4.8306,-4.8306,-4.8636,-4.9077,-4.95,-4.9922,-5.0435,-5.1242,-5.0784,-5.0453,-5.1261,-5.0086,-4.9095,-4.9537,-4.8875,-4.8306,-4.8306,-4.8306,-4.8159,-4.7755,-4.6691,-4.5627,-4.4783,-4.436,-4.3956,-4.3551,-4.3515,-4.3515,-4.3515,-4.3515,-4.3515,-4.3515,-4.3515,-4.3515,-4.3515,-4.3515,-4.3515,-4.3515,-4.3515,-4.3515,-4.3515,-4.3515,-4.3515,-4.9134,-5.081,-5.2007,-5.1214,-4.8536,-4.3853,-3.525,-2.9594,0.0,0.0,-1.4722,-1.501,-1.8963,0.0,-2.2181,0.0,0.0,0.0,0.0,0.0,0.0,0.0,0.0,0.0,0.0,0.0,0.0,0.0,0.0,0.0,0.0,-5.3501,-5.3501,-5.3501,-5.2892,-5.279,-5.3247,-5.2046,-5.1978,-5.301,-5.2384,-5.1691,-5.098,-5.098,-4.9949,-4.8139,0.0,0.0,0.0,-4.5838,-4.5348,-4.4835,-4.4666,-4.4615,-4.4615,-4.4615,-4.4615,-4.4626,-4.4748,-4.532,-4.6063,-4.6312,-4.6577,-4.6981,-4.7997,-4.8306,-4.8306,-4.8306,-4.8306,-4.8343,-4.8508,-4.9077,-4.9684,-5.0033,-5.0729,-5.1499,-5.2123,-5.1628,-5.1242,-5.1867,-5.0712,-4.961,-4.961,-4.8875,-4.8306,-4.8306,-4.8306,-4.8306,-4.8306,-4.7736,-4.6727,-4.5131,-4.4966,-4.4635,-4.3828,-4.3754,-4.3681,-4.3515,-4.3515,-4.3515,-4.3515,-4.3515,-4.3515,-4.3515,-4.3515,-4.3515,-4.3515,-4.3515,-4.3515,-4.3515,-4.3515,-4.3515,-4.9269,-5.1154,-5.1887,-5.0599,-4.7833,-4.3135,-3.4562,0.0,0.0,-1.7042,-1.4722,-1.501,-1.8963,-1.8269,-1.9923,-2.8582,0.0,-3.1212,0.0,0.0,0.0,0.0,0.0,0.0,0.0,0.0,0.0,0.0,0.0,0.0,0.0,-5.3501,-5.3501,-5.3501,-5.3433,-5.3078,-5.2418,-5.2266,-5.1944,-5.1388,-5.132,-5.0913,-5.0185,-5.0185,-4.9712,-4.8866,0.0,0.0,0.0,-4.6261,-4.5669,-4.5534,-4.484,-4.4615,-4.4615,-4.4615,-4.4615,-4.4682,-4.5232,-4.5142,-4.4961,-4.6021,-4.7176,-4.8152,-4.8267,-4.8306,-4.8306,-4.8306,-4.8306,-4.8471,-4.9205,-4.95,-4.9978,-5.1426,-5.2399,-5.3004,-5.3057,-5.2454,-5.1903,-5.1977,-5.0712,-4.961,-4.961,-4.8875,-4.8306,-4.8306,-4.8306,-4.8306,-4.8306,-4.8251,-4.7572,-4.5957,-4.5792,-4.5461,-4.4672,-4.4599,-4.4287,-4.3551,-4.3515,-4.3515,-4.3515,-4.3515,-4.3515,-4.3515,-4.3515,-4.3515,-4.3515,-4.3515,-4.3515,-4.3515,-4.3515,-4.3515,-4.493,-4.8192,-5.0616,-4.8895,-4.5978,-4.1489,-3.3663,0.0,0.0,-1.74,-1.5321,-1.5012,-1.698,-1.6697,-1.744,-2.1358,-2.3049,0.0,-3.4239,0.0,0.0,0.0,0.0,0.0,0.0,0.0,0.0,0.0,0.0,0.0,0.0,0.0,-5.3281,-5.279,-5.235,-5.1978,-5.1657,-5.12,-5.1048,-5.1185,-5.1185,-5.0811,-5.0084,-5.0084,-4.9695,-4.8984,0.0,0.0,0.0,-4.6786,-4.6109,-4.5669,-4.5382,-4.5263,-4.5314,-4.5754,-4.5635,-4.532,-4.555,-4.5402,-4.5232,-4.5707,-4.6454,-4.7219,-4.7635,-4.7756,-4.7818,-4.8191,-4.8673,-4.915,-4.9482,-5.0308,-5.1336,-5.2454,-5.2968,-5.3185,-5.3185,-5.2968,-5.2582,-5.2087,-5.1077,-5.016,-4.9684,-4.8875,-4.8306,-4.8306,-4.8306,-4.8306,-4.8306,-4.8306,-4.8049,-4.7407,-4.6911,-4.6085,-4.4801,-4.4691,-4.4562,-4.425,-4.3754,-4.3515,-4.3515,-4.3515,-4.3515,-4.3515,-4.3515,-4.3515,-4.3515,-4.3515,-4.3515,-4.3515,-4.3515,-4.3515,-4.0861,-4.4915,-4.8118,-4.677,-4.3629,-3.92,0.0,0.0,0.0,-1.7787,-1.5815,-1.5005,-1.5679,-1.5799,-1.6009,-1.6607,-1.9051,-2.2964,-2.8958,0.0,0.0,0.0,0.0,0.0,0.0,0.0,0.0,0.0,0.0,0.0,0.0,0.0,-5.3129,-5.2334,-5.1809,-5.1336,-5.0896,-5.0355,-5.0253,-5.0557,-5.0557,-5.0287,-4.9763,-4.9763,-4.9492,0.0,0.0,0.0,0.0,-4.7428,-4.6819,-4.6346,-4.6109,-4.6024,-4.6092,-4.6599,-4.6464,-4.5991,-4.5788,-4.5653,-4.5524,-4.53,-4.552,-4.5989,-4.6635,-4.7106,-4.7578,-4.8462,-4.949,-5.0308,-5.0308,-5.1316,-5.2509,-5.3078,-5.3185,-5.3185,-5.3185,-5.3185,-5.2968,-5.216,-5.1536,-5.0894,-5.0106,-4.9242,-4.8765,-4.9003,-4.8618,-4.8398,-4.8655,-4.8471,-4.8214,-4.7957,-4.7645,-4.6801,-4.5204,-4.5057,-4.4856,-4.4378,-4.3809,-4.3515,-4.3515,-4.3515,-4.3515,-4.3515,-4.3515,-4.3515,-4.3515,-4.3515,-4.3515,-4.3515,-4.3515,-4.3515,-3.8162,-4.1863,-4.4377,-4.4347,-4.0876,-3.6237,0.0,0.0,-2.015,-1.8117,-1.6159,-1.5005,-1.5679,-1.5799,-1.6009,-1.6607,-1.7833,-2.0604,-2.5988,-3.1081,0.0,0.0,0.0,0.0,0.0,0.0,0.0,0.0,0.0,0.0,0.0,0.0,-5.3129,-5.2334,-5.23,-5.1589,-5.0118,-5.0084,-4.9729,-4.9018,-4.9018,-4.9018,-4.9018,-4.9018,0.0,0.0,0.0,0.0,0.0,-4.8176,-4.7872,-4.7787,-4.7073,-4.6786,-4.6786,-4.6786,-4.6786,-4.6667,-4.5957,-4.5703,-4.5568,-4.4852,-4.4598,-4.472,-4.5346,-4.6401,-4.771,-4.9257,-5.0784,-5.1977,-5.1977,-5.2582,-5.3185,-5.3185,-5.3185,-5.3185,-5.3185,-5.3185,-5.2968,-5.216,-5.1977,-5.172,-5.093,-5.0105,-4.9867,-5.0655,-4.937,-4.8618,-4.9482,-4.882,-4.7975,-4.7204,-4.781,-4.7645,-4.6012,-4.5883,-4.5204,-4.3625,-4.3515,-4.3515,-4.3515,-4.3515,-4.3515,-4.3515,-4.3515,-4.3515,-4.3515,-4.3515,-4.3515,-4.3515,-4.3515,-4.3515,-3.1255,-3.4427,-3.6806,-3.6357,-3.4143,-3.1076,-2.731,0.0,-2.0001,-1.7533,-1.6204,-1.5559,-1.5769,-1.5799,-1.6144,-1.7204,-1.7743,-1.9911,-2.531,0.0,0.0,0.0,0.0,0.0,0.0,0.0,0.0,0.0,0.0,0.0,0.0,0.0,0.0,-5.1572,-5.1555,-5.0845,-4.9357,-4.9357,-4.9238,-4.9001,-4.9001,-4.9001,-4.9001,-4.9001,0.0,0.0,0.0,0.0,0.0,-4.8193,-4.7889,-4.7872,-4.7618,-4.7564,-4.7614,-4.8122,-4.7986,-4.7462,-4.6718,-4.6126,-4.5585,-4.4852,-4.4615,-4.4727,-4.5426,-4.5848,-4.6599,-4.9077,-5.0842,-5.2123,-5.2674,-5.3023,-5.3185,-5.3185,-5.3185,-5.3185,-5.3185,-5.3185,-5.2968,-5.216,-5.1995,-5.1738,-5.0949,-5.0582,-5.0508,-5.0765,-4.9866,-4.9298,-4.9555,-4.8838,-4.8214,-4.7957,-4.8159,-4.7884,-4.6801,-4.6214,-4.5681,-4.5168,-4.4103,-4.3515,-4.3515,-4.3515,-4.3515,-4.3515,-4.3515,-4.3515,-4.3515,-4.3515,-4.3515,-4.3515,-4.3515,-4.3515,0.0,-2.8577,-3.0597,-3.0956,-2.8996,0.0,0.0,0.0,0.0,-1.7039,-1.6219,-1.5799,-1.5799,-1.5799,-1.6068,-1.6847,-1.7594,-1.9427,-2.3267,0.0,0.0,0.0,0.0,0.0,0.0,0.0,0.0,0.0,0.0,0.0,0.0,0.0,0.0,-5.0794,-5.0794,-5.0219,-4.9018,-4.9001,-4.9001,-4.9001,-4.9001,-4.9001,-4.9001,0.0,0.0,0.0,0.0,0.0,0.0,-4.8511,-4.8342,-4.8342,-4.8342,-4.8125,-4.7939,-4.8426,-4.8277,-4.7736,-4.6735,-4.6261,-4.594,-4.4936,-4.4615,-4.4699,-4.5145,-4.5983,-4.7161,-4.8913,-5.0674,-5.2153,-5.2641,-5.2999,-5.3185,-5.3185,-5.3185,-5.3185,-5.3185,-5.3185,-5.3059,-5.2546,-5.2454,-5.2289,-5.1793,-5.1444,-5.1242,-5.1242,-5.0563,-4.9941,-4.9647,-4.9133,-4.8655,-4.8343,-4.8306,-4.7957,-4.7168,-4.6361,-4.5773,-4.548,-4.4213,-4.3515,-4.3515,-4.3515,-4.3515,-4.3515,-4.3515,-4.3515,-4.3515,-4.3515,-4.3515,-4.3515,-4.3515,-4.3515,0.0,-2.3879,0.0,0.0,0.0,0.0,0.0,0.0,0.0,0.0,0.0,-1.5814,-1.5858,-1.5829,-1.5888,-1.6113,-1.761,-1.9237,-2.0533,0.0,0.0,0.0,0.0,0.0,0.0,0.0,0.0,0.0,0.0,0.0,0.0,0.0,0.0,0.0,-5.0016,-4.9678,-4.9018,-4.9001,-4.9001,-4.9001,-4.9001,-4.9001,-4.9001,0.0,0.0,0.0,0.0,0.0,0.0,-4.9001,-4.8968,-4.8934,-4.8934,-4.8477,-4.7821,-4.7872,-4.7855,-4.7648,-4.6261,-4.6194,-4.6481,-4.5072,-4.4615,-4.4615,-4.4666,-4.661,-4.8812,-4.8753,-5.0305,-5.2042,-5.2042,-5.2576,-5.3124,-5.3124,-5.3164,-5.3185,-5.3185,-5.3185,-5.3185,-5.3185,-5.3185,-5.3185,-5.3185,-5.2527,-5.1995,-5.1995,-5.1261,-5.0435,-4.9702,-4.9555,-4.9187,-4.8398,-4.8306,-4.8012,-4.7241,-4.6397,-4.5571,-4.4746,-4.3938,-4.3515,-4.3515,-4.3515,-4.3515,-4.3515,-4.3515,-4.3515,-4.3515,-4.3515,-4.3515,-4.3515,-4.3515,-4.3515,-1.577,0.0,-1.833,-1.9268,-1.8787,-1.81,0.0,0.0,0.0,0.0,0.0,0.0,0.0,-1.6099,-1.6623,-1.9136,-1.9495,-2.0254,-2.2536,0.0,0.0,0.0,0.0,0.0,0.0,0.0,0.0,0.0,0.0,0.0,0.0,0.0,0.0,0.0,-4.9255,-4.9187,-4.9001,-4.9001,-4.9001,-4.9001,-4.9001,-4.9001,-4.9001,0.0,0.0,0.0,0.0,0.0,0.0,-4.9001,-4.868,-4.8173,-4.8173,-4.7716,-4.7124,-4.7669,-4.7547,-4.7005,-4.665,-4.6295,-4.5805,-4.4902,-4.4615,-4.4716,-4.5263,-4.6679,-4.807,-4.804,-4.9626,-5.1343,-5.1343,-5.1832,-5.2358,-5.2358,-5.2791,-5.3185,-5.3185,-5.3185,-5.3185,-5.3185,-5.3185,-5.3185,-5.3185,-5.2527,-5.1995,-5.1995,-5.0804,-4.9812,-4.9629,-4.9022,-4.8526,-4.8324,-4.8306,-4.8233,-4.8031,-4.6728,-4.5571,-4.4746,-4.3938,-4.3515,-4.3515,-4.3515,-4.3515,-4.3515,-4.3515,-4.3515,-4.3515,-4.3515,-4.3515,-4.3515,-4.3515,-4.3515,-1.3797,-1.4543,-1.5485,-1.6129,-1.6278,-1.6368,-1.6652,0.0,0.0,0.0,0.0,0.0,0.0,0.0,0.0,-1.945,-2.1299,0.0,0.0,0.0,0.0,0.0,0.0,0.0,0.0,0.0,0.0,0.0,0.0,0.0,0.0,0.0,0.0,0.0,0.0,-4.9001,-4.9001,-4.9001,-4.9001,-4.9001,-4.9001,-4.9001,-4.8984,0.0,0.0,0.0,0.0,0.0,-4.7986,-4.7986,-4.7767,-4.7411,-4.7411,-4.6938,-4.6346,-4.6752,-4.665,-4.6244,-4.5906,-4.5517,-4.5128,-4.4733,-4.4615,-4.475,-4.5483,-4.6476,-4.7403,-4.7746,-4.916,-5.0599,-5.0599,-5.1112,-5.1643,-5.1643,-5.2177,-5.2702,-5.2702,-5.2959,-5.3185,-5.3185,-5.3185,-5.3185,-5.3185,-5.2839,-5.2435,-5.205,-5.1555,-5.0839,-4.9739,-4.9499,-4.915,-4.8379,-4.8306,-4.8159,-4.7773,-4.6947,-4.6122,-4.5296,-4.414,-4.3515,-4.3515,-4.3515,-4.3515,-4.3515,-4.3515,-4.3515,-4.3515,-4.3515,-4.3515,-4.3515,-4.3515,-4.3515,-1.3899,-1.4438,-1.5065,-1.5529,-1.5784,-1.6069,-1.6577,0.0,0.0,0.0,0.0,0.0,0.0,0.0,0.0,0.0,0.0,0.0,0.0,0.0,0.0,0.0,0.0,0.0,0.0,0.0,0.0,0.0,0.0,0.0,0.0,0.0,0.0,0.0,0.0,0.0,-4.8832,-4.8951,-4.9001,-4.9001,-4.9001,-4.9001,-4.8984,-4.8257,0.0,0.0,0.0,0.0,-4.6786,-4.6786,-4.6718,-4.6616,-4.6616,-4.6177,-4.5551,-4.5669,-4.5635,-4.5449,-4.4835,-4.4615,-4.4615,-4.4615,-4.4682,-4.4919,-4.5635,-4.638,-4.7124,-4.7868,-4.8941,-4.985,-4.985,-5.038,-5.0929,-5.0929,-5.1444,-5.1952,-5.1952,-5.2531,-5.302,-5.302,-5.3124,-5.3185,-5.3185,-5.3093,-5.2803,-5.2087,-5.2362,-5.1958,-5.0033,-5.0141,-4.9939,-4.8636,-4.8379,-4.8012,-4.7333,-4.7168,-4.6801,-4.6122,-4.4562,-4.3643,-4.3515,-4.3515,-4.3515,-4.3515,-4.3515,-4.3515,-4.3515,-4.3515,-4.3515,-4.3515,-4.3515,-4.3515,-1.4333,-1.514,-1.553,-1.5065,-1.5755,-1.6592,-1.6681,0.0,0.0,0.0,0.0,0.0,0.0,0.0,0.0,0.0,0.0,0.0,0.0,0.0,0.0,0.0,0.0,0.0,0.0,0.0,0.0,0.0,0.0,0.0,0.0,0.0,0.0,0.0,0.0,-4.8058,-4.8058,-4.8697,-4.9001,-4.9001,-4.9001,-4.9001,-4.8984,-4.8257,-4.7889,0.0,0.0,0.0,-4.6786,-4.6786,-4.643,-4.5872,-4.5872,-4.5415,-4.4823,-4.5466,-4.5297,-4.4767,-4.4649,-4.4615,-4.4615,-4.4615,-4.501,-4.5669,-4.6397,-4.7158,-4.7872,-4.8629,-4.8992,-4.9152,-4.9152,-4.9652,-5.0157,-5.0157,-5.0716,-5.1241,-5.1241,-5.1783,-5.2271,-5.2271,-5.2769,-5.3185,-5.3185,-5.2637,-5.2142,-5.2013,-5.0951,-5.0251,-5.0582,-4.9481,-4.8875,-4.9353,-4.8746,-4.8251,-4.8141,-4.748,-4.7058,-4.6911,-4.5406,-4.4213,-4.3533,-4.3515,-4.3515,-4.3515,-4.3515,-4.3515,-4.3515,-4.3515,-4.3515,-4.3515,-4.3515,-4.3515,-1.4975,-1.529,-1.5694,-1.7535,-1.7878,-1.7788,-1.7788,-1.7743,0.0,0.0,0.0,0.0,0.0,0.0,0.0,0.0,0.0,0.0,0.0,0.0,0.0,0.0,0.0,0.0,0.0,0.0,0.0,0.0,0.0,0.0,0.0,0.0,0.0,0.0,0.0,0.0,-4.731,-4.7648,-4.8206,-4.9001,-4.8612,-4.8426,-4.8376,-4.7242,-4.6718,0.0,0.0,-4.5602,-4.5602,-4.5602,-4.5399,-4.5094,-4.5094,-4.4919,-4.4699,-4.5432,-4.5737,-4.572,-4.5314,-4.5179,-4.5179,-4.5179,-4.5415,-4.5838,-4.6583,-4.7327,-4.7956,-4.8325,-4.8697,-4.9001,-4.9001,-4.9243,-4.9462,-4.9462,-4.9993,-5.05,-5.05,-5.075,-5.1068,-5.1497,-5.1793,-5.2023,-5.2053,-5.2068,-5.2053,-5.2053,-5.1417,-5.0906,-5.0817,-5.0141,-4.9462,-4.8948,-4.8545,-4.8306,-4.8306,-4.7957,-4.7186,-4.5883,-4.5095,-4.4342,-4.3533,-4.3515,-4.3515,-4.3515,-4.3515,-4.3515,-4.3515,-4.3515,-4.3515,-4.3515,-4.3515,-4.3515,-1.565,-1.553,-1.583,-1.9163,0.0,-1.9794,-2.0408,-2.0255,0.0,0.0,0.0,0.0,0.0,0.0,0.0,0.0,0.0,0.0,0.0,0.0,0.0,0.0,0.0,0.0,0.0,0.0,0.0,0.0,0.0,0.0,0.0,0.0,0.0,0.0,0.0,0.0,-4.6532,-4.6532,-4.7192,-4.8477,-4.7919,-4.7618,-4.7614,-4.6295,-4.5703,-4.5669,-4.4936,-4.4615,-4.4615,-4.4615,-4.4615,-4.4615,-4.4615,-4.4716,-4.4919,-4.5297,-4.5906,-4.643,-4.5703,-4.5449,-4.5449,-4.5449,-4.5686,-4.6058,-4.6616,-4.7445,-4.8173,-4.8173,-4.8578,-4.9001,-4.9001,-4.9001,-4.9001,-4.9001,-4.9389,-4.978,-4.978,-4.9899,-5.0162,-5.0744,-5.0945,-5.097,-5.0852,-5.1276,-5.1611,-5.1611,-5.1567,-5.1443,-5.1137,-5.0941,-5.038,-4.9279,-4.8838,-4.8526,-4.8324,-4.8306,-4.7443,-4.5388,-4.526,-4.4819,-4.3809,-4.3773,-4.3681,-4.3515,-4.3515,-4.3515,-4.3515,-4.3515,-4.3515,-4.3515,-4.3515,-4.3515,-1.6293,-1.6204,-1.6069,-1.7549,-2.0183,0.0,-2.5465,-2.6492,0.0,-2.6078,0.0,0.0,0.0,0.0,0.0,0.0,0.0,0.0,0.0,0.0,0.0,0.0,0.0,0.0,0.0,0.0,0.0,0.0,0.0,0.0,0.0,0.0,0.0,0.0,0.0,0.0,-4.5788,-4.5788,-4.6177,-4.6955,-4.6887,-4.687,-4.6853,-4.6058,-4.5703,-4.5669,-4.4936,-4.4615,-4.4615,-4.4615,-4.4615,-4.4615,-4.4615,-4.501,-4.5551,-4.4891,-4.5145,-4.5669,-4.4925,-4.4682,-4.4682,-4.4682,-4.5602,-4.6718,-4.6769,-4.7784,-4.8934,-4.8934,-4.8968,-4.9001,-4.9001,-4.9001,-4.9001,-4.9001,-4.9032,-4.9077,-4.9077,-4.9558,-5.002,-5.0072,-5.0627,-5.088,-5.0199,-5.0118,-5.0168,-5.0168,-5.0056,-5.0462,-5.1816,-5.1292,-5.1041,-5.1665,-5.04,-4.9169,-4.8379,-4.8306,-4.7901,-4.6984,-4.6929,-4.6232,-4.4673,-4.4617,-4.4268,-4.3497,-4.3515,-4.3515,-4.3515,-4.3515,-4.3515,-4.3515,-4.3515,-4.3515,-1.5889,-1.6862,-1.8313,-2.1256,-2.3244,0.0,0.0,-2.6258,-2.8023,-2.736,-2.7899,0.0,0.0,0.0,0.0,0.0,0.0,0.0,0.0,0.0,0.0,0.0,0.0,0.0,0.0,0.0,0.0,0.0,0.0,0.0,0.0,0.0,0.0,0.0,0.0,0.0,0.0,-4.501,-4.5173,-4.5461,-4.5889,-4.6126,-4.6092,-4.5348,-4.501,-4.4993,-4.4733,-4.4615,-4.4615,-4.4615,-4.4615,-4.4615,-4.4615,-4.5043,-4.5669,-4.5382,-4.5754,-4.6278,-4.5534,-4.528,-4.528,-4.528,-4.5974,-4.6786,-4.6786,-4.7834,-4.89,-4.846,-4.8663,-4.9001,-4.9001,-4.9001,-4.9001,-4.9001,-4.9001,-4.9001,-4.9001,-4.8825,-4.8843,-4.9304,-4.9567,-4.9522,-4.8797,-4.9417,-4.9841,-4.9379,-5.0051,-5.0599,-5.0618,-5.0724,-5.0527,-4.9774,-4.915,-4.8655,-4.8343,-4.8306,-4.8177,-4.7865,-4.6911,-4.5865,-4.4746,-4.4213,-4.3809,-4.3515,-4.3515,-4.3515,-4.3515,-4.3515,-4.3515,-4.3515,-4.3515,-4.3515,-1.5949,-1.767,-1.9971,-2.2691,0.0,0.0,-2.5189,-2.7111,-2.925,-2.9442,-3.0715,0.0,0.0,0.0,0.0,0.0,0.0,0.0,0.0,0.0,0.0,0.0,0.0,0.0,0.0,0.0,0.0,0.0,0.0,0.0,0.0,0.0,0.0,0.0,0.0,0.0,0.0,-4.4361,-4.4361,-4.4615,-4.5111,-4.5348,-4.5331,-4.4852,-4.4615,-4.4615,-4.4615,-4.4615,-4.4615,-4.4615,-4.4615,-4.4615,-4.4615,-4.5043,-4.5669,-4.5432,-4.5821,-4.6346,-4.5602,-4.5348,-4.5348,-4.5348,-4.6007,-4.6786,-4.6786,-4.7834,-4.89,-4.8409,-4.8612,-4.9001,-4.9001,-4.9001,-4.9001,-4.9001,-4.9001,-4.9001,-4.9001,-4.8612,-4.8409,-4.89,-4.8775,-4.8449,-4.7992,-4.8519,-4.8902,-4.8638,-4.9627,-5.017,-4.9535,-5.01,-4.9998,-4.8543,-4.8618,-4.8623,-4.8342,-4.8306,-4.8306,-4.8306,-4.6783,-4.5645,-4.5112,-4.4305,-4.3754,-4.3515,-4.3515,-4.3515,-4.3515,-4.3515,-4.3515,-4.3515,-4.3515,-4.3515,-1.6726,-1.8698,-2.0763,0.0,0.0,0.0,-2.9621,-3.0088,-3.1091,-3.308,0.0,0.0,0.0,0.0,0.0,0.0,0.0,0.0,0.0,0.0,0.0,0.0,0.0,0.0,0.0,0.0,0.0,0.0,0.0,0.0,0.0,0.0,0.0,0.0,0.0,0.0,0.0,-4.3792,-4.3792,-4.4581,-4.4598,-4.4598,-4.4615,-4.4598,-4.4598,-4.4615,-4.4598,-4.4598,-4.4615,-4.4615,-4.4615,-4.4615,-4.4615,-4.5043,-4.5602,-4.4886,-4.5043,-4.5602,-4.4869,-4.4615,-4.4615,-4.4615,-4.5613,-4.6786,-4.6786,-4.7817,-4.9001,-4.9001,-4.9001,-4.9001,-4.9001,-4.9001,-4.9001,-4.9001,-4.9001,-4.9001,-4.9001,-4.9001,-4.9001,-4.9001,-4.8426,-4.7889,-4.7889,-4.731,-4.7073,-4.777,-4.8478,-4.89,-4.8882,-4.953,-4.9606,-4.8672,-4.9239,-4.9296,-4.8376,-4.8287,-4.8306,-4.8306,-4.6801,-4.5902,-4.5902,-4.5131,-4.4305,-4.3533,-4.3515,-4.3515,-4.3515,-4.3515,-4.3515,-4.3515,-4.3515,-4.3515,-1.8942,-2.2099,0.0,-2.6138,0.0,0.0,0.0,-3.1809,0.0,0.0,0.0,0.0,0.0,0.0,0.0,0.0,0.0,0.0,0.0,0.0,0.0,0.0,0.0,0.0,0.0,0.0,0.0,0.0,0.0,0.0,0.0,0.0,0.0,0.0,0.0,0.0,0.0,0.0,-4.2743,-4.298,-4.3504,-4.4045,-4.4581,-4.4012,-4.4062,-4.4581,-4.3995,-4.4079,-4.4615,-4.4615,-4.4615,-4.4615,-4.4615,-4.475,-4.4919,-4.4682,-4.475,-4.4874,-4.4682,-4.4615,-4.4615,-4.4615,-4.5613,-4.6701,-4.6177,-4.7428,-4.89,-4.8392,-4.8612,-4.9001,-4.9001,-4.9001,-4.9001,-4.9001,-4.9001,-4.9001,-4.9001,-4.9001,-4.9001,-4.9001,-4.8832,-4.8528,-4.7973,-4.8156,-4.8257,-4.7939,-4.8478,-4.8709,-4.8123,-4.7713,-4.737,-4.7096,-4.7662,-4.7973,-4.7689,-4.8055,-4.8306,-4.8306,-4.7314,-4.6489,-4.592,-4.458,-4.3736,-4.3515,-4.3515,-4.3515,-4.3515,-4.3515,-4.3515,-4.3515,-4.3515,-4.3515,-2.0213,-2.3954,0.0,-2.8816,-3.0073,-3.127,-3.178,0.0,0.0,0.0,0.0,0.0,0.0,0.0,0.0,0.0,0.0,0.0,0.0,0.0,0.0,0.0,0.0,0.0,0.0,0.0,0.0,0.0,0.0,0.0,0.0,0.0,0.0,0.0,0.0,0.0,0.0,0.0,0.0,-4.1864,-4.2608,-4.3217,-4.3684,-4.3504,-4.3673,-4.4096,-4.3595,-4.369,-4.4147,-4.4479,-4.4615,-4.4615,-4.4615,-4.4615,-4.4615,-4.4615,-4.4615,-4.4615,-4.4615,-4.4615,-4.4615,-4.4615,-4.5382,-4.6329,-4.6177,-4.7276,-4.8545,-4.8392,-4.8663,-4.9001,-4.9001,-4.9001,-4.9001,-4.9001,-4.9001,-4.9001,-4.9001,-4.9001,-4.9001,-4.9001,-4.8765,-4.8528,-4.8376,-4.8477,-4.8426,-4.7956,-4.7756,-4.7569,-4.7378,-4.6639,-4.6089,-4.6049,-4.6666,-4.7048,-4.7013,-4.7345,-4.7409,-4.7122,-4.6579,-4.5913,-4.5148,-4.4381,-4.3828,-4.3515,-4.3515,-4.3515,-4.3515,-4.3515,-4.3515,-4.3515,-4.3515,-4.3515,-2.0912,0.0,0.0,-2.9726,-3.1824,0.0,0.0,0.0,0.0,0.0,0.0,0.0,0.0,0.0,0.0,0.0,0.0,0.0,0.0,0.0,0.0,0.0,0.0,0.0,0.0,0.0,0.0,0.0,0.0,0.0,0.0,0.0,0.0,0.0,0.0,0.0,0.0,0.0,0.0,0.0,-4.1632,-4.2034,-4.2122,-4.2868,-4.3189,-4.3206,-4.3341,-4.3392,-4.3443,-4.4265,-4.4615,-4.4615,-4.4615,-4.4615,-4.4615,-4.4615,-4.4615,-4.4615,-4.4615,-4.4615,-4.4615,-4.4615,-4.5094,-4.5821,-4.6413,-4.7208,-4.8024,-4.8629,-4.89,-4.9001,-4.9001,-4.9001,-4.9001,-4.9001,-4.9001,-4.9001,-4.9001,-4.9001,-4.8984,-4.8917,-4.8426,-4.8159,-4.8714,-4.8308,-4.7872,-4.7804,-4.6667,-4.6024,-4.6616,-4.6058,-4.5552,-4.5441,-4.6065,-4.6455,-4.6317,-4.6383,-4.6094,-4.5344,-4.5176,-4.475,-4.3922,-4.4346,-4.425,-4.3497,-4.3444,-4.3444,-4.3515,-4.3444,-4.3444,-4.3515,-4.3515,-4.3515,-2.2562,-2.533,0.0,0.0,-3.3873,0.0,0.0,0.0,0.0,0.0,0.0,0.0,0.0,0.0,0.0,0.0,0.0,0.0,0.0,0.0,0.0,0.0,0.0,0.0,0.0,0.0,0.0,0.0,0.0,0.0,0.0,0.0,0.0,0.0,0.0,0.0,-3.8283,-3.8284,-3.837,0.0,-3.9282,-3.9944,-4.0597,-4.1338,-4.1677,-4.1745,-4.2885,-4.3392,-4.3443,-4.4265,-4.4615,-4.4615,-4.4615,-4.4615,-4.4615,-4.4615,-4.4615,-4.4615,-4.4615,-4.4615,-4.4615,-4.4615,-4.5094,-4.5618,-4.5196,-4.6397,-4.7804,-4.7394,-4.8105,-4.9001,-4.9001,-4.9001,-4.9001,-4.9001,-4.9001,-4.9001,-4.9001,-4.9001,-4.8832,-4.8257,-4.8494,-4.846,-4.7445,-4.7631,-4.7716,-4.7124,-4.6769,-4.6413,-4.5991,-4.528,-4.484,-4.482,-4.5343,-4.5719,-4.5699,-4.6136,-4.6094,-4.5344,-4.5695,-4.5328,-4.3958,-4.3798,-4.368,-4.3515,-4.3105,-4.3069,-4.3515,-4.3069,-4.3105,-4.3515,-4.3515,-4.3515,-2.2981,0.0,0.0,-3.2497,0.0,0.0,0.0,0.0,0.0,0.0,0.0,0.0,0.0,0.0,0.0,0.0,0.0,0.0,0.0,0.0,0.0,0.0,0.0,0.0,0.0,0.0,0.0,0.0,0.0,0.0,0.0,0.0,0.0,0.0,0.0,0.0,-3.6692,-3.7055,-3.7219,-3.7249,-3.7998,-3.8583,-3.9044,-4.0511,-4.1018,-4.073,-4.1863,-4.2371,-4.2412,-4.3555,-4.4028,-4.4062,-4.4462,-4.4615,-4.4615,-4.4615,-4.4615,-4.4615,-4.4615,-4.4615,-4.4615,-4.4615,-4.484,-4.5162,-4.5128,-4.5923,-4.6853,-4.6802,-4.7614,-4.8392,-4.8037,-4.8206,-4.8392,-4.8037,-4.8494,-4.9001,-4.9001,-4.8731,-4.8376,-4.7956,-4.8193,-4.8122,-4.6989,-4.6836,-4.6853,-4.6802,-4.6223,-4.572,-4.5703,-4.5043,-4.4615,-4.4615,-4.4879,-4.5062,-4.5062,-4.5372,-4.506,-4.3922,-4.4431,-4.4063,-4.253,-4.262,-4.2828,-4.3105,-4.2559,-4.2541,-4.3124,-4.2845,-4.2976,-4.3515,-4.3515,-4.3515,-2.1934,0.0,-2.8528,-3.2362,-3.3934,0.0,0.0,0.0,0.0,0.0,0.0,0.0,0.0,0.0,0.0,0.0,0.0,0.0,0.0,0.0,0.0,0.0,0.0,0.0,0.0,0.0,0.0,0.0,0.0,0.0,0.0,0.0,0.0,0.0,0.0,-3.5504,-3.5504,-3.6117,-3.6415,-3.6415,-3.7219,-3.7661,-3.7867,-3.9883,-4.0465,-3.9935,-4.0814,-4.1204,-4.1305,-4.2658,-4.3274,-4.346,-4.413,-4.4496,-4.4615,-4.4615,-4.4615,-4.4615,-4.4615,-4.4615,-4.4615,-4.4615,-4.4615,-4.4716,-4.5331,-4.5602,-4.5838,-4.643,-4.7141,-4.7581,-4.6955,-4.7259,-4.7564,-4.6938,-4.7733,-4.8629,-4.8629,-4.8257,-4.7804,-4.7551,-4.7428,-4.7192,-4.6684,-4.6109,-4.5906,-4.6515,-4.5551,-4.4993,-4.5618,-4.5043,-4.4615,-4.4615,-4.4615,-4.4615,-4.4615,-4.4615,-4.3955,-4.2388,-4.2859,-4.2525,-4.0972,-4.138,-4.1874,-4.2382,-4.1895,-4.1937,-4.2539,-4.244,-4.2714,-4.3375,-4.3375,-4.341,0.0,0.0,-2.8408,0.0,0.0,0.0,0.0,0.0,0.0,0.0,0.0,0.0,0.0,0.0,0.0,0.0,0.0,0.0,0.0,0.0,0.0,0.0,0.0,0.0,0.0,0.0,0.0,0.0,0.0,0.0,0.0,0.0,-3.5504,-3.5504,-3.5504,0.0,-3.5504,-3.5587,-3.5636,-3.5651,-3.6399,-3.713,-3.7822,-3.8777,-3.9142,-3.9146,-4.0589,-4.1204,-4.1271,-4.21,-4.2828,-4.3409,-4.3511,-4.3995,-4.4615,-4.4615,-4.4615,-4.4615,-4.4615,-4.4615,-4.4615,-4.4615,-4.4615,-4.4632,-4.4733,-4.5179,-4.572,-4.5821,-4.638,-4.6921,-4.6819,-4.687,-4.6921,-4.6802,-4.6938,-4.709,-4.709,-4.753,-4.7517,-4.6244,-4.5483,-4.5196,-4.5754,-4.5771,-4.5737,-4.5838,-4.5686,-4.5602,-4.5703,-4.5043,-4.4615,-4.4615,-4.4615,-4.4615,-4.4615,-4.4615,-4.3955,-4.2388,-4.2859,-4.2525,-4.0972,-4.0972,-4.1064,-4.1155,-4.1064,-4.1313,-4.1916,-4.1402,-4.1707,-4.2807,-4.2807,-4.305,-1.761,-2.2817,-2.8049,0.0,0.0,0.0,0.0,0.0,0.0,0.0,0.0,0.0,0.0,0.0,0.0,0.0,0.0,0.0,0.0,0.0,0.0,0.0,0.0,0.0,0.0,0.0,0.0,0.0,0.0,0.0,0.0,-3.5504,-3.5504,-3.5504,-3.5504,0.0,-3.5504,-3.5504,-3.5504,-3.5504,-3.5831,-3.6164,-3.6538,-3.7748,-3.8761,-3.9601,-4.0281,-4.0578,-4.0629,-4.1373,-4.188,-4.2219,-4.2625,-4.2997,-4.3379,-4.3775,-4.3927,-4.3995,-4.4445,-4.4615,-4.4615,-4.4615,-4.4615,-4.4615,-4.4615,-4.4835,-4.5077,-4.5077,-4.5602,-4.6092,-4.5652,-4.5872,-4.6075,-4.5681,-4.5872,-4.6058,-4.5652,-4.6143,-4.6498,-4.5838,-4.5094,-4.4852,-4.5568,-4.5348,-4.5077,-4.5077,-4.5077,-4.5077,-4.5077,-4.4818,-4.4615,-4.4615,-4.4615,-4.4615,-4.4615,-4.4181,-4.3453,-4.2354,-4.2167,-4.1587,-4.05,-4.0449,-4.0449,-4.0449,-4.0449,-4.0726,-4.1291,-4.1041,-4.1512,-4.2711,-4.2711,-4.2826,0.0,0.0,-2.5623,-2.7799,0.0,0.0,0.0,0.0,0.0,0.0,0.0,0.0,0.0,0.0,0.0,0.0,0.0,0.0,0.0,0.0,0.0,0.0,0.0,0.0,0.0,0.0,0.0,0.0,0.0,0.0,-3.5504,-3.5504,-3.5504,-3.5504,-3.5504,-3.5504,-3.5504,-3.5504,-3.5504,-3.5504,-3.5504,-3.5587,-3.5814,-3.6965,-3.833,-3.9808,-4.002,-4.0096,-4.0146,-4.0679,-4.1035,-4.1255,-4.1813,-4.2117,-4.2354,-4.2929,-4.3223,-4.3504,-4.4079,-4.4445,-4.4615,-4.4615,-4.4615,-4.4615,-4.4615,-4.4615,-4.4615,-4.4615,-4.4993,-4.528,-4.475,-4.4993,-4.528,-4.4733,-4.501,-4.5314,-4.4942,-4.5162,-4.5415,-4.5415,-4.4976,-4.4784,-4.5331,-4.4942,-4.4615,-4.4615,-4.4615,-4.4615,-4.4615,-4.4615,-4.4615,-4.4615,-4.4615,-4.4615,-4.4615,-4.3859,-4.3098,-4.2337,-4.161,-4.0865,-4.013,-4.0096,-4.0096,-4.0096,-4.0096,-4.0286,-4.0703,-4.0703,-4.1223,-4.2244,-4.2244,-4.2322,0.0,-1.8461,0.0,0.0,0.0,0.0,0.0,0.0,0.0,0.0,0.0,0.0,0.0,0.0,0.0,0.0,0.0,0.0,0.0,0.0,0.0,0.0,0.0,0.0,0.0,0.0,0.0,0.0,0.0,0.0,-3.5504,-3.5504,-3.5504,-3.5504,-3.5504,-3.5504,-3.5504,-3.5504,-3.5504,-3.5504,-3.5504,-3.5863,-3.6554,-3.6646,-3.7496,-3.8989,-3.9782,-4.0096,-4.0096,-4.0146,-4.0561,-4.1204,-4.1238,-4.1677,-4.2286,-4.2337,-4.2811,-4.3392,-4.3443,-4.3961,-4.4615,-4.4615,-4.4615,-4.4615,-4.4615,-4.4615,-4.4615,-4.4615,-4.4632,-4.4649,-4.4615,-4.4632,-4.4649,-4.4615,-4.4632,-4.4852,-4.55,-4.5111,-4.4666,-4.4666,-4.4632,-4.4615,-4.4649,-4.4632,-4.4615,-4.4615,-4.4615,-4.4615,-4.4615,-4.4615,-4.4615,-4.4615,-4.4615,-4.4615,-4.4615,-4.3859,-4.3098,-4.2337,-4.161,-4.0865,-4.013,-4.0096,-4.0096,-4.0096,-4.0096,-4.0121,-4.0146,-4.0146,-4.0441,-4.0995,-4.0995,-4.1313,0.0,0.0,0.0,0.0,0.0,0.0,0.0,0.0,0.0,0.0,0.0,0.0,0.0,0.0,0.0,0.0,0.0,0.0,0.0,0.0,0.0,0.0,0.0,0.0,0.0,0.0,0.0,0.0,0.0,0.0,-3.4846,-3.5265,-3.5504,-3.5504,-3.5504,-3.5504,-3.5504,-3.5504,-3.5504,-3.5504,-3.5504,-3.5651,-3.5926,-3.6384,-3.6888,-3.7512,-3.8756,-3.961,-4.0096,-4.0096,-4.0265,-4.0476,-4.0476,-4.0671,-4.0959,-4.1407,-4.1762,-4.2066,-4.254,-4.32,-4.3826,-4.3826,-4.4181,-4.4615,-4.4615,-4.4615,-4.4615,-4.4615,-4.4615,-4.4615,-4.4615,-4.4615,-4.4615,-4.4615,-4.4615,-4.4682,-4.4953,-4.4801,-4.4615,-4.4615,-4.4615,-4.4615,-4.4615,-4.4615,-4.4615,-4.4615,-4.4615,-4.4615,-4.4615,-4.4615,-4.4412,-4.3876,-4.3826,-4.3639,-4.3149,-4.2439,-4.188,-4.161,-4.0899,-4.0383,-4.0113,-4.0096,-4.0096,-4.0096,-4.0096,-4.0096,-4.0096,-4.0096,-4.0368,-4.0903,-4.0903,-4.1018,-1.2804,0.0,0.0,0.0,0.0,0.0,0.0,0.0,0.0,0.0,0.0,0.0,0.0,0.0,0.0,0.0,0.0,0.0,0.0,0.0,0.0,0.0,0.0,0.0,0.0,0.0,0.0,0.0,0.0,0.0,-3.4174,-3.4577,-3.4936,-3.516,-3.5385,-3.5504,-3.5504,-3.5504,-3.5504,-3.5504,-3.5504,-3.5504,-3.5537,-3.6006,-3.6368,-3.6661,-3.7671,-3.8701,-3.9731,-3.9995,-4.0096,-4.0096,-4.0096,-4.0096,-4.0163,-4.0646,-4.0984,-4.1271,-4.1762,-4.2405,-4.3047,-4.3047,-4.3555,-4.4198,-4.4198,-4.4395,-4.4615,-4.4615,-4.4615,-4.4615,-4.4615,-4.4615,-4.4615,-4.4615,-4.4615,-4.4615,-4.4615,-4.4615,-4.4615,-4.4615,-4.4615,-4.4615,-4.4615,-4.4615,-4.4615,-4.4615,-4.4615,-4.4615,-4.4615,-4.4615,-4.4412,-4.3859,-4.3572,-4.3318,-4.3081,-4.1914,-4.1322,-4.1542,-4.0654,-4.0096,-4.0096,-4.0096,-4.0096,-4.0096,-4.0096,-4.0096,-4.0096,-4.0096,-4.0286,-4.0631,-4.0631,-4.0631,0.0,0.0,0.0,0.0,0.0,0.0,0.0,0.0,0.0,0.0,0.0,0.0,0.0,0.0,0.0,0.0,0.0,0.0,0.0,0.0,0.0,0.0,0.0,0.0,0.0,0.0,0.0,0.0,0.0,-3.3469,-3.3499,-3.3529,-3.3844,-3.4518,-3.516,-3.5504,-3.5504,-3.5504,-3.5504,-3.5504,-3.5504,-3.5504,-3.5504,-3.5504,-3.5894,-3.6584,-3.6615,-3.7467,-3.8935,-3.9731,-4.007,-4.007,-4.0096,-4.0096,-4.0096,-4.0096,-4.0544,-4.117,-4.117,-4.1644,-4.2252,-4.2252,-4.2777,-4.3358,-4.3375,-4.3944,-4.4581,-4.4598,-4.4615,-4.4615,-4.4615,-4.4615,-4.4615,-4.4615,-4.4615,-4.4615,-4.4615,-4.4615,-4.4615,-4.4615,-4.4615,-4.4615,-4.4615,-4.4615,-4.4615,-4.4615,-4.4581,-4.4581,-4.4615,-4.4581,-4.4564,-4.453,-4.3826,-4.3673,-4.4412,-4.2439,-4.1474,-4.2185,-4.0891,-4.0096,-4.0096,-4.0096,-4.0096,-4.0096,-4.0096,-4.0096,-4.0096,-4.0096,-4.0096,-4.0096,-4.0096,-4.0096,-1.2834,0.0,0.0,0.0,0.0,0.0,0.0,0.0,0.0,0.0,0.0,0.0,0.0,0.0,0.0,0.0,0.0,0.0,0.0,0.0,0.0,0.0,0.0,0.0,0.0,0.0,0.0,0.0,0.0,-3.2991,-3.3469,-3.4412,-3.504,-3.522,-3.54,-3.5504,-3.5504,-3.5504,-3.5504,-3.5504,-3.5504,-3.5504,-3.5504,-3.5504,-3.5619,-3.5863,-3.6995,-3.7719,-3.8161,-3.8924,-3.9236,-3.9289,-3.9859,-4.0096,-4.0096,-4.0096,-4.0231,-4.0417,-4.0417,-4.0882,-4.1508,-4.1508,-4.1999,-4.2709,-4.3223,-4.3572,-4.3859,-4.4445,-4.4615,-4.4615,-4.4615,-4.4615,-4.4615,-4.4615,-4.4615,-4.4615,-4.4615,-4.4615,-4.4615,-4.4615,-4.4615,-4.4615,-4.4615,-4.4615,-4.4615,-4.4615,-4.4096,-4.3944,-4.453,-4.4079,-4.3538,-4.298,-4.2726,-4.2252,-4.1416,-4.0773,-4.0502,-4.0705,-4.0333,-4.0096,-4.0096,-4.0096,-4.0096,-4.0096,-4.0096,-4.0096,-4.0096,-4.0096,-4.0096,-4.0096,-4.0096,-4.0096,-1.3403,-1.378,0.0,0.0,0.0,0.0,0.0,-1.7175,0.0,0.0,0.0,0.0,0.0,0.0,0.0,0.0,0.0,0.0,0.0,0.0,0.0,0.0,0.0,0.0,0.0,0.0,0.0,0.0,-3.1854,-3.2243,-3.2632,-3.3679,-3.4382,-3.4651,-3.4666,-3.4801,-3.507,-3.4801,-3.4666,-3.4666,-3.4951,-3.507,-3.5085,-3.537,-3.5504,-3.5569,-3.6799,-3.7308,-3.7381,-3.8453,-3.8908,-3.8962,-3.9782,-3.9901,-3.9636,-3.9995,-4.0096,-4.0096,-4.0096,-4.0383,-4.073,-4.073,-4.1238,-4.1914,-4.2354,-4.2902,-4.3494,-4.3961,-4.4096,-4.4181,-4.4513,-4.4333,-4.4181,-4.453,-4.4615,-4.4615,-4.4615,-4.4615,-4.4615,-4.4615,-4.4615,-4.4615,-4.4615,-4.4316,-4.4198,-4.4564,-4.3927,-4.3707,-4.4513,-4.391,-4.3223,-4.2811,-4.2202,-4.161,-4.1077,-4.0451,-4.0231,-4.0527,-4.0282,-4.0096,-4.0096,-4.0096,-4.0096,-4.0096,-4.0096,-4.0096,-4.0096,-4.0096,-4.0096,-4.0096,-4.0096,-4.0096,-1.4275,-1.4126,-1.438,0.0,0.0,0.0,-1.4811,-1.5725,0.0,0.0,0.0,0.0,0.0,0.0,0.0,0.0,0.0,0.0,0.0,0.0,0.0,0.0,0.0,0.0,0.0,0.0,0.0,-3.1511,-3.157,-3.1615,-3.1615,-3.2243,-3.2916,-3.3589,-3.3604,-3.3888,-3.4503,-3.3963,-3.3679,-3.3619,-3.4309,-3.4623,-3.4638,-3.5235,-3.5504,-3.5537,-3.6275,-3.6615,-3.6722,-3.827,-3.8908,-3.8962,-3.9782,-3.9662,-3.9113,-3.9833,-4.0096,-4.0096,-4.0096,-4.0096,-4.0096,-4.0096,-4.0527,-4.1085,-4.1187,-4.2134,-4.3156,-4.324,-4.3274,-4.3453,-4.4175,-4.3876,-4.3589,-4.4282,-4.4547,-4.4615,-4.4615,-4.4615,-4.4615,-4.4615,-4.4615,-4.4615,-4.4615,-4.4012,-4.3792,-4.4496,-4.3842,-4.3572,-4.435,-4.3707,-4.3156,-4.3156,-4.1982,-4.1424,-4.1999,-4.0857,-4.0383,-4.1035,-4.0468,-4.0096,-4.0096,-4.0096,-4.0096,-4.0096,-4.0096,-4.0096,-4.0096,-4.0096,-4.0096,-4.0096,-4.0096,-4.0096,0.0,0.0,0.0,0.0,0.0,0.0,-1.6712,-1.5291,-1.511,0.0,0.0,0.0,0.0,0.0,0.0,0.0,0.0,0.0,0.0,0.0,0.0,0.0,0.0,0.0,0.0,0.0,-3.1511,-3.1511,-3.1989,-3.2288,-3.2288,-3.2946,-3.3604,-3.4294,-3.4309,-3.4384,-3.4503,-3.4906,-3.4831,-3.4324,-3.4981,-3.5295,-3.531,-3.5444,-3.5504,-3.5537,-3.6275,-3.6615,-3.6722,-3.827,-3.8908,-3.8962,-3.9782,-3.9995,-3.9885,-4.0045,-4.0096,-4.0096,-4.0096,-4.0096,-4.0096,-4.0096,-4.0197,-4.0434,-4.1018,-4.1407,-4.1762,-4.2354,-4.2506,-4.254,-4.2692,-4.3081,-4.3426,-4.3606,-4.413,-4.4615,-4.4615,-4.4615,-4.4615,-4.4615,-4.4615,-4.4615,-4.4615,-4.4479,-4.4429,-4.4581,-4.3403,-4.2794,-4.3555,-4.2472,-4.1644,-4.1644,-4.1373,-4.1018,-4.057,-4.0282,-4.0163,-4.0316,-4.018,-4.0096,-4.0096,-4.0096,-4.0096,-4.0096,-4.0096,-4.0096,-4.0096,-4.0096,-4.0096,-4.0096,-4.0096,-4.0096,0.0,0.0,0.0,-1.6817,0.0,0.0,0.0,-1.4722,-1.4513,0.0,0.0,0.0,0.0,0.0,0.0,0.0,0.0,0.0,0.0,0.0,0.0,0.0,0.0,0.0,0.0,0.0,-3.1511,-3.1511,-3.1809,-3.1989,-3.1989,-3.2303,-3.2826,-3.3484,-3.3185,-3.3155,-3.3499,-3.3514,-3.3514,-3.3499,-3.4173,-3.4681,-3.4996,-3.5355,-3.5504,-3.5537,-3.6275,-3.6615,-3.6691,-3.7876,-3.8358,-3.8486,-3.9636,-3.9833,-3.9542,-3.9952,-4.0096,-4.0096,-4.0096,-4.0096,-4.0096,-4.0096,-4.0096,-4.018,-4.0527,-4.0899,-4.1356,-4.2083,-4.2033,-4.183,-4.2202,-4.2303,-4.2506,-4.3223,-4.3724,-4.4113,-4.4513,-4.4615,-4.4615,-4.4615,-4.4265,-4.3995,-4.3995,-4.369,-4.3464,-4.3464,-4.2472,-4.2016,-4.276,-4.188,-4.1204,-4.1204,-4.0865,-4.0493,-4.013,-4.0096,-4.0096,-4.0096,-4.0096,-4.0096,-4.0096,-4.0096,-4.0096,-4.0096,-4.0096,-4.0096,-4.0096,-4.0096,-4.0096,-4.0096,-4.0096,-4.0096,0.0,0.0,0.0,0.0,0.0,-1.6712,0.0,0.0,0.0,-1.6577,0.0,0.0,0.0,0.0,0.0,0.0,0.0,0.0,0.0,0.0,0.0,0.0,0.0,0.0,0.0,0.0,-3.1511,-3.1511,-3.1511,-3.1511,-3.1511,-3.1511,-3.1809,-3.2497,-3.1974,-3.2004,-3.2706,-3.2153,-3.2213,-3.2901,-3.3425,-3.4023,-3.4728,-3.525,-3.5504,-3.5537,-3.6149,-3.6384,-3.6446,-3.7397,-3.7793,-3.7937,-3.9332,-3.9463,-3.8989,-3.9808,-4.0096,-4.0096,-4.0096,-4.0096,-4.0096,-4.0096,-4.0096,-4.0096,-4.0096,-4.0536,-4.1102,-4.1694,-4.1542,-4.1305,-4.1745,-4.1745,-4.1897,-4.2946,-4.3436,-4.3775,-4.4248,-4.4378,-4.4344,-4.4192,-4.3623,-4.325,-4.3375,-4.2794,-4.2286,-4.2286,-4.1677,-4.1424,-4.1999,-4.1441,-4.0984,-4.0984,-4.0468,-4.0096,-4.0096,-4.0096,-4.0096,-4.0096,-4.0096,-4.0096,-4.0096,-4.0096,-4.0096,-4.0096,-4.0096,-4.0096,-4.0096,-4.0096,-4.0096,-4.0096,-4.0096,-4.0096,0.0,0.0,0.0,0.0,-1.8538,0.0,0.0,0.0,-1.532,-1.4438,0.0,0.0,0.0,0.0,0.0,0.0,0.0,0.0,0.0,0.0,0.0,0.0,0.0,0.0,0.0,0.0,0.0,-3.1511,-3.1511,-3.1511,-3.1511,-3.1511,-3.1809,-3.2497,-3.2437,-3.2721,-3.338,-3.3305,-3.3604,-3.4279,-3.4354,-3.4726,-3.5385,-3.5474,-3.5504,-3.5504,-3.5587,-3.5619,-3.5733,-3.7205,-3.7793,-3.7892,-3.8718,-3.8962,-3.8989,-3.9808,-4.0096,-4.0096,-4.0096,-4.0096,-4.0096,-4.0096,-4.0096,-4.0096,-4.0096,-4.0163,-4.0248,-4.0333,-4.0747,-4.1068,-4.0502,-4.1745,-4.3047,-4.254,-4.3453,-4.4282,-4.3673,-4.3527,-4.3352,-4.2675,-4.2472,-4.2625,-4.3274,-4.2794,-4.2286,-4.2286,-4.1677,-4.1238,-4.1322,-4.0679,-4.0231,-4.0231,-4.0146,-4.0096,-4.0096,-4.0096,-4.0096,-4.0096,-4.0096,-4.0096,-4.0096,-4.0096,-4.0096,-4.0096,-4.0096,-4.0096,-4.0096,-4.0096,-4.0096,-4.0096,-4.0096,-4.0096,0.0,0.0,0.0,0.0,0.0,0.0,-1.7535,0.0,-1.6533,0.0,0.0,0.0,0.0,0.0,0.0,0.0,0.0,0.0,0.0,0.0,0.0,0.0,0.0,0.0,0.0,0.0,0.0,0.0,0.0,-2.8831,-2.922,-3.0673,-3.163,-3.1914,-3.1914,-3.2049,-3.2333,-3.2333,-3.2886,-3.3903,-3.3903,-3.4457,-3.5504,-3.5504,-3.5504,-3.5504,-3.5504,-3.5504,-3.5569,-3.6196,-3.6461,-3.6569,-3.779,-3.8816,-3.9636,-3.9995,-4.0096,-4.0096,-4.0096,-4.0096,-4.0096,-4.0096,-4.0096,-4.0096,-4.0096,-4.0096,-4.0096,-4.0096,-4.0333,-4.0476,-4.018,-4.0807,-4.1508,-4.1627,-4.2151,-4.2777,-4.3274,-4.3064,-4.2811,-4.2929,-4.2252,-4.1762,-4.2083,-4.188,-4.1508,-4.1094,-4.0773,-4.0544,-4.0544,-4.0299,-4.0096,-4.0096,-4.0096,-4.0096,-4.0096,-4.0096,-4.0096,-4.0096,-4.0096,-4.0096,-4.0096,-4.0096,-4.0096,-4.0096,-4.0096,-4.0096,-4.0096,-4.0096,-4.0096,-4.0096,-4.0096,-4.0096,-2.3107,0.0,0.0,0.0,0.0,0.0,0.0,0.0,0.0,0.0,0.0,0.0,0.0,0.0,0.0,0.0,0.0,0.0,0.0,0.0,0.0,0.0,0.0,0.0,0.0,0.0,0.0,0.0,0.0,0.0,-2.727,-2.9295,-3.0748,-3.1481,-3.1511,-3.1675,-3.2034,-3.1869,-3.2527,-3.4038,-3.3858,-3.4382,-3.5504,-3.5504,-3.5504,-3.5504,-3.5504,-3.5504,-3.5504,-3.5733,-3.5814,-3.5926,-3.7294,-3.8486,-3.9506,-3.9927,-4.0096,-4.0096,-4.0096,-4.0096,-4.0096,-4.0096,-4.0096,-4.0096,-4.0096,-4.0096,-4.0096,-4.0096,-4.0248,-4.0367,-4.0146,-4.04,-4.0807,-4.1119,-4.1356,-4.1745,-4.2625,-4.2388,-4.21,-4.2439,-4.1627,-4.0899,-4.0899,-4.0899,-4.0713,-4.018,-4.0096,-4.0096,-4.0096,-4.0096,-4.0096,-4.0096,-4.0096,-4.0096,-4.0096,-4.0096,-4.0096,-4.0096,-4.0096,-4.0096,-4.0096,-4.0096,-4.0096,-4.0096,-4.0096,-4.0096,-4.0096,-4.0096,-4.0096,-4.0096,-4.0096,-4.0096,0.0,0.0,0.0,-2.5046,0.0,0.0,0.0,0.0,-1.8461,0.0,0.0,0.0,0.0,0.0,-1.4841,-1.2239,0.0,0.0,0.0,0.0,0.0,0.0,0.0,0.0,0.0,0.0,0.0,0.0,0.0,0.0,-2.6507,-2.733,-2.8876,-3.1421,-3.1511,-3.2108,-3.3425,-3.2796,-3.3484,-3.5429,-3.4788,-3.4816,-3.5504,-3.5504,-3.5504,-3.5504,-3.5504,-3.5504,-3.5554,-3.6275,-3.6538,-3.6646,-3.7485,-3.7822,-3.8064,-3.9558,-4.0096,-4.0096,-4.0096,-4.0096,-4.0096,-4.0096,-4.0096,-4.0096,-4.0096,-4.0096,-4.0096,-4.0096,-4.0595,-4.1001,-4.0299,-4.1179,-4.2049,-4.1373,-4.1745,-4.2066,-4.1407,-4.1255,-4.1035,-4.035,-4.018,-4.0146,-4.0146,-4.0146,-4.013,-4.0096,-4.0096,-4.0096,-4.0096,-4.0096,-4.0096,-4.0096,-4.0096,-4.0096,-4.0096,-4.0096,-4.0096,-4.0096,-4.0096,-4.0096,-4.0096,-4.0096,-4.0096,-4.0096,-4.0096,-4.0096,-4.0096,-4.0096,-4.0096,-4.0096,-4.0096,-4.0096,0.0,0.0,-2.6752,-2.7425,0.0,0.0,0.0,0.0,0.0,0.0,0.0,0.0,0.0,0.0,-1.5364,-1.4002,-1.3421,-1.2909,0.0,0.0,0.0,0.0,0.0,0.0,0.0,0.0,0.0,0.0,0.0,0.0,0.0,-2.6297,-2.8786,-3.1421,-3.1511,-3.172,-3.2168,-3.1944,-3.2647,-3.4173,-3.3948,-3.4412,-3.5504,-3.5504,-3.5504,-3.5504,-3.5504,-3.5504,-3.5554,-3.6306,-3.6615,-3.6722,-3.8032,-3.8525,-3.8525,-3.8569,-3.8887,-3.9368,-3.9927,-4.0096,-4.0096,-4.0096,-4.0096,-4.0096,-4.0096,-4.0096,-4.0096,-4.0096,-4.0282,-4.0417,-4.0163,-4.0468,-4.079,-4.0536,-4.0671,-4.0899,-4.1153,-4.0815,-4.0527,-4.0781,-4.0434,-4.0096,-4.0096,-4.0096,-4.0096,-4.0096,-4.0096,-4.0096,-4.0096,-4.0096,-4.0096,-4.0096,-4.0096,-4.0096,-4.0096,-4.0096,-4.0096,-4.0096,-4.0096,-4.0096,-4.0096,-4.0096,-4.0096,-4.0096,-4.0096,-4.0096,-4.0096,-4.0096,-4.0096,-4.0096,-4.0096,-4.0096,-2.9268,-2.9131,0.0,0.0,-2.7604,0.0,-2.4911,0.0,0.0,0.0,0.0,0.0,0.0,0.0,-1.6039,-1.4663,-1.372,-1.2999,0.0,-1.228,0.0,0.0,0.0,0.0,0.0,0.0,0.0,0.0,0.0,0.0,0.0,0.0,-2.7814,-3.1391,-3.1511,-3.1615,-3.1854,-3.1854,-3.2392,-3.3499,-3.3499,-3.4068,-3.513,-3.513,-3.5265,-3.5504,-3.5504,-3.5504,-3.5537,-3.6006,-3.6228,-3.6337,-3.7584,-3.8072,-3.8145,-3.8486,-3.8914,-3.9394,-3.9927,-4.0096,-4.0096,-4.0096,-4.0096,-4.0096,-4.0096,-4.0096,-4.0146,-4.0434,-4.0316,-4.0113,-4.0092,-4.0104,-4.002,-3.9756,-3.9901,-4.0155,-4.0335,-4.0238,-4.0155,-4.0352,-4.0238,-4.0096,-4.0096,-4.0096,-4.0096,-4.0096,-4.0096,-4.0096,-4.0096,-4.0096,-4.0096,-4.0096,-4.0096,-4.0096,-4.0096,-4.0096,-4.0096,-4.0096,-4.0096,-4.0096,-4.0096,-4.0096,-4.0231,-4.0476,-4.0231,-4.0231,-4.0476,-4.0231,-4.0096,-4.0096,-4.0096,-4.0096]}]]